     2              OBSERVATION DATA    GPS                 RINEX VERSION / TYPE
teqc 1998Mar9 19981006 18:53:01UTC                          PGM / RUN BY / DATE
                                                            COMMENT
Original Marker Name: PALO                                  COMMENT
Campaign Name: HPGN 1998                                    COMMENT
4-Character Station Name: PALO                              COMMENT
6-Character Antenna Code: TRMCMP                            COMMENT
Vertical Measurement Point: BPA                             COMMENT
Vertical Offset to Rinex Ref. Point: 0.0000                 COMMENT
Radial Measurement Point: RRP                               COMMENT
Radial Offset to Rinex Ref. Point: 0.0000                   COMMENT
Antenna Height from Field Measurement: 2.0000 m             COMMENT
Original XYZ: -2525454.5942 -4670040.1989 3522889.9021      COMMENT
New XYZ position is based on association with SCEC monument COMMENT
E1C7V2S0+0011. Position of that monument is believed to be  COMMENT
valid to within 1 m horizontally; vertical accuracy         COMMENT
should be no worse than 3-times this value.                 COMMENT
                                                            COMMENT
Revised Rinex header created by UCSD GPS archive for        COMMENT
GSAC on 05-Apr-1999 (1999:095) 23:55:42 GMT                 COMMENT
For assistance contact dagnew@ucsd.edu or hjohnson@ucsd.edu COMMENT
                                                            COMMENT
PALOS VERDES ARIES 7268                                     MARKER NAME
unknown CALIF DEPT TRANSPORTATION                           OBSERVER / AGENCY
7286 TRIMBLE 4000 SSE NP 7.25; SP 3.07                      REC # / TYPE / VERS
115365 TR GEOD L1/L2 GP                                     ANT # / TYPE
 -2525453.0000 -4670035.0000  3522887.0000                  APPROX POSITION XYZ
        2.0000        0.0000        0.0000                  ANTENNA: DELTA H/E/N
     1     1     0                                          WAVELENGTH FACT L1/2
     7    L1    L2    C1    P2    P1    D1    D2            # / TYPES OF OBSERV
     0                                                      INTERVAL
  1998     6    17     0    30   30.000000                  TIME OF FIRST OBS
  1998     6    17    23    44   30.000000                  TIME OF LAST OBS
                                                            END OF HEADER
 98  6 17  0 30 30.0000000  0  9G 1G 3G 8G 9G17G21G23G29G31
   -457991.16256   -310721.01556  21114722.8204   21114728.6454
      1439.8284       1121.9444
    221997.79956    153051.03256  21658766.8754   21658772.4414
      -869.1094       -677.2284
   -535097.85655   -335318.71353  23581119.1954   23581125.7234
      1726.2814       1345.1544
     73599.14053     46891.57253  24025968.7424   24025974.9064
      -359.9534       -280.4834
    849441.98155    536482.71655  22948003.3674   22948009.6954
     -2934.0474      -2286.2704
     31349.14156     21782.34556  21220612.8834   21220617.6884
      -159.4844       -124.2744
    539641.84256    370966.45456  22092348.4304   22092353.7504
     -1857.2344      -1447.1964
   -838425.25755   -526432.81455  23014852.8594   23014859.4804
      2757.6884       2148.8474
   -446721.96255   -278474.31855  23353800.2894   23353805.9494
      1398.0944       1089.4244
 98  6 17  0 31  0.0000000  0  9G 1G 3G 8G 9G17G21G23G29G31
   -500896.94646   -344154.04746  21106558.0164   21106563.7934
      1420.8594       1107.1634
    248414.39346    173635.37046  21663793.7504   21663799.1294
      -891.7504       -694.8704
   -586677.94245   -375510.89844  23571304.1334   23571310.4964
      1712.5634       1334.4644
     84700.18744     55541.75943  24028081.7894   24028087.6844
      -379.9844       -296.0924
    937669.09945    605231.06445  22964792.8594   22964799.1054
     -2947.5004      -2296.7534
     36272.82046     25618.99746  21221549.6414   21221554.2344
      -168.5624       -131.3474
    595451.63746    414454.59546  22102968.9454   22102974.1484
     -1863.3124      -1451.9324
   -920988.63145   -590767.78545  22999141.1954   22999146.9024
      2746.7034       2140.2884
   -488357.68345   -310917.72644  23345877.7344   23345883.7584
      1377.8444       1073.6444
 98  6 17  0 31 30.0000000  0  9G 1G 3G 8G 9G17G21G23G29G31
   -543247.65046   -377154.55246  21098499.1804   21098504.9804
      1402.5004       1092.8574
    275493.33746    194735.82646  21668946.7504   21668952.3524
      -913.4844       -711.8064
   -637855.87245   -415389.69843  23561564.8444   23561570.7274
      1699.4694       1324.2614
     96398.20844     64657.14343  24030307.4454   24030313.3984
      -399.9694       -311.6644
   1026276.58445    674275.75345  22981654.4844   22981660.7894
     -2959.5004      -2306.1044
     41454.68046     29656.82746  21222535.7664   21222540.5704
      -176.8444       -137.8004
    651447.04846    458087.36646  22113624.5084   22113630.0044
     -1869.7504      -1456.9484
  -1003234.41945   -654855.29245  22983491.1954   22983497.1484
      2736.2504       2132.1434
   -529400.96145   -342899.44845  23338066.6884   23338072.5704
      1358.4224       1058.5114
 98  6 17  0 32  0.0010000  0  9G 1G 3G 8G 9G17G21G23G29G31
   -585064.80346   -409739.29646  21090541.3724   21090546.9624
      1384.7814       1079.0504
    303212.64046    216335.25946  21674221.6064   21674227.0794
      -934.8444       -728.4504
   -688664.08044   -454980.44344  23551896.5214   23551903.1424
      1687.2664       1314.7524
    108682.21144     74229.09743  24032644.9894   24032651.4704
      -419.2814       -326.7134
   1115219.33745    743581.72545  22998579.7474   22998586.1814
     -2970.1094      -2314.3714
     46862.89346     33871.04046  21223564.7554   21223569.2434
      -183.9064       -143.3044
    707616.94246    501856.10946  22124313.1774   22124318.5914
     -1875.0314      -1461.0634
  -1085180.20045   -718709.01145  22967896.9424   22967902.8844
      2726.2504       2124.3514
   -569882.15645   -374443.21345  23330363.5364   23330369.1384
      1339.7974       1043.9984
 98  6 17  0 32 30.0010000  0  9G 1G 3G 8G 9G17G21G23G29G31
   -626331.47846   -441895.10946  21082688.5754   21082693.9424
      1366.4534       1064.7694
    331570.72746    238432.44946  21679617.9034   21679623.6104
      -955.5004       -744.5454
   -739100.33345   -494281.29044  23542298.0284   23542304.6384
      1675.2974       1305.4264
    121554.24744     84259.29843  24035095.1224   24035100.1384
      -438.7034       -341.8474
   1204481.35145    813136.45245  23015565.4354   23015571.3414
     -2980.6724      -2322.6014
     52478.16146     38246.58846  21224633.4194   21224638.0244
      -190.3754       -148.3444
    763939.30946    545743.66846  22135030.8804   22135036.3414
     -1879.5944      -1464.6194
  -1166815.28245   -782320.64345  22952361.8174   22952367.7714
      2716.1254       2116.4614
   -609803.48845   -405550.70445  23322766.6534   23322772.6184
      1321.7974       1029.9724
 98  6 17  0 33  0.0010000  0  9G 1G 3G 8G 9G17G21G23G29G31
   -667056.38946   -473628.75246  21074939.0054   21074943.9744
      1348.5474       1050.8164
    360546.66846    261011.07746  21685131.7394   21685137.1064
      -976.1254       -760.6174
   -789180.66845   -533304.86443  23532768.7784   23532774.5914
      1663.5944       1296.3074
    134999.74244     94736.35243  24037652.7004   24037658.1264
      -457.5164       -356.5064
   1294065.38545    882942.09645  23032612.6464   23032618.8214
     -2991.4224      -2330.9784
     58291.05246     42776.12846  21225739.3644   21225744.0874
      -197.1094       -153.5924
    820387.87646    589729.55946  22145772.7554   22145778.3564
     -1883.6564      -1467.7844
  -1248149.23645   -845697.60845  22936884.5214   22936890.7554
      2706.2344       2108.7544
   -649191.04445   -436242.27945  23315272.3414   23315278.7514
      1304.1094       1016.1894
 98  6 17  0 33 30.0010000  0  9G 1G 3G 8G 9G17G21G23G29G31
   -707241.56946   -504941.83546  21067291.9194   21067297.1924
      1330.4064       1036.6804
    390136.07846    284067.73346  21690762.3104   21690767.7004
      -996.6094       -776.5794
   -838917.71245   -572060.95244  23523303.7474   23523310.9354
      1652.1254       1287.3704
    149004.94844    105649.52143  24040318.1614   24040323.7394
      -476.1254       -371.0064
   1383963.22645    952992.27745  23049719.7714   23049725.7474
     -3001.8754      -2339.1234
     64305.16446     47462.46646  21226884.0444   21226888.5094
      -203.7814       -158.7914
    876960.63446    633812.21246  22156538.4424   22156543.6814
     -1887.7664      -1470.9864
  -1329185.79445   -908842.88045  22921463.8644   22921470.3214
      2696.0004       2100.7794
   -688049.78545   -466521.79745  23307877.0134   23307882.1104
      1286.3594       1002.3584
 98  6 17  0 34  0.0010000  0  9G 1G 3G 8G 9G17G21G23G29G31
   -746890.28446   -535836.89546  21059747.2164   21059752.3134
      1312.8914       1023.0324
    420339.30146    307602.69846  21696510.2164   21696515.7474
     -1016.8124       -792.3214
   -888310.13045   -610548.41944  23513904.9664   23513911.0244
      1640.7974       1278.5434
    163555.13044    116987.35743  24043087.4424   24043094.4194
      -493.7814       -384.7654
   1474178.63045   1023289.91445  23066887.9814   23066894.0524
     -3012.4534      -2347.3664
     70515.01446     52301.32246  21228065.7634   21228070.5564
      -210.1724       -163.7704
    933639.43546    677977.50346  22167323.9194   22167329.1924
     -1890.7034      -1473.2754
  -1409911.67845   -971746.03045  22906102.1534   22906108.1654
      2685.8754       2092.8904
   -726373.88345   -496384.72444  23300584.0994   23300591.0634
      1268.6414        988.5514
 98  6 17  0 34 30.0010000  0  9G 1G 3G 8G 9G17G21G23G29G31
   -786021.69846   -566328.86846  21052300.9274   21052306.0954
      1295.8284       1009.7364
    451128.49346    331594.25146  21702369.3564   21702374.5954
     -1035.8444       -807.1514
   -937377.31945   -648782.48144  23504567.3414   23504574.3644
      1630.1884       1270.2764
    178623.21544    128728.75243  24045954.4974   24045959.8994
      -510.9844       -398.1704
   1564707.33645   1093831.68945  23084114.6464   23084121.0914
     -3023.0004      -2355.5844
     76912.18546     57286.14346  21229283.0364   21229287.7244
      -216.5164       -168.7134
    990396.30246    722203.62146  22178124.6854   22178130.0404
     -1893.4224      -1475.3944
  -1490346.14545  -1034422.11845  22890796.2164   22890802.2864
      2676.2194       2085.3654
   -764174.76245   -525839.95645  23293391.1064   23293397.0134
      1251.2034        974.9634
 98  6 17  0 35  0.0010000  0  9G 1G 3G 8G 9G17G21G23G29G31
   -824649.14746   -596428.14246  21044950.0444   21044955.0714
      1279.1724        996.7574
    482490.16446    356031.88646  21708337.3964   21708342.9624
     -1055.1094       -822.1634
   -986116.96445   -686761.39644  23495293.0994   23495298.6184
      1619.0314       1261.5834
    194211.50344    140875.49943  24048920.2244   24048924.6654
      -528.4694       -411.7944
   1655551.04145   1164618.89545  23101402.0284   23101408.0284
     -3033.2974      -2363.6084
     83497.18246     62417.31946  21230536.2314   21230541.0014
      -222.5944       -173.4504
   1047244.11346    766500.60546  22188942.4894   22188947.9154
     -1896.5784      -1477.8534
  -1570487.52845  -1096869.81545  22875545.5134   22875551.4784
      2666.3594       2077.6834
   -801446.27045   -554882.67745  23286298.8804   23286304.5054
      1233.3754        961.0714
 98  6 17  0 35 30.0010000  0  9G 1G 3G 8G 9G17G21G23G29G31
   -862783.99946   -626143.56946  21037693.3334   21037698.3254
      1263.0474        984.1924
    514424.29146    380915.61246  21714414.2244   21714419.4504
     -1074.1414       -836.9934
  -1034515.77745   -724474.63844  23486082.6064   23486088.2904
      1607.2344       1252.3904
    210326.16144    153432.39443  24051987.5994   24051993.3884
      -546.2034       -425.6134
   1746694.20145   1235639.45744  23118746.0914   23118752.7354
     -3043.1254      -2371.2664
     90252.39446     67681.13446  21231821.9584   21231826.5874
      -228.0004       -177.6624
   1104181.99546    810867.77046  22199777.2004   22199782.4034
     -1899.4064      -1480.0574
  -1650333.27445  -1159087.16145  22860351.4894   22860357.4074
      2656.3594       2069.8904
   -838182.93245   -583508.65745  23279307.7004   23279313.5484
      1215.4064        947.0704
 98  6 17  0 36  0.0010000  0  9G 1G 3G 8G 9G17G21G23G29G31
   -900437.12246   -655483.62846  21030528.0994   21030532.7514
      1247.3134        971.9324
    546931.76846    406246.08646  21720600.1534   21720605.9074
     -1092.6414       -851.4084
  -1082550.65545   -761904.32144  23476942.0674   23476948.0914
      1595.4224       1243.1864
    226984.81344    166413.16743  24055157.8334   24055163.0364
      -564.1094       -439.5664
   1838133.07945   1306890.42145  23136146.3884   23136152.3414
     -3052.4374      -2378.5234
     97182.13646     73080.93846  21233140.2784   21233144.9544
      -233.7974       -182.1794
   1161202.49246    855299.32946  22210627.9814   22210632.9504
     -1901.6724      -1481.8224
  -1729876.20845  -1221068.54645  22845214.8884   22845220.5244
      2646.8914       2062.5124
   -874373.11945   -611708.77045  23272421.1924   23272427.0874
      1197.5474        933.1534
 98  6 17  0 36 30.0010000  0  9G 1G 3G 8G 9G17G21G23G29G31
   -937606.04046   -684446.38646  21023455.1304   21023459.8994
      1230.9694        959.1964
    580001.19946    432014.44146  21726892.8494   21726897.8644
     -1111.7344       -866.2874
  -1130219.69745   -799048.90144  23467870.6304   23467876.5834
      1582.7344       1233.3004
    244193.02844    179822.19843  24058431.1384   24058436.7164
      -582.8754       -454.1884
   1929857.99045   1378364.26645  23153600.8644   23153608.1224
     -3062.3444      -2386.2424
    104297.33746     78625.25246  21234494.4504   21234499.3024
      -240.2034       -187.1714
   1218303.69346    899793.76746  22221493.9274   22221499.0484
     -1904.8284      -1484.2824
  -1809127.48545  -1282822.65545  22830133.3564   22830139.3334
      2636.7814       2054.6354
   -910015.50545   -639482.04245  23265638.7634   23265644.5054
      1178.9534        918.6654
 98  6 17  0 37  0.0010000  0  9G 1G 3G 8G 9G17G21G23G29G31
   -974284.93246   -713027.30646  21016475.5054   21016480.2044
      1214.5944        946.4374
    613651.68846    458235.57246  21733296.6614   21733302.3104
     -1131.3594       -881.5794
  -1177501.49945   -835891.80844  23458873.2314   23458878.8104
      1569.7504       1223.1824
    261969.35744    193673.93843  24061815.3254   24061822.1344
      -601.7664       -468.9084
   2021883.60645   1450072.45644  23171113.7004   23171118.9034
     -3072.2504      -2393.9614
    111602.79646     84317.81946  21235884.5674   21235889.1964
      -246.4844       -192.0664
   1275495.88046    944359.08346  22232377.2634   22232382.7124
     -1907.4064      -1486.2914
  -1888073.38345  -1344338.80845  22815110.2634   22815116.4624
      2626.7664       2046.8304
   -945099.83545   -666820.47345  23258962.3644   23258968.1184
      1160.4064        904.2134
 98  6 17  0 37 30.0010000  0  9G 1G 3G 8G 9G17G21G23G29G31
  -1010461.80546   -741217.04146  21009590.9194   21009595.5834
      1197.4384        933.0684
    647895.08446    484918.70446  21739813.1144   21739818.9974
     -1151.2194       -897.0544
  -1224385.99345   -872425.11744  23449951.8644   23449957.8644
      1556.3134       1212.7114
    280314.54944    207968.87443  24065305.6144   24065311.4384
      -620.9374       -483.8474
   2114213.13445   1522017.44845  23188683.0834   23188688.4854
     -3082.6414      -2402.0584
    119107.49446     90165.64146  21237312.6144   21237317.1964
      -253.5784       -197.5934
   1332768.67746    988987.22646  22243276.1224   22243281.5134
     -1910.4534      -1488.6654
  -1966722.85845  -1405624.01145  22800143.8804   22800149.9154
      2616.9224       2039.1604
   -979622.92645   -693721.59145  23252392.5364   23252398.3024
      1141.4844        889.4684
 98  6 17  0 38  0.0010000  0  9G 1G 3G 8G 9G17G21G23G29G31
  -1046112.08846   -768996.44746  21002807.0134   21002811.6884
      1179.3914        919.0064
    682732.57346    512064.77146  21746442.1144   21746447.9974
     -1171.0624       -912.5164
  -1270880.44445   -908654.44744  23441103.2314   23441109.8644
      1543.6884       1202.8734
    299236.76644    222713.50543  24068906.4814   24068912.2944
      -640.1414       -498.8114
   2206854.71145   1594205.60745  23206312.0834   23206318.8454
     -3093.3594      -2410.4104
    126832.78546     96185.35246  21238782.7944   21238787.5994
      -261.1874       -203.5234
   1390138.41846   1033690.90646  22254193.1534   22254198.5444
     -1914.0474      -1491.4654
  -2045081.06645  -1466682.22645  22785232.7084   22785238.5444
      2607.2194       2031.5994
  -1013585.49045   -720185.90145  23245929.4504   23245934.9354
      1122.9384        875.0164
 98  6 17  0 38 30.0010000  0  9G 1G 3G 8G 9G17G21G23G29G31
  -1081220.78546   -796353.84146  20996125.6924   20996130.6854
      1160.9384        904.6274
    718172.53646    539680.29546  21753186.3494   21753191.9384
     -1191.9374       -928.7824
  -1317000.01445   -944591.69444  23432326.9974   23432332.8804
      1530.5634       1192.6464
    318728.79344    237902.09243  24072615.9504   24072622.7944
      -659.7344       -514.0794
   2299827.88045   1666652.14445  23224004.6384   23224010.3924
     -3105.2344      -2419.6634
    134774.65246    102373.82346  21240294.0134   21240298.6884
      -268.5314       -209.2454
   1447618.99946   1078480.94846  22265131.1224   22265136.6884
     -1918.3914      -1494.8504
  -2123145.41645  -1527511.46545  22770377.2634   22770383.4154
      2596.7034       2023.4054
  -1046996.66545   -746220.58245  23239572.0054   23239577.1264
      1104.1884        860.4064
 98  6 17  0 39  0.0010000  0  9G 1G 3G 8G 9G17G21G23G29G31
  -1115792.08046   -823292.47846  20989547.1694   20989552.3254
      1143.5784        891.1004
    754222.29846    567770.97346  21760046.3104   21760051.9934
     -1211.7194       -944.1964
  -1362732.70045   -980227.50444  23423624.4814   23423630.9504
      1517.9534       1182.8214
    338796.90144    253539.59343  24076434.0134   24076439.9894
      -678.3754       -528.6044
   2393140.29845   1739362.98544  23241760.8564   23241767.2904
     -3115.7974      -2427.8944
    142917.50446    108718.90846  21241843.3804   21241848.2314
      -274.5624       -213.9454
   1505222.10246   1123366.47146  22276092.7714   22276097.8214
     -1922.1874      -1497.8084
  -2200906.56445  -1588104.45145  22755580.1694   22755586.2514
      2587.0314       2015.8694
  -1079860.99045   -771829.13245  23233317.8724   23233322.7714
      1086.5004        846.6234
 98  6 17  0 39 30.0010000  0  9G 1G 3G 8G 9G17G21G23G29G31
  -1149839.32246   -849822.76446  20983067.9504   20983073.2944
      1126.3444        877.6704
    790868.81646    596326.66546  21767019.9034   21767025.6104
     -1231.2034       -959.3794
  -1408085.32945  -1015567.12844  23414993.5994   23415000.2554
      1505.8444       1173.3854
    359423.90344    269612.60543  24080359.4034   24080366.0714
      -696.7194       -542.8984
   2486768.82945   1812320.16744  23259577.8104   23259584.1264
     -3126.0474      -2435.8814
    151243.88546    115206.99946  21243427.9664   21243432.7824
      -280.3284       -218.4374
   1562952.77746   1168351.38446  22287078.2474   22287083.4504
     -1926.4844      -1501.1574
  -2278363.82845  -1648460.66745  22740840.2634   22740846.1924
      2576.7974       2007.8944
  -1112194.13145   -797023.77545  23227165.2244   23227170.7904
      1069.1094        833.0724
 98  6 17  0 40  0.0010000  0  9G 1G 3G 8G 9G17G21G23G29G31
  -1183361.81046   -875944.15046  20976688.9424   20976694.1694
      1108.8284        864.0224
    828108.19346    625344.32446  21774106.1614   21774111.8564
     -1251.2344       -974.9884
  -1453074.16845  -1050623.30244  23406433.0054   23406439.2394
      1493.4064       1163.6934
    380613.51844    286124.04343  24084391.4744   24084396.2674
      -715.6254       -557.6304
   2580718.28045   1885527.41745  23277456.5834   23277462.9934
     -3137.1414      -2444.5254
    159746.00546    121832.03146  21245045.9584   21245050.6344
      -286.2034       -223.0154
   1620817.55246   1213440.80646  22298089.6384   22298095.0404
     -1931.0004      -1504.6754
  -2355492.71745  -1708560.99445  22726163.1304   22726168.6034
      2565.2974       1998.9334
  -1143998.62345   -821806.49445  23221113.0134   23221117.9114
      1051.3284        819.2174
 98  6 17  0 40 30.0010000  0  9G 1G 3G 8G 9G17G21G23G29G31
  -1216367.83246   -901663.09046  20970408.1064   20970413.4154
      1091.3754        850.4224
    865947.31246    654829.31946  21781306.7944   21781312.5244
     -1271.3754       -990.6824
  -1497676.70045  -1085378.45344  23397945.5284   23397951.0364
      1479.9064       1153.1744
    402364.99944    303073.27543  24088531.5604   24088537.3374
      -734.6254       -572.4354
   2674992.51645   1958987.76644  23295396.2864   23295402.3104
     -3147.7974      -2452.8294
    168412.70246    128585.30646  21246695.2004   21246699.9114
      -291.7504       -227.3384
   1678805.16346   1258625.95245  22309124.7314   22309130.3334
     -1934.9224      -1507.7314
  -2432277.99745  -1768393.58145  22711551.2394   22711556.9114
      2553.5314       1989.7654
  -1175264.97245   -846169.86445  23215163.1224   23215168.9354
      1032.9694        804.9114
 98  6 17  0 41  0.0010000  0  9G 1G 3G 8G 9G17G21G23G29G31
  -1248845.13746   -926970.05146  20964227.6694   20964233.2474
      1073.4844        836.4814
    904382.07246    684778.44846  21788620.8254   21788626.4974
     -1291.2034      -1006.1324
  -1541875.40345  -1119818.91744  23389534.5914   23389541.0954
      1466.6564       1142.8494
    424684.06144    320464.75543  24092778.2944   24092785.5054
      -753.4694       -587.1194
   2769573.89545   2032687.43145  23313394.3804   23313400.7674
     -3157.6874      -2460.5364
    177250.66846    135472.03646  21248376.7554   21248381.9814
      -297.6724       -231.9524
   1736912.43846   1303904.32945  22320181.7714   22320187.1614
     -1939.0314      -1510.9334
  -2508710.24646  -1827951.08745  22697006.6694   22697011.9424
      2541.7664       1980.5974
  -1205979.12745   -870102.93945  23209318.1534   23209324.0244
      1014.4384        790.4714
 98  6 17  0 41 30.0010000  0  9G 1G 3G 8G 9G17G21G23G29G31
  -1280777.36446   -951852.27146  20958151.4034   20958156.5834
      1055.1564        822.2004
    943417.15746    715195.36046  21796048.7784   21796054.3454
     -1311.0944      -1021.6314
  -1585687.21945  -1153957.91445  23381197.0754   23381202.9354
      1454.0004       1132.9874
    447567.64144    338296.14643  24097132.6924   24097138.4584
      -772.2504       -601.7534
   2864448.25445   2106615.39844  23331448.6064   23331454.4424
     -3167.5164      -2468.1944
    186273.41146    142502.74646  21250093.7864   21250098.2284
      -303.9694       -236.8594
   1795135.79246   1349273.15545  22331261.1224   22331267.0524
     -1942.5474      -1513.6734
  -2584789.93845  -1887233.86745  22682529.0214   22682534.7634
      2530.2504       1971.6234
  -1236129.85545   -893597.01245  23203580.5054   23203586.2244
       995.4064        775.6414
 98  6 17  0 42  0.0010000  0  9G 1G 3G 8G 9G17G21G23G29G31
  -1312155.13046   -976302.44946  20952180.2784   20952185.0134
      1036.8284        807.9184
    983046.51246    746075.34546  21803590.2474   21803596.1534
     -1330.7664      -1036.9604
  -1629105.42945  -1187790.22645  23372935.1534   23372941.4814
      1440.3134       1122.3214
    471019.80444    356570.58343  24101595.5754   24101602.5524
      -791.1254       -616.4614
   2959627.71845   2180781.10144  23349560.7634   23349567.2784
     -3177.5944      -2476.0474
    195488.98446    149683.72146  21251847.5364   21251851.9784
      -310.3914       -241.8634
   1853463.10346   1394722.98246  22342360.9034   22342366.2474
     -1945.9224      -1516.3034
  -2660531.15245  -1946252.90445  22668115.9664   22668121.4504
      2519.2344       1963.0404
  -1265701.37345   -916639.70745  23197953.5284   23197958.6494
       976.0314        760.5444
 98  6 17  0 42 30.0010000  0  9G 1G 3G 8G 9G17G21G23G29G31
  -1342971.93446  -1000315.50746  20946316.1924   20946321.5014
      1017.8754        793.1494
   1023277.24346    777423.93446  21811245.6304   21811251.5364
     -1350.9374      -1052.6794
  -1672091.94445  -1221286.15444  23364755.4274   23364761.1814
      1425.8444       1111.0474
    495044.27744    375290.96243  24106167.1464   24106172.5014
      -810.1874       -631.3154
   3055112.30345   2255184.57444  23367730.9664   23367736.7434
     -3187.7814      -2483.9854
    204908.24046    157023.40446  21253640.0604   21253644.7944
      -317.3444       -247.2814
   1911906.09546   1440262.97146  22353482.2314   22353487.8804
     -1950.0624      -1519.5294
  -2735938.79645  -2005012.01845  22653766.2244   22653771.8134
      2508.1564       1954.4074
  -1294667.08345   -939210.37645  23192441.8964   23192447.5794
       955.2504        744.3514
 98  6 17  0 43  0.0010000  0  9G 1G 3G 8G 9G17G21G23G29G31
  -1373221.92846  -1023886.89346  20940559.7244   20940564.8334
       999.4384        778.7824
   1064116.62646    809246.78246  21819017.1774   21819022.8964
     -1371.2814      -1068.5314
  -1714641.65845  -1254441.71144  23356657.9114   23356664.4154
      1411.1414       1099.5904
    519647.16044    394462.08643  24110849.1144   24110854.2354
      -829.6254       -646.4614
   3150918.79245   2329838.85744  23385961.8964   23385967.2164
     -3198.9534      -2492.6914
    214546.61346    164533.81546  21255474.0754   21255479.0794
      -324.8124       -253.1014
   1970490.53246   1485913.17145  22364630.5994   22364636.1534
     -1955.1094      -1523.4624
  -2811008.85945  -2063508.11045  22639480.7244   22639486.8174
      2496.9534       1945.6784
  -1323002.68745   -961290.03245  23187049.7004   23187054.4814
       934.1884        727.9384
 98  6 17  0 43 30.0010000  0  9G 1G 3G 8G 9G17G21G23G29G31
  -1402934.00446  -1047039.13046  20934905.9194   20934910.7124
       981.1414        764.5254
   1105562.99146    841542.62346  21826904.3104   21826910.2044
     -1391.9224      -1084.6144
  -1756746.88145  -1287250.91745  23348645.4894   23348651.5364
      1395.4384       1087.3544
    544833.50544    414087.77043  24115641.5754   24115647.3534
      -849.7194       -662.1194
   3247066.72845   2404759.22444  23404258.4354   23404264.5284
     -3211.2664      -2502.2854
    224408.27346    172218.22846  21257350.7394   21257355.7784
      -332.8124       -259.3344
   2029210.37746   1531668.87046  22375804.4894   22375810.1264
     -1959.7504      -1527.0784
  -2885747.31945  -2121745.77345  22625258.7784   22625264.4504
      2485.3594       1936.6444
  -1350711.93045   -982881.62945  23181776.3174   23181781.7204
       912.8594        711.3194
 98  6 17  0 44  0.0010000  0  9G 1G 3G 8G 9G17G21G23G29G31
  -1432104.40146  -1069769.28546  20929354.8964   20929359.7824
       963.6094        750.8644
   1147610.24046    874306.68046  21834905.6614   21834911.4154
     -1411.3124      -1099.7244
  -1798384.38945  -1319695.68444  23340722.1854   23340728.1384
      1380.3754       1075.6174
    570618.60144    434180.09243  24120548.2554   24120554.8644
      -869.2814       -677.3624
   3343574.88445   2479960.25744  23422623.7554   23422630.5404
     -3222.4064      -2510.9664
    234494.66846    180077.75446  21259269.9894   21259274.7244
      -339.6564       -264.6674
   2088060.13446   1577525.80946  22387003.4034   22387008.9814
     -1963.5474      -1530.0374
  -2960140.44245  -2179714.38245  22611102.0834   22611107.9314
      2474.0004       1927.7924
  -1377799.02245  -1003988.43245  23176622.1614   23176626.0174
       892.9694        695.8204
 98  6 17  0 44 30.0010000  0  9G 1G 3G 8G 9G17G21G23G29G31
  -1460735.77546  -1092079.40846  20923906.4354   20923910.8994
       945.2504        736.5584
   1190258.81846    907539.29846  21843021.4274   21843026.9704
     -1431.7974      -1115.6864
  -1839561.67545  -1351781.82444  23332886.2634   23332891.5244
      1365.0474       1063.6734
    597004.08444    454740.22743  24125569.7944   24125577.7084
      -889.6414       -693.2264
   3440426.17745   2555428.71743  23441053.6534   23441060.4744
     -3234.2974      -2520.2314
    244808.22146    188114.28546  21261232.7474   21261237.6224
      -347.8444       -271.0474
   2147034.65146   1623479.94846  22398226.0914   22398231.3994
     -1967.8914      -1533.4214
  -3034170.00446  -2237399.65945  22597014.4354   22597020.2124
      2461.3134       1917.9064
  -1404280.10145  -1024623.01445  23171582.8494   23171588.8024
       872.6884        680.0164
 98  6 17  0 45  0.0010000  0  9G 1G 3G 8G 9G17G21G23G29G31
  -1488827.77846  -1113969.25246  20918560.6144   20918565.2784
       927.4534        722.6914
   1233504.28546    941237.02346  21851251.0284   21851256.4784
     -1451.2814      -1130.8694
  -1880294.74445  -1383521.79444  23325134.6304   23325141.0524
      1350.5314       1052.3624
    623999.51744    475775.61943  24130707.0674   24130712.2824
      -910.2034       -709.2494
   3537624.31945   2631167.42244  23459550.1064   23459557.1184
     -3245.4534      -2528.9254
    255359.37146    196335.95846  21263240.2084   21263245.0244
      -355.5314       -277.0374
   2206127.82446   1669526.56145  22409470.6384   22409475.9464
     -1971.5624      -1536.2824
  -3107817.02946  -2294786.88145  22582999.8564   22583005.8924
      2448.4224       1907.8614
  -1430181.65145  -1044806.03545  23166653.9584   23166659.0094
       854.1254        665.5524
 98  6 17  0 45 30.0010000  0  9G 1G 3G 8G 9G17G21G23G29G31
  -1516354.97046  -1135418.97546  20913322.3884   20913327.0874
       907.9224        707.4724
   1277345.99046    975399.36046  21859593.8494   21859599.6494
     -1471.0164      -1146.2464
  -1920584.96845  -1414916.70144  23317468.2784   23317474.5244
      1335.8914       1040.9544
    651622.85144    497300.37343  24135962.6144   24135968.8134
      -930.9694       -725.4304
   3635154.98745   2707165.25143  23478109.9894   23478117.6104
     -3256.1414      -2537.2524
    266149.52946    204743.87346  21265293.9664   21265298.7354
      -363.3444       -283.1254
   2265333.65146   1715660.95545  22420737.3174   22420742.5094
     -1975.1564      -1539.0834
  -3181060.17946  -2351859.38345  22569062.1464   22569068.3684
      2434.9384       1897.3544
  -1455515.16845  -1064546.41745  23161833.2944   23161839.5754
       835.0634        650.6984
 98  6 17  0 46  0.0010000  0  9G 1G 3G 8G 9G17G21G23G29G31
  -1543293.41746  -1156409.94446  20908196.3494   20908201.1654
       888.2664        692.1554
   1321770.07946   1010015.50246  21868047.4744   21868052.9114
     -1490.4534      -1161.3924
  -1960438.53045  -1445971.37144  23309884.2474   23309890.3414
      1321.2664       1029.5584
    679860.78144    519303.92143  24141336.4274   24141342.3454
      -951.2504       -741.2344
   3732999.74145   2783407.79843  23496729.3564   23496736.0244
     -3266.5944      -2545.3984
    277166.58846    213328.57946  21267390.0604   21267394.9354
      -370.9844       -289.0794
   2324655.66646   1761885.88346  22432025.8804   22432031.1304
     -1979.4844      -1542.4554
  -3253905.18646  -2408621.64945  22555200.2084   22555206.3964
      2421.6884       1887.0294
  -1480274.09545  -1083839.07545  23157121.8414   23157127.7004
       815.6884        635.6014
 98  6 17  0 46 30.0010000  0  9G 1G 3G 8G 9G17G21G23G29G31
  -1569650.44946  -1176947.86446  20903180.5674   20903185.2204
       868.9844        677.1314
   1366779.92046   1045088.07346  21876612.6144   21876618.1814
     -1510.0474      -1176.6604
  -1999856.68645  -1476686.75644  23302383.3174   23302389.5054
      1306.7194       1018.2224
    708691.53045    541769.50643  24146823.0444   24146827.9664
      -970.6254       -756.3314
   3831156.38145   2859893.39043  23515407.7164   23515413.8104
     -3277.1724      -2553.6404
    288413.47846    222092.38846  21269530.6064   21269535.1884
      -378.6254       -295.0324
   2384109.74846   1808213.71845  22443339.6304   22443344.7864
     -1984.0784      -1546.0354
  -3326368.67246  -2465086.62745  22541410.7784   22541416.8254
      2409.3914       1877.4474
  -1504450.36445  -1102677.72045  23152521.1384   23152527.1384
       796.1094        620.3454
 98  6 17  0 47  0.0010000  0  9G 1G 3G 8G 9G17G21G23G29G31
  -1595430.79946  -1197036.42546  20898274.8334   20898279.5324
       849.7814        662.1674
   1412371.20846   1080613.71546  21885288.2714   21885293.2864
     -1529.4224      -1191.7574
  -2038840.11645  -1507063.38244  23294965.0364   23294971.1184
      1291.9844       1006.7414
    738102.65144    564687.22643  24152419.6614   24152425.9194
      -990.0314       -771.4534
   3929629.22745   2936625.36743  23534146.1614   23534153.1614
     -3287.5944      -2561.7614
    299877.89646    231025.70046  21271711.9424   21271716.5244
      -385.6414       -300.4994
   2443705.75146   1854652.13846  22454680.6384   22454685.9704
     -1988.9844      -1549.8584
  -3398475.38446  -2521273.59145  22527689.4034   22527695.5094
      2397.9384       1868.5234
  -1528034.30445  -1121054.80945  23148033.5604   23148038.8104
       775.9534        604.6394
 98  6 17  0 47 30.0010000  0  9G 1G 3G 8G 9G17G21G23G29G31
  -1620634.55646  -1216675.68046  20893478.5364   20893483.2004
       830.8754        647.4354
   1458557.21446   1116602.78046  21894077.5604   21894082.6694
     -1549.3594      -1207.2934
  -2077357.52545  -1537076.88644  23287635.5364   23287640.7864
      1276.0164        994.2984
    768092.88645    588056.24943  24158126.6924   24158133.1854
     -1009.0624       -786.2824
   4028420.56945   3013605.51643  23552946.0284   23552952.6144
     -3298.4064      -2570.1874
    311565.00046    240132.53546  21273936.2084   21273940.9784
      -393.2664       -306.4414
   2503452.29646   1901207.86245  22466049.8494   22466055.1574
     -1993.9844      -1553.7544
  -3470249.39046  -2577201.31045  22514031.0674   22514036.8684
      2387.3444       1860.2684
  -1550992.47545  -1138944.28645  23143664.8254   23143670.1814
       754.8754        588.2144
 98  6 17  0 48  0.0010000  0  9G 1G 3G 8G 9G17G21G23G29G31
  -1645281.82246  -1235881.31546  20888788.6774   20888793.4814
       812.2664        632.9344
   1505342.47146   1153058.79846  21902980.2314   21902985.4354
     -1569.8444      -1223.2554
  -2115391.78445  -1566713.90144  23280397.8174   23280403.6774
      1259.5634        981.4774
    798653.60744    611869.80743  24163941.9814   24163948.1104
     -1028.2814       -801.2584
   4127546.28145   3090846.21843  23571808.9274   23571815.4194
     -3309.8914      -2579.1364
    323483.30546    249419.51646  21276203.8644   21276208.5284
      -401.3594       -312.7484
   2563354.44846   1947884.84745  22477448.9274   22477454.1184
     -1999.4844      -1558.0404
  -3541706.46346  -2632882.06545  22500433.1854   22500439.1264
      2376.3284       1851.6844
  -1573325.16545  -1156346.39045  23139414.3174   23139419.0994
       734.0634        571.9974
 98  6 17  0 48 30.0010000  0  9G 1G 3G 8G 9G17G21G23G29G31
  -1669371.09446  -1254652.14946  20884204.0754   20884208.8804
       793.3284        618.1784
   1552749.77046   1189999.50846  21912001.5674   21912006.9814
     -1590.9374      -1239.6924
  -2152928.73045  -1595963.39745  23273254.2864   23273260.3214
      1242.5314        968.2064
    829792.69644    636134.04043  24169868.0214   24169873.8104
     -1048.0784       -816.6844
   4227006.09344   3168347.22943  23590736.1854   23590742.1734
     -3321.0624      -2587.8414
    335643.03446    258894.62346  21278517.9194   21278522.7354
      -409.5164       -319.1034
   2623418.80646   1994688.22145  22488879.1924   22488884.3254
     -2005.0944      -1562.4114
  -3612827.31646  -2688300.84345  22486899.3884   22486905.4234
      2364.6094       1842.5534
  -1595036.11045  -1173263.99945  23135283.5364   23135289.0564
       713.0474        555.6214
 98  6 17  0 49  0.0010000  0  9G 1G 3G 8G 9G17G21G23G29G31
  -1692893.50746  -1272981.27246  20879727.9974   20879732.7314
       774.6254        603.6044
   1600782.49946   1227427.57246  21921141.8414   21921147.3494
     -1611.4374      -1255.6664
  -2189955.66145  -1624815.51045  23266208.5994   23266214.3174
      1225.6724        955.0694
    861533.46744    660867.12143  24175907.3334   24175914.1774
     -1068.1414       -832.3174
   4326793.49745   3246103.54144  23609725.1064   23609732.6814
     -3331.4694      -2595.9504
    348032.90346    268549.07046  21280875.9894   21280880.4664
      -416.6724       -324.6794
   2683635.04046   2041609.94445  22500337.5914   22500342.7124
     -2009.4064      -1565.7714
  -3683596.48146  -2743445.54045  22473432.1304   22473437.7554
      2353.0004       1833.5064
  -1616125.28845  -1189697.14445  23131270.2164   23131275.5014
       692.7974        539.8424
 98  6 17  0 49 30.0010000  0  9G 1G 3G 8G 9G17G21G23G29G31
  -1715839.93546  -1290861.58346  20875361.4814   20875366.1344
       755.1884        588.4584
   1649435.32546   1265338.83346  21930400.2864   21930405.9464
     -1631.8594      -1271.5794
  -2226467.52645  -1653266.26845  23259260.0054   23259266.4974
      1208.7504        941.8834
    893882.94644    686074.49543  24182064.0604   24182070.5874
     -1088.4374       -848.1334
   4426899.19745   3324107.86444  23628774.9744   23628782.6534
     -3342.2344      -2604.3384
    360646.50846    278377.85346  21283276.0674   21283280.7084
      -423.8914       -330.3044
   2743985.20046   2088636.01245  22511821.9814   22511826.8104
     -2013.8444      -1569.2294
  -3753989.65846  -2798297.28945  22460037.0054   22460042.2314
      2339.8594       1823.2674
  -1636609.51245  -1205658.88145  23127372.3964   23127377.6104
       673.0474        524.4524
 98  6 17  0 50  0.0010000  0  9G 1G 3G 8G 9G17G21G23G29G31
  -1738185.91746  -1308274.00746  20871109.0134   20871113.6184
       734.4224        572.2774
   1698700.42146   1303727.18446  21939775.2714   21939780.6494
     -1652.6094      -1287.7484
  -2262480.18245  -1681328.01645  23252407.4194   23252413.2204
      1192.0164        928.8434
    926849.02945    711762.36543  24188336.9354   24188342.6654
     -1109.4224       -864.4854
   4527335.69645   3402369.93544  23647886.4814   23647892.7044
     -3353.5004      -2613.1174
    373472.57546    288372.20046  21285716.8104   21285721.3804
      -431.2814       -336.0634
   2804480.29246   2135775.04045  22523333.6614   22523338.8294
     -2019.2814      -1573.4664
  -3823967.35746  -2852825.28945  22446720.2634   22446726.3924
      2325.1414       1811.7984
  -1656492.90245  -1221152.45045  23123589.1064   23123594.3104
       652.2194        508.2224
 98  6 17  0 50 30.0010000  0  9G 1G 3G 8G 9G17G21G23G29G31
  -1759928.44146  -1325216.20746  20866971.7314   20866976.2554
       714.7344        556.9364
   1748566.60346   1342583.90546  21949264.6614   21949270.0994
     -1672.1564      -1302.9794
  -2298015.26845  -1709017.64445  23245645.4274   23245651.7084
      1176.6414        916.8634
    960429.70344    737929.13543  24194727.2784   24194734.1614
     -1129.8754       -880.4224
   4628087.88245   3480878.00043  23667059.4114   23667066.9034
     -3363.9694      -2621.2744
    386498.51746    298522.29246  21288195.5674   21288200.3494
      -437.5474       -340.9464
   2865118.91546   2183025.88145  22534872.8414   22534877.8804
     -2023.6874      -1576.8994
  -3893519.90746  -2907021.99545  22433484.7864   22433490.7864
      2311.2034       1800.9384
  -1675754.49245  -1236161.47845  23119923.2944   23119928.2164
       631.3594        491.9684
 98  6 17  0 51  0.0010000  0  9G 1G 3G 8G 9G17G21G23G29G31
  -1781081.26046  -1341698.89346  20862946.4274   20862951.3844
       695.2504        541.7534
   1799015.74246   1381894.89346  21958864.4354   21958870.2124
     -1691.2344      -1317.8454
  -2333092.89245  -1736350.78645  23238970.0054   23238976.1104
      1161.7194        905.2354
    994630.20545    764578.89942  24201234.4354   24201240.0364
     -1150.2034       -896.2624
   4729169.49445   3559642.74543  23686295.2314   23686301.9584
     -3374.9374      -2629.8214
    399717.80646    308823.03346  21290711.1224   21290715.6344
      -444.0314       -345.9984
   2925884.88746   2230375.97345  22546436.4584   22546441.8964
     -2027.6094      -1579.9554
  -3962650.48646  -2960889.89045  22420329.5444   22420334.8534
      2297.3284       1790.1264
  -1694386.11345  -1250679.63345  23116377.9114   23116382.9854
       610.5314        475.7394
 98  6 17  0 51 30.0010000  0  9G 1G 3G 8G 9G17G21G23G29G31
  -1801657.39746  -1357732.21646  20859030.9584   20859035.7164
       676.3444        527.0214
   1850030.88846   1421646.91846  21968572.3804   21968577.9354
     -1709.9694      -1332.4434
  -2367731.32945  -1763341.71245  23232378.7244   23232384.9704
      1147.3444        894.0344
   1029427.06945    791693.35143  24207857.2634   24207863.2744
     -1169.7344       -911.4814
   4830577.57345   3638661.91744  23705591.7004   23705599.0994
     -3385.8914      -2638.3564
    413140.44546    319282.24246  21293265.4274   21293269.8104
      -450.9844       -351.4164
   2986774.03746   2277822.04845  22558023.2394   22558028.5714
     -2031.7344      -1583.1704
  -4031364.32046  -3014433.05545  22407254.0054   22407259.3374
      2283.5474       1779.3874
  -1712391.67945  -1264709.94345  23112951.2394   23112956.8294
       589.5004        459.3514
 98  6 17  0 52  0.0010000  0  9G 1G 3G 8G 9G17G21G23G29G31
  -1821669.64247  -1373326.15346  20855222.8254   20855227.2784
       657.6254        512.4354
   1901614.32946   1461841.76446  21978388.6384   21978394.4384
     -1729.2344      -1347.4554
  -2401932.84645  -1789992.21645  23225870.2084   23225876.3964
      1132.3444        882.3464
   1064807.13044    819262.20443  24214588.9584   24214595.0874
     -1189.2974       -926.7254
   4932316.78044   3717939.04643  23724952.8494   23724959.6464
     -3396.9534      -2646.9764
    426780.17346    329910.60446  21295860.9034   21295865.8724
      -458.7664       -357.4804
   3047781.98146   2325360.67745  22569632.2944   22569637.8964
     -2035.6874      -1586.2504
  -4099671.29946  -3067659.18445  22394255.3174   22394261.2004
      2269.9694       1768.8074
  -1729754.81445  -1278239.64745  23109647.4354   23109652.7554
       567.8284        442.4634
 98  6 17  0 52 30.0010000  0  9G 1G 3G 8G 9G17G21G23G29G31
  -1841115.30046  -1388478.58346  20851522.2474   20851526.9814
       639.0004        497.9224
   1953789.12046   1502497.40746  21988317.0284   21988322.6534
     -1748.7814      -1362.6874
  -2435659.12745  -1816272.35745  23219452.6304   23219458.3724
      1116.2504        869.8054
   1100789.49644    847300.42843  24221436.4274   24221442.1464
     -1209.1724       -942.2124
   5034399.12144   3797483.62043  23744377.7784   23744385.9974
     -3408.3284      -2655.8404
    440664.87646    340729.86246  21298503.0524   21298507.7044
      -466.5314       -363.5314
   3108907.79146   2372991.15445  22581264.7164   22581270.2244
     -2039.0474      -1588.8684
  -4167563.84146  -3120562.37145  22381335.7864   22381341.9154
      2256.4384       1758.2634
  -1746469.04545  -1291263.73345  23106466.4424   23106471.7864
       546.9224        426.1734
 98  6 17  0 53  0.0010000  0  9G 1G 3G 8G 9G17G21G23G29G31
  -1859993.22146  -1403188.62446  20847930.0054   20847934.9974
       619.6414        482.8374
   2006555.26246   1543613.84146  21998358.2164   21998363.6064
     -1768.7814      -1378.2714
  -2468887.63345  -1842164.63945  23213128.9424   23213135.2124
      1099.0004        856.3644
   1137370.56145    875805.12443  24228398.0444   24228403.5284
     -1229.2194       -957.8334
   5136825.80044   3877296.47543  23763869.5754   23763876.2674
     -3419.7504      -2664.7404
    454787.09346    351734.19246  21301190.3564   21301194.9854
      -474.8914       -370.0454
   3170139.53846   2420704.18745  22592916.4894   22592921.7394
     -2042.9694      -1591.9244
  -4235046.39646  -3173146.08546  22368494.2634   22368499.6184
      2242.5784       1747.4634
  -1762565.14945  -1303806.15545  23103403.8494   23103409.8494
       526.3914        410.1754
 98  6 17  0 53 30.0010000  0  9G 1G 3G 8G 9G17G21G23G29G31
  -1878295.75847  -1417450.31246  20844447.0604   20844451.7124
       600.5314        467.9464
   2059918.80346   1585195.78346  22008512.8964   22008518.5444
     -1788.8124      -1393.8804
  -2501592.62345  -1867648.99445  23206905.3494   23206911.7474
      1081.2814        842.5574
   1174545.18345    904772.37643  24235471.9664   24235477.6494
     -1249.3124       -973.4904
   5239585.03744   3957368.44243  23783423.8564   23783430.5834
     -3430.9844      -2673.4944
    469160.77746    362934.46746  21303925.5364   21303930.4934
      -483.2344       -376.5464
   3231495.44546   2468513.94945  22604592.3104   22604597.3964
     -2047.3914      -1595.3694
  -4302114.46046  -3225406.82445  22355731.7864   22355737.7634
      2228.6564       1736.6154
  -1778050.96845  -1315873.03245  23100456.8884   23100462.3494
       506.0164        394.2984
 98  6 17  0 54  0.0010000  0  9G 1G 3G 8G 9G17G21G23G29G31
  -1896037.16746  -1431274.76446  20841070.9034   20841075.2394
       582.0474        453.5434
   2113869.19846   1627234.99446  22018779.3964   22018785.4194
     -1808.1094      -1408.9164
  -2533772.24345  -1892723.96345  23200781.8964   23200787.2164
      1063.7344        828.8844
   1212323.92945    934210.34443  24242660.9354   24242666.7824
     -1269.5474       -989.2574
   5342671.90544   4037695.76743  23803041.0524   23803046.5364
     -3441.6564      -2681.8104
    483765.05446    374314.41746  21306704.7394   21306709.4154
      -490.5314       -382.2324
   3292974.80946   2516419.92645  22616291.3804   22616296.8064
     -2051.5314      -1598.5964
  -4368782.05446  -3277355.50446  22343045.2864   22343050.7824
      2215.7504       1726.5584
  -1792945.44145  -1327479.12245  23097622.3884   23097628.0244
       486.7664        379.2984
 98  6 17  0 54 30.0010000  0  9G 1G 3G 8G 9G17G21G23G29G31
  -1913216.20546  -1444661.00746  20837801.8564   20837806.3804
       562.8914        438.6164
   2168401.58946   1669727.71546  22029156.1854   22029161.9854
     -1827.6414      -1424.1364
  -2565421.09245  -1917385.32345  23194759.3884   23194765.5874
      1046.0164        815.0774
   1250716.42745    964126.59543  24249966.8494   24249972.8254
     -1290.0004      -1005.1954
   5446082.44644   4118275.25643  23822718.9034   23822725.6184
     -3452.5004      -2690.2604
    498588.41646    385865.08646  21309525.5524   21309530.4854
      -497.7974       -387.8944
   3354587.58946   2564429.85545  22628015.7554   22628021.0994
     -2056.3124      -1602.3214
  -4435064.77946  -3329004.28246  22330431.9894   22330437.8024
      2202.8914       1716.5384
  -1807253.13645  -1338627.98845  23094899.9354   23094905.0564
       466.7814        363.7264
 98  6 17  0 55  0.0010000  0  9G 1G 3G 8G 9G17G21G23G29G31
  -1929828.52146  -1457605.65046  20834640.7474   20834645.6104
       544.2664        424.1034
   2223509.48046   1712668.88346  22039643.3254   22039649.1264
     -1846.5314      -1438.8564
  -2596550.44845  -1941641.92245  23188835.3564   23188841.8024
      1028.7814        801.6484
   1289710.31645    994511.44143  24257387.1304   24257392.0284
     -1309.9534      -1020.7434
   5549803.74245   4199096.90343  23842456.9974   23842464.8534
     -3462.5944      -2698.1254
    513626.63846    397583.18446  21312387.2634   21312391.7514
      -505.2344       -393.6894
   3416342.51546   2612550.55545  22639767.4814   22639773.3414
     -2061.0004      -1605.9744
  -4500966.90646  -3380356.50145  22317891.2474   22317896.8134
      2190.3284       1706.7494
  -1820962.69345  -1349310.75345  23092290.9814   23092296.7714
       446.7034        348.0804
 98  6 17  0 55 30.0010000  0  9G 1G 3G 8G 9G17G21G23G29G31
  -1945878.55546  -1470112.14546  20831586.5284   20831591.2514
       525.6564        409.6024
   2279185.27646   1756052.58046  22050237.8024   22050243.3334
     -1865.1724      -1453.3814
  -2627160.49245  -1965493.84245  23183010.2784   23183016.2084
      1012.0004        788.5714
   1329309.84145   1025368.22743  24264923.2084   24264930.4664
     -1330.1414      -1036.4734
   5653833.56145   4280158.97043  23862253.8104   23862260.5954
     -3472.8444      -2706.1124
    528886.74946    409474.17246  21315291.2784   21315296.3414
      -511.9694       -398.9374
   3478242.41546   2660784.22345  22651546.6854   22651552.6964
     -2065.5164      -1609.4934
  -4566494.98346  -3431417.25146  22305421.3724   22305426.1534
      2178.2034       1697.3014
  -1834060.26445  -1359516.65645  23089798.9744   23089804.5284
       426.4844        332.3254
 98  6 17  0 56  0.0010000  0  9G 1G 3G 8G 9G17G21G23G29G31
  -1961368.57846  -1482182.27946  20828638.7784   20828643.5014
       507.0634        395.1144
   2335414.54846   1799867.54946  22060938.0214   22060944.0214
     -1883.4224      -1467.6014
  -2657268.89545  -1988954.90845  23177281.3724   23177287.8884
       995.1884        775.4714
   1369514.74344   1056696.73343  24272573.3104   24272578.0094
     -1349.8594      -1051.8384
   5758162.56344   4361454.15543  23882106.2864   23882114.0484
     -3482.2664      -2713.4544
    544339.78946    421515.50246  21318231.7634   21318236.6034
      -518.1874       -403.7824
   3540267.14546   2709115.15045  22663349.7244   22663355.5364
     -2069.3444      -1612.4764
  -4631660.92546  -3482195.82345  22293020.6614   22293026.2284
      2166.2504       1687.9874
  -1846555.52445  -1369253.25145  23087421.0674   23087426.5754
       406.3914        316.6684
 98  6 17  0 56 30.0010000  0  9G 1G 3G 8G 9G17G21G23G29G31
  -1976293.15346  -1493811.79546  20825798.6144   20825803.1494
       487.7344        380.0534
   2392199.30546   1844115.36746  22071743.9194   22071749.7314
     -1902.1874      -1482.2244
  -2686865.87345  -2012017.42445  23171648.9894   23171654.8374
       977.9224        762.0174
   1410304.43445   1088480.86143  24280335.6464   24280340.4744
     -1369.5784      -1067.2044
   5862776.61644   4442971.46543  23902014.3024   23902021.6534
     -3492.0474      -2721.0754
    559983.22446    433705.18846  21321208.4274   21321212.9744
      -524.8284       -408.9574
   3602408.29346   2757536.78745  22675174.6774   22675180.2434
     -2073.5474      -1615.7514
  -4696454.83646  -3532684.48846  22280690.5054   22280696.0834
      2153.0474       1677.6994
  -1858430.52445  -1378506.49745  23085160.8724   23085166.1104
       385.2974        300.2314
 98  6 17  0 57  0.0010000  0  9G 1G 3G 8G 9G17G21G23G29G31
  -1990647.46946  -1504996.95646  20823067.0674   20823072.0364
       469.2194        365.6254
   2449526.01746   1888785.48846  22082652.7634   22082658.5524
     -1919.5004      -1495.7144
  -2715952.26045  -2034682.09445  23166114.0754   23166119.8534
       961.2974        749.0634
   1451683.91944   1120724.67042  24288209.7944   24288215.5954
     -1389.1094      -1082.4234
   5967681.90545   4524715.72643  23921977.2394   23921984.2394
     -3501.6874      -2728.5884
    575823.02646    446047.89546  21324223.0214   21324227.2394
      -531.2344       -413.9494
   3664670.74546   2806052.96345  22687022.7714   22687028.2434
     -2077.2664      -1618.6494
  -4760852.60046  -3582864.47846  22268436.3564   22268442.0174
      2140.2344       1667.7154
  -1869686.81745  -1387277.63145  23083018.9894   23083024.5094
       365.1254        284.5134
 98  6 17  0 57 30.0010000  0  9G 1G 3G 8G 9G17G21G23G29G31
  -2004429.65947  -1515736.30046  20820444.4894   20820449.0244
       449.7974        350.4914
   2507382.02546   1933868.04246  22093662.5054   22093668.5634
     -1937.2974      -1509.5824
  -2744535.81345  -2056954.93645  23160674.7394   23160680.5524
       944.6094        736.0594
   1493662.31244   1153435.07643  24296197.6774   24296202.3884
     -1409.0784      -1097.9834
   6072887.95644   4606694.28543  23941997.1924   23942003.5214
     -3511.8914      -2736.5384
    591858.85146    458543.33346  21327274.3494   21327278.9314
      -537.6414       -418.9414
   3727059.24946   2854667.35245  22698894.9424   22698900.6854
     -2081.6874      -1622.0944
  -4824859.89546  -3632740.19546  22256255.8024   22256260.8994
      2127.0164       1657.4154
  -1880327.93045  -1395569.40845  23080993.9974   23080999.5524
       344.5004        268.4424
 98  6 17  0 58  0.0010000  0  9G 1G 3G 8G 9G17G21G23G29G31
  -2017632.26246  -1526024.02746  20817932.0674   20817936.9544
       430.7974        335.6864
   2565766.22046   1979362.16946  22104772.6774   22104778.6184
     -1954.6414      -1523.0974
  -2772614.53445  -2078834.40445  23155331.1384   23155337.1034
       927.7034        722.8864
   1536230.86845   1186605.38743  24304298.6304   24304305.5604
     -1428.3444      -1112.9954
   6178398.79244   4688910.35542  23962075.2394   23962082.0014
     -3521.8124      -2744.2694
    608100.28346    471198.99746  21330364.9814   21330369.7514
      -544.8124       -424.5294
   3789578.82846   2903383.87745  22710791.9504   22710797.0834
     -2085.9694      -1625.4304
  -4888467.77946  -3682304.69146  22244151.6854   22244157.2634
      2113.9694       1647.2484
  -1890343.88445  -1403374.05445  23079088.2164   23079093.8644
       323.5164        252.0904
 98  6 17  0 58 30.0010000  0  9G 1G 3G 8G 9G17G21G23G29G31
  -2030269.28247  -1535871.03746  20815527.3254   20815531.7784
       411.5474        320.6864
   2624668.34246   2025259.87746  22115981.4664   22115987.3604
     -1972.1724      -1536.7574
  -2800202.01045  -2100331.10045  23150081.7004   23150087.4424
       911.5474        710.2964
   1579369.85845   1220220.15643  24312507.3804   24312513.5794
     -1447.8444      -1128.1904
   6284212.42744   4771362.45242  23982211.8494   23982220.0674
     -3532.4374      -2752.5494
    624563.52846    484027.49946  21333497.7634   21333502.6384
      -552.7974       -430.7514
   3852224.56446   2952198.71545  22722713.4584   22722718.9784
     -2090.5004      -1628.9614
  -4951685.27346  -3731564.98846  22232121.6464   22232127.4234
      2100.5474       1636.7904
  -1899732.52545  -1410689.88045  23077301.3104   23077307.3454
       302.5634        235.7634
 98  6 17  0 59  0.0010000  0  9G 1G 3G 8G 9G17G21G23G29G31
  -2042343.89747  -1545279.80546  20813229.4034   20813233.9034
       393.4224        306.5634
   2684083.43746   2071557.31146  22127288.1144   22127293.8104
     -1989.1874      -1550.0164
  -2827319.67445  -2121461.67245  23144921.1694   23144926.6654
       896.1094        698.2674
   1623081.83345   1254281.44443  24320826.2004   24320831.5214
     -1466.3124      -1142.5814
   6390327.50644   4854049.31542  24002404.3254   24002411.2434
     -3542.0004      -2760.0004
    641253.27046    497032.49046  21336673.7864   21336678.2984
      -559.9844       -436.3514
   3914989.26446   3001106.24145  22734656.8414   22734662.5834
     -2093.9224      -1631.6274
  -5014517.57146  -3780525.14646  22220164.9664   22220170.5794
      2088.2504       1627.2084
  -1908512.16745  -1417531.15845  23075630.5444   23075636.2984
       282.6884        220.2764
 98  6 17  0 59 30.0010000  0  9G 1G 3G 8G 9G17G21G23G29G31
  -2053862.92446  -1554255.64946  20811037.2164   20811041.9624
       374.9844        292.1964
   2744042.93446   2118278.94246  22138697.9114   22138703.6184
     -2007.9224      -1564.6144
  -2853950.33845  -2142212.79845  23139853.3564   23139859.1814
       879.4384        685.2764
   1667355.61745   1288780.53643  24329251.0364   24329257.6224
     -1484.8754      -1157.0454
   6496735.94044   4936964.87142  24022653.4114   24022659.5404
     -3551.5784      -2767.4634
    658168.84646    510213.45946  21339892.7244   21339897.0244
      -567.3754       -442.1104
   3977870.18846   3050104.35045  22746622.8564   22746627.9424
     -2097.7194      -1634.5864
  -5076965.08646  -3829185.46946  22208281.5914   22208287.0634
      2075.0314       1616.9074
  -1916687.06045  -1423901.20445  23074075.1304   23074080.6034
       262.5634        204.5944
 98  6 17  1  0  0.0010000  0  9G 1G 3G 8G 9G17G21G23G29G31
  -2064840.82246  -1562809.83746  20808948.5284   20808953.2864
       357.0164        278.1944
   2804567.60746   2165440.96646  22150215.4424   22150221.3494
     -2026.9694      -1579.4564
  -2880078.70045  -2162572.55245  23134881.7474   23134887.5714
       862.6884        672.2244
   1712184.42145   1323712.02943  24337781.8804   24337787.1884
     -1503.6564      -1171.6804
   6603428.28744   5020101.63543  24042956.4744   24042963.8254
     -3561.0004      -2774.8054
    675304.09846    523565.59646  21343153.4274   21343158.1614
      -574.5944       -447.7354
   4040855.78646   3099184.00745  22758608.1924   22758613.0914
     -2101.2034      -1637.3014
  -5139004.25246  -3877527.59146  22196475.9504   22196481.2474
      2061.0944       1606.0474
  -1924261.88745  -1429803.66645  23072634.2004   23072640.1424
       242.6724        189.0954
 98  6 17  1  0 30.0010000  0  9G 1G 3G 8G 9G17G21G23G29G31
  -2075271.68346  -1570937.75946  20806963.6534   20806968.3414
       338.5944        263.8394
   2865670.34346   2213053.44146  22161842.9424   22161848.8494
     -2046.2664      -1594.4934
  -2905702.68545  -2182539.23845  23130005.4974   23130011.4154
       845.6564        658.9534
   1757580.36145   1359085.52543  24346420.3254   24346426.3374
     -1522.6254      -1186.4614
   6710402.94844   5103458.32642  24063313.1144   24063322.9384
     -3570.3444      -2782.0864
    692641.98046    537075.62246  21346452.6694   21346457.4274
      -580.8594       -452.6184
   4103947.69246   3148346.49345  22770614.6384   22770619.7944
     -2104.6724      -1640.0044
  -5200615.73246  -3925536.46746  22184751.5524   22184756.8134
      2046.6254       1594.7734
  -1931244.22645  -1435244.46845  23071305.2474   23071310.8724
       223.1254        173.8644
 98  6 17  1  1  0.0010000  0  9G 1G 3G 8G 9G17G21G23G29G31
  -2085153.37046  -1578637.75346  20805083.0604   20805087.6654
       320.5004        249.7404
   2927341.80946   2261109.08646  22173578.9354   22173584.7124
     -2064.7974      -1608.9334
  -2930799.54545  -2202095.22645  23125229.5284   23125235.4234
       827.5944        644.8784
   1803542.20344   1394899.90543  24355166.1224   24355170.5994
     -1541.2344      -1200.9624
   6817651.11244   5187028.14742  24083722.4894   24083729.9114
     -3579.2664      -2789.0384
    710152.74546    550720.37946  21349784.9584   21349789.8454
      -586.2974       -456.8554
   4167140.03246   3197587.25745  22782639.7474   22782645.3964
     -2107.9064      -1642.5244
  -5261807.38146  -3973218.20346  22173107.1854   22173112.8334
      2033.1094       1584.2414
  -1937644.27545  -1440231.51345  23070087.3804   23070092.8294
       203.7814        158.7914
 98  6 17  1  1 30.0010000  0  9G 1G 3G 8G 9G17G21G23G29G31
  -2094478.48546  -1585904.05346  20803308.4274   20803313.1964
       301.1884        234.6924
   2989565.36746   2309594.92346  22185419.3174   22185425.1774
     -2083.2974      -1623.3484
  -2955344.49545  -2221221.12045  23120558.9664   23120565.3534
       808.7504        630.1954
   1850074.73344   1431159.01342  24364020.8494   24364026.6144
     -1560.8284      -1216.2304
   6925177.80944   5270815.00842  24104182.6854   24104190.0954
     -3589.0624      -2796.6724
    727835.35446    564499.03446  21353149.7004   21353154.2354
      -592.4374       -461.6404
   4230440.58946   3246912.34845  22794685.6694   22794690.7904
     -2112.0314      -1645.7394
  -5322584.88746  -4020577.21146  22161541.8254   22161547.0054
      2018.6724       1572.9914
  -1943451.98645  -1444756.99845  23068981.8804   23068987.6574
       183.1884        142.7444
 98  6 17  1  2  0.0010000  0  9G 1G 3G 8G 9G17G21G23G29G31
  -2103231.04446  -1592724.21246  20801643.1854   20801647.5914
       282.4844        220.1184
   3052316.91346   2358492.17546  22197360.6774   22197366.4424
     -2099.7974      -1636.2054
  -2979341.46445  -2239920.03345  23115992.5524   23115998.7514
       791.2034        616.5224
   1897183.33944   1467867.02142  24372985.7004   24372992.0634
     -1579.6094      -1230.8644
   7032990.39943   5354824.67543  24124699.9584   24124708.3534
     -3598.2664      -2803.8434
    745689.49746    578411.34746  21356547.4504   21356552.2204
      -597.7504       -465.7794
   4293854.24046   3296325.56645  22806752.8104   22806758.0954
     -2115.5314      -1648.4664
  -5382949.07546  -4067614.16846  22150054.5994   22150059.6614
      2006.0004       1563.1174
  -1948639.65545  -1448799.34445  23067995.2784   23068000.4704
       162.7974        126.8554
 98  6 17  1  2 30.0010000  0  9G 1G 3G 8G 9G17G21G23G29G31
  -2111421.33846  -1599106.23646  20800084.5914   20800089.0444
       263.8444        205.5934
   3115556.43346   2407769.67246  22209394.5444   22209400.3104
     -2115.9224      -1648.7704
  -3002800.70045  -2258199.92345  23111528.3724   23111534.0324
       772.8914        602.2524
   1944854.43844   1505013.30543  24382057.5134   24382063.3604
     -1598.3124      -1245.4384
   7141082.05143   5439051.73342  24145268.2164   24145275.1224
     -3607.7194      -2811.2094
    763714.08246    592456.48646  21359977.3174   21359982.3564
      -603.8444       -470.5284
   4357379.33546   3345825.60745  22818841.1614   22818846.3994
     -2119.2974      -1651.4004
  -5442944.34846  -4114363.65546  22138637.5754   22138642.8724
      1994.0004       1553.7664
  -1953208.05345  -1452359.13545  23067125.7714   23067131.1144
       141.9694        110.6254
 98  6 17  1  3  0.0010000  0  9G 1G 3G 8G 9G17G21G23G29G31
  -2119059.71646  -1605058.20046  20798630.6694   20798635.2164
       245.2664        191.1164
   3179277.24746   2457422.20146  22221520.4354   22221526.3534
     -2132.2504      -1661.4944
  -3025720.16145  -2276059.21345  23107166.7474   23107172.6184
       755.0634        588.3604
   1993088.80144   1542598.50843  24391236.0994   24391241.1964
     -1617.4064      -1260.3174
   7249460.85644   5523502.59043  24165892.9664   24165902.0994
     -3617.5624      -2818.8804
    781931.04246    606651.51746  21363443.8964   21363448.9114
      -610.8754       -476.0064
   4421017.16046   3395413.51045  22830950.8884   22830956.2434
     -2123.4064      -1654.6024
  -5502589.37546  -4160840.22646  22127287.2784   22127292.2474
      1981.9534       1544.3794
  -1957149.85845  -1455430.68445  23066375.3174   23066380.9544
       120.6724         94.0304
 98  6 17  1  3 30.0010000  0  9G 1G 3G 8G 9G17G21G23G29G31
  -2126140.70646  -1610575.83346  20797283.3804   20797287.7514
       226.7814        176.7134
   3243493.94946   2507461.13446  22233740.7864   22233746.8214
     -2149.0944      -1674.6194
  -3048121.94845  -2293515.13345  23102903.8414   23102909.8174
       738.4384        575.4064
   2041894.87544   1580629.26643  24400522.9274   24400528.3414
     -1636.3594      -1275.0854
   7358130.39744   5608180.00943  24186572.5364   24186580.0404
     -3627.1094      -2826.3194
    800364.52046    621015.26046  21366951.6774   21366955.8844
      -618.0004       -481.5584
   4484776.28246   3445095.90345  22843084.1854   22843089.5874
     -2127.2814      -1657.6224
  -5561856.11446  -4207022.02146  22116009.3804   22116014.4894
      1969.0474       1534.3224
  -1960448.97845  -1458001.42445  23065747.6614   23065753.6854
        99.1254         77.2404
 98  6 17  1  4  0.0010000  0  9G 1G 3G 8G 9G17G21G23G29G31
  -2132677.14746  -1615669.14246  20796039.3724   20796043.9424
       208.7194        162.6384
   3308211.83346   2557890.61246  22246056.0134   22246061.6494
     -2165.6094      -1687.4884
  -3070034.46545  -2310589.76645  23098734.1144   23098740.1494
       722.1724        562.7314
   2091268.69044   1619102.35143  24409919.0054   24409923.9624
     -1655.5784      -1290.0614
   7467078.67544   5693074.57842  24207305.0284   24207314.3254
     -3636.3124      -2833.4904
    819003.69646    635539.28546  21370498.7084   21370503.6064
      -624.8284       -486.8794
   4548644.34946   3494863.20245  22855237.9354   22855243.9934
     -2130.7664      -1660.3374
  -5620743.10346  -4252907.92146  22104803.5364   22104809.0444
      1956.5004       1524.5454
  -1963115.91845  -1460079.58145  23065240.4584   23065246.0014
        78.6094         61.2544
 98  6 17  1  4 30.0010000  0  9G 1G 3G 8G 9G17G21G23G29G31
  -2138664.48746  -1620334.58046  20794900.0994   20794904.5054
       190.1254        148.1494
   3373435.12746   2608713.90546  22258467.9744   22258473.3764
     -2182.9534      -1701.0024
  -3091447.47545  -2327275.19245  23094659.4424   23094665.1384
       705.3594        549.6314
   2141226.70944   1658030.66943  24419425.6924   24419432.8334
     -1675.2034      -1305.3534
   7576301.74444   5778183.30243  24228088.9354   24228096.5564
     -3645.4694      -2840.6254
    837850.73446    650225.29046  21374085.1064   21374090.1814
      -631.8124       -492.3214
   4612610.72846   3544707.10545  22867410.1854   22867415.8804
     -2133.8284      -1662.7234
  -5679238.81046  -4298488.91246  22093671.8724   22093677.4624
      1942.8444       1513.9044
  -1965174.27845  -1461683.49645  23064848.4114   23064853.8964
        58.5634         45.6334
 98  6 17  1  5  0.0010000  0  9G 1G 3G 8G 9G17G21G23G29G31
  -2144083.25946  -1624556.97546  20793869.1304   20793873.5714
       171.0164        133.2594
   3439184.55546   2659947.17146  22270979.3724   22270985.0794
     -2200.4064      -1714.6024
  -3112365.83345  -2343575.16945  23090678.5054   23090684.4114
       688.9844        536.8714
   2191774.30844   1697418.40343  24429044.5914   24429051.2354
     -1694.6564      -1320.5114
   7685798.46044   5863505.23842  24248925.7554   24248933.5874
     -3654.3124      -2847.5164
    856906.85546    665074.21346  21377711.4664   21377716.5054
      -638.6724       -497.6664
   4676671.28846   3594624.39245  22879600.8334   22879605.7554
     -2137.0314      -1665.2194
  -5737316.51846  -4343744.19846  22082620.1854   22082625.3294
      1928.7504       1502.9224
  -1966633.72945  -1462820.72745  23064571.1534   23064576.2044
        38.5944         30.0734
 98  6 17  1  5 30.0010000  0  9G 1G 3G 8G 9G17G21G23G29G31
  -2148937.24346  -1628339.28246  20792945.3644   20792949.8764
       152.1884        118.5884
   3505446.60546   2711579.87946  22283588.8024   22283594.6734
     -2217.4694      -1727.8984
  -3132787.63245  -2359488.20945  23086792.1224   23086797.9704
       671.9064        523.5634
   2242896.25544   1737253.66343  24438772.6924   24438778.7164
     -1713.8754      -1335.4874
   7795546.70744   5949023.19942  24269810.4424   24269817.0874
     -3662.7034      -2854.0544
    876156.88746    680074.23246  21381374.5754   21381379.2394
      -644.9694       -502.5734
   4740821.53646   3644611.57945  22891807.4814   22891812.9424
     -2140.0784      -1667.5934
  -5794976.84746  -4388674.26246  22071647.7784   22071652.5244
      1915.0004       1492.2084
  -1967501.51045  -1463496.93745  23064405.8334   23064410.8494
        18.9064         14.7324
 98  6 17  1  6  0.0010000  0  9G 1G 3G 8G 9G17G21G23G29G31
  -2153231.15946  -1631685.16546  20792128.1304   20792132.3724
       134.1414        104.5254
   3572209.14346   2763602.57245  22296293.1144   22296298.8924
     -2233.3914      -1740.3044
  -3152678.51645  -2374987.57345  23083007.0054   23083012.8534
       654.0314        509.6354
   2294592.59144   1777536.52343  24448610.4034   24448616.5794
     -1732.5004      -1350.0004
   7905549.90543   6034739.80643  24290743.3174   24290752.5444
     -3670.9064      -2860.4464
    895595.25746    695221.01146  21385073.3254   21385078.2594
      -651.0004       -507.2734
   4805064.50346   3694671.00345  22904032.8334   22904038.4354
     -2142.7504      -1669.6754
  -5852227.93246  -4433285.43146  22060753.1064   22060758.4034
      1901.7034       1481.8474
  -1967785.93045  -1463718.57845  23064351.6614   23064357.6494
         0.0474          0.0374
 98  6 17  1  6 30.0010000  0  9G 1G 3G 8G 9G17G21G23G29G31
  -2156990.17646  -1634614.24146  20791412.9114   20791417.3644
       116.6724         90.9134
   3639457.45846   2816003.81445  22309090.0214   22309095.8214
     -2249.7034      -1753.0154
  -3172026.66745  -2390064.02345  23079325.8494   23079331.6034
       636.0314        495.6094
   2346840.26044   1818248.96542  24458552.1464   24458558.7434
     -1750.5004      -1364.0264
   8015800.10643   6120648.89042  24311723.0444   24311730.6424
     -3679.0314      -2866.7784
    915218.75546    710512.04846  21388807.5134   21388812.5174
      -657.1414       -512.0584
   4869393.95146   3744797.80945  22916274.4504   22916280.4744
     -2145.8124      -1672.0624
  -5909077.53446  -4477583.75046  22049935.3644   22049940.8024
      1888.4844       1471.5464
  -1967497.03645  -1463493.49245  23064406.6924   23064412.7634
       -19.2034        -14.9634
 98  6 17  1  7  0.0010000  0  9G 1G 3G 8G 9G17G21G23G29G31
  -2160224.40247  -1637134.39546  20790797.3804   20790801.8214
        99.1094         77.2284
   3707199.46046   2868789.72146  22321981.0364   22321986.6384
     -2266.3124      -1765.9584
  -3190826.89845  -2404713.49845  23075747.5754   23075753.8454
       617.0944        480.8524
   2399636.16044   1859388.65343  24468599.2634   24468604.6304
     -1769.1254      -1378.5394
   8126304.38743   6206755.97042  24332751.5754   24332759.6424
     -3687.8124      -2873.6204
    935035.91046    725953.97846  21392578.8884   21392583.8104
      -663.9064       -517.3304
   4933834.33346   3795011.06345  22928537.2244   22928543.1534
     -2150.1094      -1675.4104
  -5965521.25946  -4521565.81046  22039194.2474   22039199.6964
      1874.4534       1460.6134
  -1966612.15845  -1462803.99045  23064575.1144   23064581.1034
       -39.7664        -30.9864
 98  6 17  1  7 30.0010000  0  9G 1G 3G 8G 9G17G21G23G29G31
  -2162953.53346  -1639260.96846  20790277.9664   20790282.2784
        82.6564         64.4074
   3775420.68246   2921949.06346  22334963.2784   22334968.5874
     -2281.9064      -1778.1094
  -3209063.57245  -2418923.86845  23072277.6064   23072283.7354
       598.6414        466.4734
   2452973.35644   1900950.07842  24478748.9114   24478755.1224
     -1786.8594      -1392.3584
   8237052.18443   6293052.77042  24353826.2004   24353835.5674
     -3695.5314      -2879.6354
    955033.25246    741536.31146  21396384.1304   21396389.3684
      -669.3444       -521.5674
   4998382.08946   3845307.98745  22940820.0754   22940825.8064
     -2153.1254      -1677.7604
  -6021555.31046  -4565228.64246  22028531.2084   22028535.8254
      1861.0164       1450.1424
  -1965128.11545  -1461647.61745  23064857.5674   23064862.6304
       -59.2664        -46.1814
 98  6 17  1  8  0.0010000  0  9G 1G 3G 8G 9G17G21G23G29G31
  -2165184.65446  -1640999.48246  20789853.4744   20789857.5754
        65.7504         51.2344
   3844115.11746   2975477.14245  22348035.6144   22348041.4034
     -2298.1094      -1790.7354
  -3226746.86445  -2432703.02045  23068912.2714   23068918.0484
       580.0634        451.9974
   2506846.02644   1942928.78543  24488999.9744   24489005.7394
     -1804.9694      -1406.4694
   8348041.61543   6379537.84942  24374947.3174   24374955.8534
     -3703.8754      -2886.1364
    975200.92046    757251.36646  21400221.8804   21400226.6734
      -675.4374       -526.3154
   5063022.10846   3895676.80745  22953120.7394   22953126.5404
     -2156.4844      -1680.3774
  -6077181.51046  -4608573.65346  22017945.7474   22017950.8214
      1847.0944       1439.2944
  -1963058.62745  -1460035.04945  23065251.1924   23065257.2044
       -79.0474        -61.5954
 98  6 17  1  8 30.0010000  0  9G 1G 3G 8G 9G17G21G23G29G31
  -2166897.52246  -1642334.16046  20789527.6464   20789532.5214
        48.2034         37.5614
   3913307.59946   3029393.30245  22361202.2084   22361208.2674
     -2314.6254      -1803.6044
  -3243883.97445  -2446056.57045  23065651.2474   23065657.0014
       562.4694        438.2874
   2561264.33443   1985332.67942  24499356.2784   24499361.3414
     -1823.0314      -1420.5444
   8459278.92243   6466216.11342  24396115.4664   24396123.8964
     -3711.9694      -2892.4434
    995552.07546    773109.40646  21404094.6144   21404099.6304
      -681.3284       -530.9054
   5127767.78246   3946127.94645  22965441.4584   22965447.2594
     -2159.8444      -1682.9954
  -6132394.64946  -4651596.81346  22007438.8104   22007443.6964
      1833.7034       1428.8604
  -1960385.46845  -1457952.09245  23065760.2084   23065765.9034
       -99.1724        -77.2774
 98  6 17  1  9  0.0010000  0  9G 1G 3G 8G 9G17G21G23G29G31
  -2168068.11046  -1643246.29246  20789304.8644   20789309.7744
        29.7194         23.1574
   3982986.98446   3083688.86745  22374461.7474   22374467.7944
     -2330.5944      -1816.0474
  -3260491.05145  -2458997.11845  23062491.1534   23062497.2004
       544.6884        424.4324
   2616225.47143   2028159.53142  24509814.5364   24509820.1264
     -1840.9844      -1434.5334
   8570767.12443   6553089.83442  24417330.7314   24417338.6574
     -3720.6724      -2899.2254
   1016081.66646    789106.48746  21408001.2084   21408006.3884
      -687.2664       -535.5324
   5192614.69846   3996657.96845  22977781.6854   22977787.3334
     -2163.2664      -1685.6624
  -6187197.15746  -4694299.98746  21997010.4424   21997014.7554
      1819.8134       1418.0364
  -1957107.72845  -1455398.03545  23066383.9034   23066389.5174
      -119.3284        -92.9834
 98  6 17  1  9 30.0010000  0  9G 1G 3G 8G 9G17G21G23G29G31
  -2168677.42046  -1643721.05646  20789188.5994   20789192.9584
        10.6884          8.3284
   4053140.96946   3138354.25245  22387811.6144   22387817.4624
     -2346.3594      -1828.3324
  -3276570.32545  -2471526.38545  23059431.4814   23059437.0484
       527.2664        410.8564
   2671721.06343   2071402.80542  24520375.7864   24520381.2944
     -1859.0314      -1448.5964
   8682520.19243   6640170.00142  24438596.3644   24438606.6814
     -3729.7814      -2906.3234
   1036785.29246    805239.17146  21411940.8964   21411945.4784
      -693.1874       -540.1464
   5257555.94246   4047261.50445  22990139.4584   22990145.0834
     -2166.3284      -1688.0484
  -6241591.65646  -4736685.24746  21986659.5914   21986664.3024
      1806.4224       1407.6014
  -1953230.29445  -1452376.68345  23067121.7944   23067126.5754
      -139.4224       -108.6404
 98  6 17  1 10  0.0010000  0  9G 1G 3G 8G 9G17G21G23G29G31
  -2168713.36646  -1643749.05846  20789182.0674   20789186.6614
        -8.1724         -6.3684
   4123763.47346   3193384.71745  22401251.1224   22401256.9464
     -2361.6564      -1840.2524
  -3292131.72145  -2483652.11145  23056469.8494   23056475.0174
       510.2974        397.6344
   2727766.05344   2115074.23843  24531039.5914   24531045.8724
     -1877.1724      -1462.7314
   8794555.26042   6727469.89142  24459916.5914   24459925.3964
     -3738.9534      -2913.4704
   1057676.63746    821518.13446  21415916.4274   21415921.6064
      -699.4534       -545.0284
   5322593.57446   4097940.14545  23002515.7084   23002521.5564
     -2169.4374      -1690.4714
  -6295587.27146  -4778759.67846  21976384.2944   21976389.1224
      1793.3594       1397.4234
  -1948746.24345  -1448882.62945  23067975.0134   23067980.7084
      -159.4844       -124.2744
 98  6 17  1 10 30.0010000  0  9G 1G 3G 8G 9G17G21G23G29G31
  -2168175.88747  -1643330.22546  20789284.0914   20789288.5794
       -27.5004        -21.4294
   4194851.00846   3248777.54045  22414778.3494   22414784.1034
     -2377.3124      -1852.4514
  -3307177.09645  -2495375.74045  23053606.8564   23053612.5874
       492.6884        383.9124
   2784359.07443   2159172.63942  24541809.3334   24541815.7674
     -1895.6254      -1477.1104
   8906865.59643   6814984.19042  24481289.1304   24481295.7164
     -3748.4844      -2920.8974
   1078763.49946    837949.44846  21419929.3724   21419934.4814
      -706.2974       -550.3614
   5387731.11546   4148696.64245  23014910.7004   23014916.2554
     -2172.9534      -1693.2104
  -6349183.32946  -4820522.76546  21966185.3174   21966190.5444
      1779.7034       1386.7824
  -1943649.90745  -1444911.47345  23068944.8414   23068949.6224
      -180.0944       -140.3334
 98  6 17  1 11  0.0010000  0  9G 1G 3G 8G 9G17G21G23G29G31
  -2167072.93346  -1642470.77146  20789494.1924   20789498.7744
       -45.8754        -35.7474
   4266396.45946   3304527.19645  22428393.0214   22428398.8804
     -2392.4694      -1864.2614
  -3321690.01645  -2506684.46545  23050845.4814   23050851.1424
       474.7194        369.9114
   2841498.69144   2203697.02942  24552682.9354   24552687.8334
     -1913.5784      -1491.1004
   9019458.74444   6902718.93543  24502715.1924   24502723.0014
     -3757.6414      -2928.0324
   1100049.47446    854535.91646  21423979.8644   21423984.5634
      -712.7664       -555.4024
   5452965.78346   4199528.81745  23027324.8724   23027330.7554
     -2176.0164      -1695.5974
  -6402368.70846  -4861965.84746  21956064.4034   21956069.2204
      1766.0634       1376.1534
  -1937946.87045  -1440467.56645  23070029.9584   23070034.9154
      -200.0944       -155.9174
 98  6 17  1 11 30.0010000  0  9G 1G 3G 8G 9G17G21G23G29G31
  -2165428.68947  -1641189.52946  20789806.9894   20789811.1264
       -63.6414        -49.5904
   4338407.32546   3360639.49145  22442096.1774   22442102.1304
     -2408.1414      -1876.4734
  -3335658.07445  -2517568.62045  23048187.0754   23048193.4384
       456.5004        355.7144
   2899179.11044   2248642.76843  24563658.8964   24563663.6424
     -1931.8444      -1505.3334
   9132309.70843   6990654.59042  24524189.1064   24524195.9504
     -3765.5784      -2934.2174
   1121534.30946    871277.33446  21428068.3564   21428073.2084
      -719.6094       -560.7354
   5518284.89446   4250426.80245  23039754.5444   23039759.8294
     -2178.5784      -1697.5934
  -6455148.98946  -4903093.25946  21946020.8104   21946025.4154
      1752.5944       1365.6574
  -1931641.14045  -1435554.02145  23071230.2004   23071235.5214
      -220.2194       -171.5994
 98  6 17  1 12  0.0010000  0  9G 1G 3G 8G 9G17G21G23G29G31
  -2163256.44647  -1639496.86846  20790220.5214   20790224.8684
       -81.0164        -63.1294
   4410887.36546   3417117.38245  22455888.8414   22455894.5714
     -2423.8124      -1888.6854
  -3349074.94145  -2528023.29545  23045634.3884   23045639.7784
       438.0634        341.3474
   2957404.48544   2294013.18642  24574739.4664   24574745.1264
     -1949.5314      -1519.1154
   9245389.93243   7078768.85142  24545708.1534   24545716.0214
     -3772.8754      -2939.9034
   1143225.57946    888179.61646  21432196.1464   21432201.1614
      -726.2974       -565.9464
   5583687.81346   4301390.07745  23052200.1694   23052205.8294
     -2181.5784      -1699.9314
  -6507521.79146  -4943903.16746  21936054.6464   21936059.6734
      1738.9694       1355.0414
  -1924737.39245  -1430174.47045  23072543.9584   23072548.7164
      -239.8444       -186.8914
 98  6 17  1 12 30.0010000  0  9G 1G 3G 8G 9G17G21G23G29G31
  -2160564.69647  -1637399.38846  20790732.5524   20790736.6774
       -98.4374        -76.7054
   4483841.24546   3473964.50945  22469771.5914   22469777.4274
     -2439.7194      -1901.0804
  -3361927.97045  -2538038.60245  23043188.2784   23043194.1264
       418.7194        326.2744
   3016152.37944   2339790.78342  24585918.6694   24585924.3414
     -1967.1094      -1532.8124
   9358688.75444   7167053.43642  24567268.7164   24567277.4034
     -3780.5784      -2945.9054
   1165109.43146    905231.96746  21436360.0914   21436365.1774
      -732.6414       -570.8894
   5649183.79946   4352425.89645  23064663.8804   23064669.8564
     -2184.8754      -1702.5004
  -6559481.79446  -4984391.39846  21926166.8644   21926171.8924
      1725.0784       1344.2174
  -1917242.90645  -1424334.61445  23073970.0054   23073975.6064
      -259.8284       -202.4634
 98  6 17  1 13  0.0010000  0  9G 1G 3G 8G 9G17G21G23G29G31
  -2157359.63747  -1634901.93146  20791342.4504   20791346.8804
      -115.5474        -90.0374
   4557251.67246   3531167.38545  22483741.3644   22483747.1654
     -2454.6094      -1912.6834
  -3374209.11745  -2547608.30145  23040850.9354   23040856.5834
       399.8134        311.5424
   3075424.20444   2385976.60943  24597197.8254   24597203.0404
     -1984.5944      -1546.4374
   9472204.99144   7255507.52742  24588870.1614   24588876.8414
     -3787.3914      -2951.2134
   1187168.56346    922420.89846  21440558.0364   21440563.3804
      -738.2664       -575.2724
   5714766.63946   4403529.37545  23077144.0284   23077149.4424
     -2187.5944      -1704.6194
  -6611034.53946  -5024562.29146  21916356.4974   21916361.7124
      1711.5474       1333.6734
  -1909159.54445  -1418035.88445  23075508.2164   23075513.5714
      -279.4374       -217.7444
 98  6 17  1 13 30.0010000  0  9G 1G 3G 8G 9G17G21G23G29G31
  -2153636.57447  -1632000.83446  20792050.9504   20792055.4034
      -132.5474       -103.2834
   4631110.18146   3588719.41445  22497796.1464   22497801.7944
     -2469.0624      -1923.9454
  -3385922.97145  -2556735.92945  23038621.7004   23038626.9854
       381.2664        297.0904
   3135229.15244   2432577.82043  24608577.8494   24608583.3924
     -2002.4224      -1560.3294
   9585928.56143   7344123.07742  24610510.4664   24610517.4194
     -3794.1414      -2956.4734
   1209400.81446    939744.71846  21444788.6854   21444793.8174
      -743.7034       -579.5094
   5780436.18446   4454700.41845  23089640.7864   23089646.3294
     -2190.4374      -1706.8344
  -6662178.25546  -5064414.47146  21906624.2784   21906629.2244
      1698.1414       1323.2264
  -1900483.05845  -1411274.99245  23077159.0444   23077164.2944
      -298.8444       -232.8654
 98  6 17  1 14  0.0010000  0  9G 1G 3G 8G 9G17G21G23G29G31
  -2149390.20947  -1628691.96646  20792858.9194   20792863.4314
      -150.4844       -117.2614
   4705405.74946   3646612.02045  22511934.7784   22511940.5564
     -2483.9064      -1935.5114
  -3397072.58245  -2565423.89945  23036500.2714   23036506.3644
       362.1254        282.1754
   3195580.36544   2479604.76042  24620062.3024   24620068.1264
     -2020.8754      -1574.7084
   9699877.43843   7432914.23842  24632195.1144   24632204.1184
     -3802.3284      -2962.8534
   1231797.79246    957196.90046  21449050.7784   21449055.8764
      -749.3284       -583.8924
   5846210.75845   4505953.32245  23102156.5524   23102162.8454
     -2194.3124      -1709.8544
  -6712910.60146  -5103946.09846  21896969.9584   21896974.2474
      1684.0474       1312.2444
  -1891223.29745  -1404059.58145  23078921.1224   23078926.5364
      -318.4374       -248.1334
 98  6 17  1 14 30.0010000  0  9G 1G 3G 8G 9G17G21G23G29G31
  -2144604.22447  -1624962.62446  20793769.7944   20793773.9894
      -168.9374       -131.6404
   4780140.99246   3704847.22245  22526155.8644   22526161.4784
     -2498.7504      -1947.0784
  -3407657.59146  -2573671.92945  23034485.8644   23034491.0444
       343.2814        267.4924
   3256486.18944   2527063.83142  24631652.2864   24631659.5914
     -2039.7974      -1589.4524
   9814069.79242   7521895.08341  24653924.3564   24653931.6854
     -3810.9064      -2969.5374
   1254362.88046    974780.08846  21453344.7394   21453349.7784
      -755.4224       -588.6404
   5912085.56246   4557284.29245  23114692.3724   23114697.8684
     -2197.6094      -1712.4234
  -6763225.15346  -5143152.16946  21887395.3804   21887400.2784
      1670.0004       1301.2994
  -1881374.27645  -1396385.02245  23080795.5604   23080800.8104
      -338.4064       -263.6934
 98  6 17  1 15  0.0010000  0  9G 1G 3G 8G 9G17G21G23G29G31
  -2139260.54147  -1620798.71046  20794786.8884   20794791.2354
      -187.4534       -146.0674
   4855320.30546   3763428.43345  22540461.9974   22540467.6344
     -2513.4374      -1958.5234
  -3417686.82746  -2581486.88945  23032577.5754   23032582.9074
       325.1414        253.3564
   3317957.90144   2574963.86143  24643350.8104   24643355.6614
     -2058.3444      -1603.9044
   9928516.42642   7611074.10841  24675704.2004   24675712.3604
     -3819.0314      -2975.8694
   1277117.70946    992511.11146  21457674.8494   21457679.5954
      -761.7194       -593.5474
   5978057.48645   4608690.94745  23127246.6924   23127252.3884
     -2200.6874      -1714.8214
  -6813117.92346  -5182029.59846  21877900.7944   21877906.1034
      1656.1414       1290.4994
  -1870932.82545  -1388248.80745  23082782.3494   23082787.6574
      -357.8914       -278.8764
 98  6 17  1 15 30.0010000  0  9G 1G 3G 8G 9G17G21G23G29G31
  -2133360.71847  -1616201.43246  20795909.5914   20795914.0794
      -205.9064       -160.4464
   4930943.88146   3822355.84345  22554852.8254   22554858.4624
     -2528.1094      -1969.9554
  -3427170.09146  -2588876.42045  23030773.0134   23030778.6494
       307.1724        239.3554
   3379980.03944   2623292.81642  24655152.7864   24655158.4814
     -2076.4224      -1617.9914
  10043211.98941   7700447.08241  24697529.5604   24697538.2944
     -3827.2664      -2982.2854
   1300062.59746   1010390.23846  21462041.3334   21462046.1854
      -767.9374       -598.3934
   6044126.35245   4660173.15345  23139819.0754   23139824.8294
     -2203.9694      -1717.3784
  -6862600.08346  -5220587.05846  21868485.1144   21868490.1774
      1642.6564       1279.9924
  -1859908.56845  -1379658.47745  23084880.0054   23084885.9934
      -377.1254       -293.8644
 98  6 17  1 16  0.0010000  0  9G 1G 3G 8G 9G17G21G23G29G31
  -2126897.06647  -1611164.80546  20797139.6144   20797143.8684
      -224.9224       -175.2644
   5007010.75646   3881628.67745  22569327.9974   22569334.0324
     -2542.8754      -1981.4614
  -3436118.34845  -2595849.06545  23029069.7784   23029075.4034
       289.4534        225.5484
   3442539.34543   2672040.30342  24667057.0674   24667063.8294
     -2093.9534      -1631.6524
  10158153.98742   7790012.10641  24719402.7314   24719413.4584
     -3835.3124      -2988.5554
   1323199.55646   1028419.04146  21466444.1854   21466449.1184
      -774.5164       -603.5194
   6110292.55645   4711731.21745  23152410.1224   23152415.8764
     -2206.8594      -1719.6314
  -6911675.40146  -5258827.50246  21859146.2634   21859150.8804
      1629.1884       1269.4974
  -1848303.57845  -1370615.62245  23087088.2944   23087094.2244
      -396.5474       -308.9984
 98  6 17  1 16 30.0010000  0  9G 1G 3G 8G 9G17G21G23G29G31
  -2119871.91047  -1605690.64646  20798476.1224   20798480.4464
      -243.2974       -189.5824
   5083518.59746   3941245.11645  22583886.8104   22583892.5174
     -2557.6724      -1992.9914
  -3444534.43546  -2602407.02945  23027468.5674   23027473.8644
       271.6254        211.6564
   3505617.32144   2721191.98242  24679060.7634   24679064.8294
     -2111.1724      -1645.0694
  10273333.59242   7879762.17641  24741321.1924   24741331.8964
     -3843.3124      -2994.7894
   1346537.13146   1046604.16646  21470884.7244   21470889.8334
      -781.2664       -608.7784
   6176542.80045   4763354.75145  23165016.7784   23165022.6614
     -2209.8754      -1721.9814
  -6960350.18346  -5296755.84146  21849883.6854   21849888.2314
      1615.9224       1259.1604
  -1836105.10945  -1361110.31045  23089409.7634   23089415.3764
      -416.6254       -324.6434
 98  6 17  1 17  0.0010000  0  9G 1G 3G 8G 9G17G21G23G29G31
  -2112307.77747  -1599796.49946  20799915.7634   20799920.0054
      -260.9374       -203.3284
   5160465.00946   4001203.31445  22598528.9814   22598535.1224
     -2572.1414      -2004.2654
  -3452410.03746  -2608543.83545  23025970.2394   23025976.2284
       253.3134        197.3864
   3569207.27343   2770742.56242  24691161.5444   24691167.4974
     -2128.2034      -1658.3404
  10388739.39842   7969688.63141  24763281.2864   24763288.2284
     -3850.2974      -3000.2314
   1370069.23746   1064940.86846  21475362.9894   21475368.0994
      -787.4694       -613.6124
   6242884.36445   4815049.44145  23177642.0214   23177647.1534
     -2212.8914      -1724.3304
  -7008635.55146  -5334380.74046  21840695.3024   21840699.8024
      1603.0784       1249.1524
  -1823306.71545  -1351137.53645  23091845.2784   23091851.2314
      -436.6724       -340.2644
 98  6 17  1 17 30.0010000  0  9G 1G 3G 8G 9G17G21G23G29G31
  -2104217.42047  -1593492.31546  20801454.9894   20801459.2434
      -278.4374       -216.9644
   5237845.74946   4061499.92445  22613254.3804   22613260.4854
     -2586.6254      -2015.5524
  -3459734.22645  -2614250.98545  23024576.0994   23024582.0054
       234.9534        183.0804
   3633307.92044   2820691.11442  24703359.4504   24703365.4034
     -2145.3754      -1671.7214
  10504352.09443   8059776.25642  24785282.8964   24785291.9354
     -3857.1724      -3005.5884
   1393784.11946   1083419.99246  21479875.8724   21479880.6884
      -793.5474       -618.3484
   6309314.13145   4866812.86045  23190282.5604   23190288.1964
     -2215.8124      -1726.6074
  -7056534.75046  -5371704.73946  21831580.2554   21831585.0484
      1589.9534       1238.9254
  -1809910.33645  -1340698.78545  23094394.9354   23094400.5604
      -456.4224       -355.6534
 98  6 17  1 18  0.0010000  0  9G 1G 3G 8G 9G17G21G23G29G31
  -2095610.60447  -1586785.69146  20803092.8884   20803097.3174
      -295.3754       -230.1624
   5315662.08046   4122135.97045  22628062.6774   22628068.7004
     -2601.2664      -2026.9604
  -3466504.27646  -2619526.32345  23023287.6774   23023293.4194
       216.0004        168.3124
   3697926.85744   2871043.55542  24715656.3104   24715660.4584
     -2162.7034      -1685.2234
  10620169.10443   8150023.08442  24807321.5214   24807329.1304
     -3864.1094      -3010.9944
   1417675.96946   1102037.02246  21484422.3414   21484427.2394
      -799.3124       -622.8414
   6375829.30345   4918642.83145  23202940.0524   23202946.1924
     -2218.7194      -1728.8724
  -7104035.87646  -5408718.54446  21822541.1534   21822545.2784
      1576.6254       1228.5394
  -1795924.24445  -1329800.56045  23097056.3494   23097062.3024
      -476.1414       -371.0194
 98  6 17  1 18 30.0010000  0  9G 1G 3G 8G 9G17G21G23G29G31
  -2086507.79547  -1579692.57846  20804825.1854   20804829.5324
      -311.5474       -242.7644
   5393916.57246   4183113.43145  22642954.1464   22642960.2394
     -2615.7194      -2038.2224
  -3472694.29046  -2624349.68645  23022109.9194   23022115.0174
       196.6564        153.2394
   3763065.80443   2921801.13442  24728051.5054   24728059.3964
     -2179.9374      -1698.6534
  10736186.17943   8240425.71442  24829399.3174   24829404.0054
     -3870.4694      -3015.9504
   1441732.20746   1120782.13846  21488999.9584   21489004.8684
      -804.3444       -626.7614
   6442441.04045   4970548.03945  23215616.1224   23215621.9114
     -2222.1094      -1731.5144
  -7151136.15346  -5445420.00446  21813577.9814   21813582.3884
      1563.3284       1218.1784
  -1781346.41145  -1318441.21045  23099830.0754   23099835.2784
      -495.6094       -386.1894
 98  6 17  1 19  0.0010000  0  9G 1G 3G 8G 9G17G21G23G29G31
  -2076906.53747  -1572211.06146  20806652.3724   20806656.4384
      -328.6564       -256.0964
   5472603.21146   4244427.63745  22657927.2164   22657932.8644
     -2630.0944      -2049.4244
  -3478302.51045  -2628719.70745  23021042.5674   23021047.7944
       177.1414        138.0324
   3828724.84243   2972964.01542  24740546.4274   24740552.3454
     -2197.3284      -1712.2044
  10852395.37543   8330978.20942  24851513.5134   24851523.0214
     -3876.8594      -3020.9294
   1465934.19846   1139640.82846  21493605.4744   21493610.0214
      -809.1724       -630.5244
   6509153.24445   5022531.53045  23228310.8174   23228316.5134
     -2225.3914      -1734.0714
  -7197828.99746  -5481803.98546  21804692.3804   21804697.1494
      1549.2974       1207.2444
  -1766193.58245  -1306633.80945  23102713.7864   23102719.3534
      -514.6094       -400.9944
 98  6 17  1 19 30.0010000  0  9G 1G 3G 8G 9G17G21G23G29G31
  -2066776.58647  -1564317.58346  20808579.6694   20808584.0174
      -346.4224       -269.9394
   5551729.16046   4306084.16145  22672984.4664   22672990.5364
     -2644.7504      -2060.8444
  -3483319.49245  -2632629.01745  23020087.7714   23020093.6184
       157.5784        122.7884
   3894915.60043   3024541.24942  24753142.0674   24753148.4894
     -2215.1724      -1726.1084
  10968816.98143   8421696.12642  24873667.7784   24873677.6854
     -3884.4224      -3026.8224
   1490296.53846   1158624.46546  21498241.4274   21498246.8064
      -814.6874       -634.8214
   6575975.19145   5074600.55145  23241027.0134   23241031.9814
     -2229.2664      -1737.0904
  -7244081.95846  -5517845.19746  21795890.8414   21795895.5284
      1534.4064       1195.6414
  -1750464.44445  -1294377.35345  23105706.5994   23105712.2714
      -533.8914       -416.0194
 98  6 17  1 20  0.0010000  0  9G 1G 3G 8G 9G17G21G23G29G31
  -2056120.25047  -1556013.93146  20810607.6854   20810612.2084
      -364.2814       -283.8564
   5631286.25046   4368076.63945  22688123.9504   22688130.0214
     -2659.1414      -2072.0584
  -3487748.86145  -2636080.45745  23019244.9894   23019250.9314
       137.5474        107.1794
   3961632.90843   3076528.67142  24765837.8254   24765841.5874
     -2232.6254      -1739.7084
  11085458.87443   8512585.73042  24895863.9584   24895873.9814
     -3891.8754      -3032.6304
   1514820.77546   1177734.26046  21502908.4354   21502913.4154
      -820.4534       -639.3144
   6642910.93846   5126758.23345  23253764.2944   23253769.7314
     -2233.1724      -1740.1344
  -7289891.98146  -5553541.26246  21787173.5214   21787177.9744
      1519.5474       1184.0634
  -1734147.87345  -1281663.14945  23108811.9274   23108817.6814
      -554.0164       -431.7004
 98  6 17  1 20 30.0010000  0  9G 1G 3G 8G 9G17G21G23G29G31
  -2044912.02947  -1547280.24146  20812740.5364   20812744.7434
      -382.7504       -298.2474
   5711278.02445   4430407.82545  22703346.0914   22703352.2784
     -2673.4374      -2083.1984
  -3491575.87045  -2639062.53345  23018516.9424   23018522.4624
       117.8284         91.8144
   4028872.81043                  24778633.0994
     -2249.8444
  11202335.30443   8603658.10142  24918105.6854   24918113.1064
     -3899.8594      -3038.8514
   1539536.08846   1196992.92946  21507611.5524   21507616.5674
      -827.1724       -644.5504
   6709965.83445   5179008.75345  23266524.5754   23266530.1064
     -2236.8284      -1742.9834
  -7335249.51746  -5588884.75446  21778542.1854   21778546.6854
      1504.5474       1172.3744
  -1717221.57345  -1268473.83745  23112032.9504   23112038.7744
      -574.1254       -447.3704
 98  6 17  1 21  0.0010000  0  9G 1G 3G 8G 9G17G21G23G29G31
  -2033158.97247  -1538121.99746  20814977.1304   20814981.2204
      -401.0164       -312.4804
   5791684.60346   4493062.24745  22718646.4664   22718652.3604
     -2687.3594      -2094.0464
  -3494826.67945  -2641595.59645  23017897.8644   23017902.9384
        98.4534         76.7174
   4096616.43843                  24791524.1384
     -2266.7034
  11319449.13843   8694915.39241  24940391.0914   24940403.4704
     -3908.1724      -3045.3294
   1564450.54046   1216406.78146  21512352.6854   21512357.3604
      -834.3124       -650.1144
   6777106.68845   5231326.25645  23279300.9744   23279306.6104
     -2239.7194      -1745.2354
  -7380170.28146  -5623887.88546  21769993.9894   21769998.5484
      1489.7504       1160.8444
  -1699701.42745  -1254821.79545  23115366.8964   23115372.3104
      -594.3444       -463.1254
 98  6 17  1 21 30.0010000  0  8G 1G 3G 8G 9G21G23G29G31
  -2020865.86547  -1528542.94446  20817316.3564   20817320.7634
      -418.2194       -325.8854
   5872513.99046   4556046.12345  22734028.5284   22734034.3174
     -2700.8914      -2104.5904
  -3497487.26145  -2643668.76445  23017391.6924   23017396.5094
        79.1724         61.6924
   4164871.90244     17770.73352  24804512.6304   24804518.5834
     -2283.4844      -1779.3384
   1589597.01746   1236001.43446  21517137.9584   21517142.4704
      -841.9064       -656.0314
   6844348.29345   5283722.29545  23292096.5604   23292102.4194
     -2242.8444      -1747.6704
  -7424645.79446  -5658544.07146  21761530.6304   21761535.3764
      1475.5944       1149.8134
  -1681561.50445  -1240686.81345  23118818.2944   23118823.4624
      -614.8124       -479.0754
 98  6 17  1 22  0.0010000  0  9G 1G 3G 8G 9G25G21G23G29G31
  -2008073.73647  -1518575.03946  20819750.6464   20819755.0524
      -434.7504       -338.7664
   5953726.05346   4619328.18745  22749482.5134   22749488.2314
     -2713.2344      -2114.2094
  -3499581.72146  -2645300.79445  23016993.0284   23016998.5604
        60.5164         47.1554
   4233609.32044     71332.36642  24817593.0994   24817599.1574
     -2299.0474      -1791.4654
    -45939.13753                  24940283.8334
      2702.8754
   1614960.01146   1255764.80246  21521964.0754   21521968.7514
      -849.0784       -661.6194
   6911665.75546   5336177.39145  23304906.5054   23304912.5174
     -2245.0474      -1749.3874
  -7468713.39746  -5692882.40946  21753144.8494   21753149.3134
      1462.2814       1139.4404
  -1662819.25945  -1226082.49245  23122385.1774   23122391.2244
      -634.5164       -494.4284
 98  6 17  1 22 30.0010000  0  9G 1G 3G 8G 9G25G21G23G29G31
  -1994791.71647  -1508225.40246  20822278.1694   20822282.7164
      -450.8594       -351.3194
   6035304.78445   4682895.97745  22765006.2944   22765012.4354
     -2725.5164      -2123.7784
  -3501125.20245  -2646503.48245  23016699.0364   23016704.5324
        42.2974         32.9594
   4302817.65144    125260.91743  24830762.9894   24830768.2744
     -2315.1724      -1804.0304
   -127052.48043                  24924848.0834
      2704.4064
   1640534.79646   1275693.20246  21526830.9274   21526835.8494
      -855.9534       -666.9764
   6979051.48045   5388685.70545  23317730.1384   23317736.2554
     -2247.6094      -1751.3844
  -7512386.60546  -5726913.42546  21744833.9814   21744838.4464
      1449.1414       1129.2004
  -1643497.38645  -1211026.49945  23126061.8804   23126067.4814
      -653.7974       -509.4524
 98  6 17  1 23  0.0010000  0  9G 1G 3G 8G 9G25G21G23G29G31
  -1981025.32247  -1497498.33246  20824897.8414   20824902.0134
      -467.4374       -364.2374
   6117246.62946   4746746.68445  22780599.0134   22780605.2714
     -2737.6254      -2133.2144
  -3502123.67645  -2647281.49845  23016509.6774   23016515.3134
        23.8594         18.5924
   4372518.25543    179573.08842  24844026.6924   24844031.1574
     -2332.1414      -1817.2524
   -208216.59044         1.44252  24909403.6384   24909412.7594
      2706.1414       2108.6814
   1666301.79446   1295771.37846  21531734.4664   21531739.4354
      -862.2814       -671.9074
   7046518.83146   5441257.64145  23330568.7554   23330574.2864
     -2250.8124      -1753.8804
  -7555663.33146  -5760635.48646  21736598.8564   21736603.3104
      1435.4694       1118.5474
  -1623595.91845  -1195518.89845  23129849.3414   23129854.5324
      -673.4844       -524.7934
 98  6 17  1 23 30.0010000  0  9G 1G 3G 8G 9G25G21G23G29G31
  -1966761.24947  -1486383.46146  20827612.2164   20827616.4234
      -483.9844       -377.1314
   6199545.93646   4810875.95745  22796260.5754   22796266.9854
     -2749.3284      -2142.3344
  -3502573.17746  -2647631.72945  23016423.6924   23016429.6104
         5.8444          4.5544
   4442739.02143    234290.58242  24857389.3884   24857394.7784
     -2349.6564      -1830.9014
   -289432.94144    -63283.76742  24893947.8644   24893956.0014
      2707.8594       2110.0204
   1692254.96546   1315994.61346  21536672.9114   21536677.7394
      -868.1254       -676.4614
   7114086.35945   5493907.59445  23343426.3644   23343432.3644
     -2253.9064      -1756.2914
  -7598526.50646  -5794035.30946  21728442.1224   21728446.4354
      1421.7194       1107.8334
  -1603112.34945  -1179557.69645  23133747.0604   23133752.9664
      -692.3594       -539.5014
 98  6 17  1 24  0.0010000  0  9G 1G 3G 8G 9G25G21G23G29G31
  -1951975.75047  -1474862.28646  20830425.7554   20830430.1264
      -501.7814       -390.9984
   6282212.81146   4875291.63645  22811991.4034   22811997.0754
     -2762.0164      -2152.2204
  -3502471.93745  -2647552.82945  23016443.2164   23016449.0754
       -12.7664         -9.9474
   4513496.14143    289425.94342  24870853.7634   24870859.7284
     -2367.6564      -1844.9274
   -370687.21644   -126598.53842  24878486.0444   24878495.5054
      2709.0164       2110.9214
   1718380.79946   1336352.38946  21541644.7394   21541649.1464
      -873.5164       -680.6624
   7181755.73545   5546636.92845  23356303.3884   23356308.8604
     -2257.4694      -1759.0674
  -7640964.28146  -5827103.64446  21720366.6384   21720371.0214
      1407.3914       1096.6684
  -1582059.49345  -1163152.91145  23137753.3254   23137759.2554
      -711.1724       -554.1604
 98  6 17  1 24 30.0010000  0  9G 1G 3G 8G 9G25G21G23G29G31
  -1936655.05447  -1462924.07446  20833341.2314   20833345.6384
      -519.3914       -404.7204
   6365274.46746   4940014.94245  22827797.7634   22827803.4464
     -2775.1564      -2162.4594
  -3501801.01846  -2647030.02145  23016570.7004   23016576.2784
       -31.9534        -24.8994
   4584807.53843    344993.19242  24884423.6534   24884431.9664
     -2386.1724      -1859.3554
   -451965.27944   -189931.83543  24863019.0214   24863026.9934
      2709.6414       2111.4084
   1744664.60946   1356833.25946  21546646.2394   21546651.1264
      -878.4374       -684.4974
   7249536.13845   5599452.80545  23369201.5674   23369207.4274
     -2260.8754      -1761.7214
  -7682966.37346  -5859832.49946  21712373.5214   21712377.7984
      1392.9534       1085.4184
  -1560441.58945  -1146307.82745  23141866.9504   23141872.5054
      -729.9064       -568.7584
 98  6 17  1 25  0.0010000  0  9G 1G 3G 8G 9G25G21G23G29G31
  -1920800.27447  -1450569.69246  20836358.4354   20836362.5014
      -537.4224       -418.7704
   6448727.07546   5005042.89345  22843678.4504   22843684.0634
     -2788.2664      -2172.6754
  -3500542.64045  -2646049.44845  23016810.0674   23016815.2354
       -51.8754        -40.4224
   4656670.75844    400990.55742  24898099.0054   24898105.7784
     -2404.4844      -1873.6244
   -533262.09244   -253279.71943  24847548.6384   24847557.4784
      2710.1884       2111.8344
   1771095.16046   1377428.47946  21551675.6774   21551680.5634
      -883.5474       -688.4784
   7317410.87845   5652342.15945  23382117.6224   23382123.2714
     -2264.0164      -1764.1684
  -7724531.06046  -5892220.50846  21704464.1694   21704468.5754
      1378.1254       1073.8644
  -1538259.64445  -1129023.23345  23146088.1534   23146093.3214
      -748.8124       -583.4904
 98  6 17  1 25 30.0010000  0  9G 1G 3G 8G 9G25G21G23G29G31
  -1904414.91747  -1437801.86946  20839476.2714   20839480.3844
      -554.8594       -432.3584
   6532580.33446   5070383.04845  22859634.9664   22859640.9194
     -2801.8124      -2183.2314
  -3498681.61546  -2644599.29445  23017164.3724   23017169.7164
       -72.0624        -56.1534
   4729068.27943    457404.22242  24911875.6384   24911882.2124
     -2421.6564      -1887.0054
   -614561.01744   -316629.24343  24832076.9894   24832086.2984
      2709.8754       2111.5914
   1797682.27546   1398145.69046  21556735.1694   21556739.9504
      -888.8124       -692.5814
   7385376.43845   5705302.28545  23395051.0134   23395056.2744
     -2266.7814      -1766.3234
  -7765652.25446  -5924262.94046  21696638.8334   21696643.0284
      1363.4534       1062.4314
  -1515515.03845  -1111300.19745  23150416.6064   23150422.3604
      -767.4224       -597.9914
 98  6 17  1 26  0.0010000  0  9G 1G 3G 8G 9G25G21G23G29G31
  -1887504.79147  -1424625.14246  20842694.1224   20842698.4704
      -572.4374       -446.0554
   6616839.99146   5136039.85645  22875669.1304   22875674.7784
     -2815.4064      -2193.8234
  -3496212.93346  -2642675.61745  23017634.0994   23017639.5834
       -92.5314        -72.1024
   4801964.21244    514206.21142  24925747.4744   24925754.7554
     -2438.0474      -1899.7774
   -695847.20144   -379968.84343  24816608.2944   24816617.4504
      2709.1564       2111.0314
   1824430.33646   1418988.32846  21561825.2944   21561829.9354
      -894.5624       -697.0624
   7453421.48845   5758324.37145  23407999.4894   23408005.1494
     -2269.5314      -1768.4664
  -7806343.21946  -5955970.13346  21688895.7084   21688900.0324
      1349.2504       1051.3644
  -1492203.55245  -1093135.43645  23154852.6854   23154857.8174
      -786.6564       -612.9794
 98  6 17  1 26 30.0010000  0  9G 1G 3G 8G 9G25G21G23G29G31
  -1870085.36147  -1411051.54046  20846008.9114   20846013.1884
      -588.9534       -458.9254
   6701483.59545   5201995.84045  22891776.2004   22891782.0364
     -2827.4844      -2203.2354
  -3493144.37945  -2640284.51845  23018217.9974   23018223.6464
      -112.1564        -87.3944
   4875332.18044    571376.08142  24939708.3884   24939713.2044
     -2453.0624      -1911.4774
   -777117.06943   -443295.71843  24801143.4974   24801152.2204
      2708.7814       2110.7394
   1851350.95146   1439965.41946  21566948.0284   21566952.9274
      -900.3594       -701.5794
   7521533.35145   5811398.50945  23420960.7864   23420967.1384
     -2271.3124      -1769.8544
  -7846618.80746  -5987353.64846  21681231.5604   21681236.0604
      1335.6564       1040.7714
  -1468321.72345  -1074526.27145  23159397.2554   23159402.4704
      -805.7034       -627.8214
 98  6 17  1 27  0.0010000  0  9G 1G 3G 8G 9G25G21G23G29G31
  -1852163.09247  -1397086.13146  20849419.6304   20849423.9894
      -605.8594       -472.0984
   6786492.27645   5268236.32845  22907952.7474   22907958.3254
     -2839.9534      -2212.9504
  -3489484.91345  -2637432.97145  23018914.3964   23018919.6694
      -131.8444       -102.7354
   4949149.92044    628896.41142  24953755.6224   24953760.3454
     -2468.1564      -1923.2394
   -858371.61943   -506610.65442  24785680.8024   24785690.4274
      2707.9384       2110.0814
   1878462.15746   1461091.02846  21572107.1614   21572111.6854
      -907.3444       -707.0214
   7589711.88245   5864524.57045  23433934.8494   23433940.2864
     -2274.1724      -1772.0824
  -7886473.58746  -6018409.26946  21673647.2164   21673651.7044
      1321.2194       1029.5214
  -1443855.84445  -1055461.98245  23164053.0524   23164058.1264
      -825.3284       -643.1134
 98  6 17  1 27 30.0010000  0  9G 1G 3G 8G 9G25G21G23G29G31
  -1833746.43547  -1382735.47646  20852924.0754   20852928.2244
      -622.0164       -484.6874
   6871871.92345   5334765.85645  22924200.3724   22924206.2904
     -2851.9064      -2222.2654
  -3485243.80345  -2634128.18745  23019721.1534   23019727.0134
      -150.9694       -117.6384
   5023409.60944    686761.08542  24967887.2784   24967894.5954
     -2482.4224      -1934.3554
   -939600.31943   -569905.48442  24770223.8024   24770232.3494
      2707.4384       2109.6924
   1905781.20746   1482378.59246  21577305.6064   21577310.3174
      -914.0474       -712.2444
   7657972.80245   5917714.87545  23446925.2714   23446931.3884
     -2276.6094      -1773.9814
  -7925908.21146  -6049137.48646  21666143.1224   21666147.5874
      1307.8444       1019.0994
  -1418810.49245  -1035946.15245  23168818.7394   23168823.8494
      -844.3594       -657.9424
 98  6 17  1 28  0.0010000  0  9G 1G 3G 8G 9G25G21G23G29G31
  -1814830.59947  -1367995.84746  20856523.4424   20856527.9194
      -638.6254       -497.6304
   6957613.32045   5401577.26845  22940516.1614   22940522.2314
     -2863.8594      -2231.5794
  -3480415.95345  -2630366.20545  23020640.3174   23020645.6384
      -170.6724       -132.9914
   5098111.43844    744970.27542  24982102.3334   24982107.3964
     -2497.4694      -1946.0804
  -1020812.18243   -633187.20443  24754769.7864   24754778.4274
      2706.9534       2109.3144
   1933316.36846   1503834.54846  21582545.3804   21582550.1144
      -921.2344       -717.8454
   7726320.45245   5970972.73845  23459930.8254   23459936.7314
     -2279.6874      -1776.3804
  -7964939.41846  -6079551.36546  21658715.8174   21658720.2824
      1294.5474       1008.7384
  -1393186.80645  -1015979.67745  23173694.6144   23173699.8884
      -863.4374       -672.8084
 98  6 17  1 28 30.0020000  0  9G 1G 3G 8G 9G25G21G23G29G31
  -1795419.21947  -1352870.08746  20860217.6194   20860222.1194
      -654.9224       -510.3294
   7043715.58845   5468669.88945  22956901.0574   22956907.3964
     -2875.7194      -2240.8204
  -3474991.10246  -2626139.02145  23021672.8074   23021677.8114
      -190.7034       -148.6004
   5173270.83644    803536.04542  24996404.9394   24996410.4824
     -2512.5784      -1957.8534
  -1102012.09844   -696459.56643  24739317.6894   24739323.5254
      2706.6564       2109.0834
   1961063.54346   1525455.71646  21587825.8614   21587830.8894
      -928.0314       -723.1414
   7794769.94645   6024309.92945  23472956.2834   23472961.8614
     -2283.0784      -1779.0224
  -8003562.06946  -6109646.87746  21651365.8304   21651370.7054
      1280.6564        997.9144
  -1366993.45945   -995569.31045  23178679.4164   23178684.9824
      -882.3594       -687.5534
 98  6 17  1 29  0.0020000  0  9G 1G 3G 8G 9G25G21G23G29G31
  -1775523.17047  -1337366.65646  20864003.5254   20864007.8034
      -671.3754       -523.1494
   7130179.39545   5536044.22245  22973354.8774   22973360.5024
     -2888.4224      -2250.7184
  -3468966.61045  -2621444.60345  23022818.8384   23022824.6974
      -210.7814       -164.2454
   5248885.73244    862456.78042  25010793.6114   25010798.4044
     -2528.4224      -1970.1994
  -1183207.24544   -759728.24942  24723866.1824   24723874.4594
      2706.4224       2108.9004
   1989007.62646   1547230.32446  21593143.2364   21593148.1824
      -934.7194       -728.3524
   7863320.93045   6077726.23845  23486001.7524   23486007.4594
     -2286.9694      -1782.0544
  -8041765.57546  -6139415.79446  21644096.1584   21644100.4714
      1266.4694        986.8594
  -1340239.14545   -974721.83545  23183770.6354   23183776.3304
      -900.9694       -702.0544
 98  6 17  1 29 30.0020000  0  9G 1G 3G 8G 9G25G21G23G29G31
  -1755139.53447  -1321483.29746  20867882.3854   20867886.6274
      -687.5474       -535.7514
   7217013.40345   5603707.01945  22989878.8144   22989884.8384
     -2900.3124      -2259.9844
  -3462346.46945  -2616286.04045  23024078.5254   23024084.1504
      -230.4534       -179.5744
   5324973.36244    921745.79442  25025273.3224   25025280.2644
     -2544.0944      -1982.4114
  -1264407.28844   -823000.76942  24708414.0334   24708420.8074
      2707.1564       2109.4724
   2017132.39046   1569145.73246  21598495.2834   21598500.0414
      -940.1564       -732.5894
   7931975.83145   6131223.50345  23499065.6744   23499071.5924
     -2289.7974      -1784.2574
  -8079553.96846  -6168861.25746  21636905.1584   21636909.2484
      1252.7504        976.1694
  -1312938.42445   -953448.58445  23188965.3934   23188971.0644
      -919.0624       -716.1534
 98  6 17  1 30  0.0020000  0  9G 1G 3G 8G 9G25G21G23G29G31
  -1734257.14047  -1305211.29546  20871856.3774   20871860.1974
      -704.1254       -548.6694
   7304210.26346   5671652.56045  23006471.7604   23006477.7604
     -2912.4224      -2269.4204
  -3455135.21445  -2610666.86445  23025450.7134   23025455.8814
      -249.9064       -194.7324
   5401549.02444    981415.18242  25039845.0964   25039850.9434
     -2560.5784      -1995.2564
  -1345623.35944   -886285.78743  24692958.9714   24692966.6274
      2707.5474       2109.7774
   2045428.74446   1591194.82946  21603880.0574   21603884.8384
      -945.6724       -736.8874
   8000720.46345   6184790.70345  23512147.3144   23512153.5374
     -2292.7504      -1786.5584
  -8116905.72746  -6197966.46846  21629797.2214   21629801.3114
      1237.5784        964.3474
  -1285087.89645   -931746.92045  23194265.5024   23194271.5144
      -937.2344       -730.3124
 98  6 17  1 30 30.0020000  0  9G 1G 3G 8G 9G25G21G23G29G31
  -1712882.83647  -1288555.97946  20875923.5414   20875927.9244
      -720.5944       -561.5024
   7391762.37245   5739874.92445  23023132.3544   23023138.2954
     -2924.2344      -2278.6244
  -3447345.85946  -2604597.23045  23026933.3544   23026938.9554
      -269.1414       -209.7204
   5478613.70444   1041465.53842  25054509.8464   25054517.2794
     -2576.8754      -2007.9554
  -1426847.44645   -949577.02343  24677502.1974   24677508.9824
      2707.5784       2109.8014
   2073875.84046   1613361.39546  21609293.3694   21609297.9514
      -950.6414       -740.7594
   8069551.98645   6238425.60045  23525245.9004   23525251.5144
     -2295.7504      -1788.8964
  -8153788.61646  -6226706.33546  21622778.5724   21622783.2014
      1221.5784        951.8794
  -1256688.01245                  23199669.7294
      -955.9064
 98  6 17  1 31  0.0020000  0  9G 1G 3G 8G 9G25G21G23G29G31
  -1691010.33947  -1271512.46846  20880085.5414   20880089.8424
      -737.4224       -574.6144
   7479673.46145   5808377.00645  23039861.3074   23039867.3424
     -2936.1724      -2287.9264
  -3438983.01946  -2598080.71845  23028524.4634   23028529.8774
      -288.1564       -224.5374
   5556175.60343   1101903.36241  25069268.9164   25069273.2294
     -2593.7194      -2021.0804
  -1508066.93244  -1012864.69443  24662047.1274   24662056.4714
      2707.1254       2109.4484
   2102480.95646   1635651.10046  21614736.6894   21614741.6824
      -956.1724       -745.0694
   8138470.37045   6292128.17545  23538360.7994   23538366.6114
     -2298.5944      -1791.1124
  -8190194.09146  -6255074.19046  21615850.9864   21615855.4634
      1205.7194        939.5214
  -1227727.20745                  23205181.0574
      -974.5314
 98  6 17  1 31 30.0020000  0  9G 1G 3G 8G 9G25G21G23G29G31
  -1668642.12447  -1254082.67946  20884342.2604   20884346.4434
      -753.7344       -587.3254
   7567919.25945   5877139.91645  23056654.2444   23056660.0454
     -2946.7344      -2296.1574
  -3430057.62646  -2591125.84345  23030222.9004   23030228.7954
      -306.8594       -239.1114
   5634231.57243   1162726.19342  25084122.7524   25084124.8854
     -2609.8914      -2033.6814
  -1589272.52044  -1076141.55842  24646593.7604   24646599.6544
      2706.5634       2109.0104
   2131245.60046   1658065.10446  21620210.2444   21620215.6354
      -961.4534       -749.1844
   8207460.88145   6345886.97945  23551489.4004   23551495.3544
     -2300.6874      -1792.7444
  -8226137.70046  -6283082.15646  21609011.2364   21609015.6434
      1190.5474        927.6994
  -1198215.29645     20714.90955  23210796.5884   23210802.4244
      -992.9374       -773.7184
 98  6 17  1 32  0.0020000  0  9G 1G 3G 8G 9G25G21G23G29G31
  -1645785.95247  -1236272.66646  20888691.7364   20888695.9084
      -769.8594       -599.8904
   7656481.35945   5946149.27945  23073506.7834   23073512.7484
     -2957.2664      -2304.3634
  -3420567.38446  -2583730.84545  23032028.7834   23032034.4904
      -325.8594       -253.9164
   5712771.52343   1223926.19441  25099068.9634   25099074.6004
     -2626.0004      -2046.2344
  -1670444.22644  -1139392.03643  24631146.7834   24631154.2054
      2704.8754       2107.6954
   2160177.23046   1680609.23346  21625715.8934   21625720.4284
      -967.0944       -753.5804
   8276525.95945   6399703.87445  23564632.0334   23564637.8344
     -2303.6874      -1795.0814
  -8261630.54146  -6310738.87546  21602257.1664   21602261.6074
      1175.8914        916.2784
  -1168147.25845     44144.52945  23216518.6354   23216523.9324
     -1011.5004       -788.1824
 98  6 17  1 32 30.0020000  0  9G 1G 3G 8G 9G25G21G23G29G31
  -1622445.19447  -1218085.05346  20893133.1664   20893137.1974
      -785.9534       -612.4314
   7745359.33245   6015404.77145  23090419.7214   23090425.5684
     -2967.8124      -2312.5814
  -3410495.14945  -2575882.33045  23033945.7054   23033950.6624
      -345.3444       -269.0994
   5791795.84943   1285503.61741  25114106.6974   25114115.7484
     -2642.1724      -2058.8354
  -1751557.79344  -1202597.15543  24615711.4084   24615719.1004
      2702.9844       2106.2224
   2189285.03646   1703290.63246  21631254.8854   21631259.7364
      -973.4224       -758.5114
   8345691.14045   6453598.77345  23577793.6584   23577799.4004
     -2307.0164      -1797.6754
  -8296696.87446  -6338063.24046  21595584.2134   21595588.6314
      1162.4064        905.7714
  -1137512.99145     68015.36345  23222347.8614   23222353.6504
     -1030.4844       -802.9754
 98  6 17  1 33  0.0020000  0  9G 1G 3G 8G 9G25G21G23G29G31
  -1598623.89247  -1199522.99946  20897666.3934   20897670.5294
      -802.1254       -625.0324
   7834555.23445   6084908.00145  23107393.3224   23107399.4284
     -2978.5474      -2320.9464
  -3399842.79145  -2567581.77345  23035972.6274   23035978.2294
      -364.8124       -284.2694
   5871308.63742   1347461.51741  25129237.5184   25129243.0964
     -2658.6724      -2071.6924
  -1832620.53044  -1265762.70843  24600285.1584   24600293.6234
      2701.2504       2104.8704
   2218597.87846   1726131.80646  21636833.0414   21636838.0454
      -980.7194       -764.1964
   8414951.19145   6507567.58645  23590973.1974   23590978.6824
     -2310.4224      -1800.3294
  -8331372.33446  -6365083.03346  21588985.4794   21588989.8854
      1149.3754        895.6174
  -1106318.62045     92322.64145  23228284.5184   23228290.4714
     -1049.1564       -817.5244
 98  6 17  1 33 30.0020000  0  9G 1G 3G 8G 9G25G21G23G29G31
  -1574318.34847  -1180583.60946  20902291.6664   20902295.7094
      -818.3444       -637.6704
   7924066.15245   6154656.71545  23124427.0184   23124433.0414
     -2989.0164      -2329.1034
  -3388602.40145  -2558823.01045  23038111.5414   23038117.4364
      -384.7344       -299.7934
   5951305.97442   1409797.07641  25144460.0254   25144465.4984
     -2674.4374      -2083.9774
  -1913636.73644  -1328891.96643  24584868.4944   24584876.0684
      2699.9384       2103.8474
   2248120.98646   1749136.82546  21642450.9084   21642455.6434
      -987.5784       -769.5414
   8484317.76245   6561619.39245  23604173.2834   23604178.9794
     -2314.1414      -1803.2264
  -8365664.39746  -6391804.09046  21582459.9554   21582464.1154
      1136.6724        885.7184
  -1074563.49045    117066.88745  23234327.2364   23234332.9084
     -1067.9534       -832.1714
 98  6 17  1 34  0.0020000  0  9G 1G 3G 8G 9G25G21G23G29G31
  -1549510.92147  -1161253.14246  20907012.0414   20907016.3424
      -835.0004       -650.6494
   8013911.00945   6224665.59445  23141523.6114   23141529.5764
     -3000.2194      -2337.8334
  -3376745.84246  -2549584.12845  23040367.6434   23040373.1504
      -405.2504       -315.7794
   6031787.27842   1472509.86041  25159774.4004   25159781.4004
     -2690.4374      -2096.4454
  -1994612.26844  -1391989.56643  24569459.3144   24569464.6234
      2699.0314       2103.1414
   2277860.82846   1772310.72446  21648110.4164   21648115.2214
      -994.5944       -775.0084
   8553807.74445   6615767.37645  23617396.8614   23617402.5104
     -2318.0474      -1806.2704
  -8399563.08846  -6418218.60246  21576009.3384   21576013.2404
      1123.7664        875.6624
  -1042237.24045    142256.16045  23240478.9944   23240484.4434
     -1086.4844       -846.6114
 98  6 17  1 34 30.0020000  0  9G 1G 3G 8G 9G25G21G23G29G31
  -1524201.38047  -1141531.42046  20911828.3854   20911832.4864
      -852.3284       -664.1524
   8104092.58245   6294936.88745  23158684.6664   23158690.6784
     -3011.8444      -2346.8914
  -3364274.09045  -2539865.86345  23042741.0964   23042746.5804
      -426.0944       -332.0214
   6112737.93142   1535588.23641  25175179.6504   25175188.2444
     -2706.2194      -2108.7424
  -2075573.86745  -1455076.31643  24554052.8074   24554060.6974
      2698.4844       2102.7154
   2307809.69246   1795647.50046  21653809.5644   21653814.2054
     -1001.8754       -780.6824
   8623405.60545   6669999.43345  23630641.0494   23630646.8964
     -2321.6724      -1809.0954
  -8433072.23446  -6444329.58246  21569632.5964   21569636.7324
      1110.1414        865.0454
  -1009364.01345    167871.63545  23246734.0644   23246739.9594
     -1104.9694       -861.0154
 98  6 17  1 35  0.0020000  0  9G 1G 3G 8G 9G25G21G23G29G31
  -1498372.89547  -1121405.32746  20916743.5254   20916747.7214
      -869.5784       -677.5934
   8194612.47645   6365471.77445  23175910.2834   23175916.0964
     -3022.7344      -2355.3774
  -3351183.89745  -2529665.69345  23045232.0724   23045237.5334
      -446.7344       -348.1054
   6194154.51642   1599029.74741  25190673.2604   25190681.5254
     -2721.4694      -2120.6254
  -2156520.04844  -1518151.04743  24538648.2134   24538655.8574
      2697.9844       2102.3254
   2337960.65446   1819141.75046  21659546.9324   21659551.2914
     -1007.9844       -785.4424
   8693105.79045   6724311.21445  23643904.5724   23643910.6544
     -2325.0164      -1811.7004
  -8466168.29046  -6470118.67446  21563334.7054   21563338.8304
      1096.1414        854.1364
   -975939.45245    193916.72945  23253094.8934   23253099.9204
     -1123.4224       -875.3944
 98  6 17  1 35 30.0020000  0  9G 1G 3G 8G 9G25G21G23G29G31
  -1472027.38447  -1100876.35946  20921756.6354   20921760.6544
      -886.5784       -690.8404
   8285454.12445   6436257.40645  23193196.6894   23193202.6194
     -3033.1414      -2363.4864
  -3337463.62646  -2518974.55245  23047842.6044   23047848.0884
      -467.7194       -364.4564
   6276019.30042   1662820.58741  25206251.1664   25206257.6934
     -2735.8754      -2131.8514
  -2237451.90644  -1581214.61943  24523248.3144   24523255.8424
      2697.5944       2102.0214
   2368284.82446   1842770.96546  21665317.5414   21665322.2524
     -1013.4694       -789.7164
   8762900.21345   6778696.43645  23657185.7214   23657191.9554
     -2327.6094      -1813.7224
  -8498837.90446  -6495575.47146  21557117.8464   21557122.2874
      1081.8444        842.9954
   -941958.84645    220395.10945  23259561.0104   23259567.2324
     -1141.7344       -889.6634
 98  6 17  1 36  0.0020000  0  9G 1G 3G 8G 9G25G21G23G29G31
  -1445171.29547  -1079949.53346  20926867.3074   20926871.3614
      -903.4064       -703.9534
   8376610.95745   6507288.60745  23210543.5414   23210550.0104
     -3043.6414      -2371.6684
  -3323120.15245  -2507797.80345  23050572.2364   23050577.7794
      -488.0164       -380.2724
   6358323.62942   1726953.81041  25221912.8384   25221921.1504
     -2750.6724      -2143.3814
  -2318355.27845  -1644255.98443  24507852.0184   24507857.6664
      2696.1564       2100.9014
   2398779.32446   1866532.90346  21671120.5184   21671124.9714
     -1019.1874       -794.1724
   8832768.70545   6833139.37145  23670481.6974   23670487.7214
     -2329.9844      -1815.5724
  -8531066.48046  -6520688.60546  21550984.8934   21550988.8304
      1066.9694        831.4044
   -907426.80645    247303.17545  23266131.9394   23266137.3774
     -1160.0004       -903.8964
 98  6 17  1 36 30.0020000  0  9G 1G 3G 8G 9G25G21G23G29G31
  -1417824.55247  -1058640.38046  20932071.1744   20932075.3464
      -919.4694       -716.4694
   8468069.06545   6578554.58045  23227947.8694   23227953.8224
     -3053.3754      -2379.2534
  -3308184.01545  -2496159.24045  23053414.5024   23053419.9984
      -507.5624       -395.5034
   6441055.20742   1791419.87841  25237656.2834   25237662.2254
     -2764.6564      -2154.2784
  -2399212.94945  -1707261.75443  24492465.2444   24492472.5614
      2694.3914       2099.5254
   2429436.45446   1890421.55746  21676954.1664   21676958.9124
     -1024.5164       -798.3244
   8902702.25045   6887632.99945  23683789.7834   23683794.9044
     -2332.0784      -1817.2044
  -8562854.07547  -6545458.11446  21544935.8074   21544939.5454
      1052.1884        819.8864
   -872346.61845    274638.34845  23272807.9794   23272813.2754
     -1178.7344       -918.4944
 98  6 17  1 37  0.0020000  0  9G 1G 3G 8G 9G25G21G23G29G31
  -1390005.39247  -1036963.11346  20937365.2524   20937369.4004
      -934.8914       -728.4864
   8559818.20745   6650047.35045  23245406.6274   23245412.3814
     -3063.1874      -2386.8994
  -3292657.29846  -2484060.48545  23056369.0724   23056374.6624
      -527.4374       -410.9904
   6524212.63141   1856217.86041  25253479.5574   25253485.7214
     -2778.9694      -2165.4304
  -2480012.51945  -1770222.25244  24477089.5334   24477097.7054
      2692.4384       2098.0034
   2460256.81746   1914437.41746  21682819.1434   21682823.7364
     -1030.0944       -802.6704
   8972698.42245   6942175.41945  23697109.1354   23697115.3814
     -2334.1254      -1818.7994
  -8594197.08046  -6569881.19246  21538971.5414   21538975.7014
      1037.5474        808.4784
   -836699.21845    302415.55245  23279591.0184   23279596.5614
     -1197.5314       -933.1414
 98  6 17  1 37 30.0020000  0  9G 1G 3G 8G 9G25G21G23G29G31
  -1361725.22947  -1014926.61646  20942746.4554   20942750.6864
      -950.2034       -740.4184
   8651872.74645   6721778.04645  23262924.0804   23262930.2094
     -3073.5164      -2394.9474
  -3276537.67346  -2471499.74845  23059436.6434   23059441.7404
      -546.8124       -426.0884
   6607795.08442   1921347.01841  25269386.0884   25269390.7994
     -2793.0784      -2176.4254
  -2560755.89245  -1833138.95543  24461724.5254   24461731.0644
      2690.6564       2096.6154
   2491250.61246   1938588.40746  21688716.9794   21688721.6664
     -1035.8914       -807.1874
   9042758.01745   6996767.26945  23710441.0104   23710447.2914
     -2336.2974      -1820.4914
  -8625103.11846  -6593963.77346  21533090.1194   21533094.2214
      1023.2344        797.3254
   -800496.39945    330625.50545  23286480.1824   23286485.7714
     -1215.6564       -947.2654
 98  6 17  1 38  0.0020000  0  9G 1G 3G 8G 9G25G21G23G29G31
  -1332979.26647   -992527.15946  20948216.8694   20948220.9124
      -966.2504       -752.9224
   8744242.48145   6793754.39445  23280501.7214   23280507.5574
     -3084.5004      -2403.5064
  -3259837.61145  -2458486.68945  23062614.5494   23062620.8304
      -566.7034       -441.5874
   6691819.68042   1986820.75041  25285375.5884   25285388.3304
     -2808.7664      -2188.6494
  -2641443.64245  -1896012.32044  24446370.2994   24446377.3814
      2688.6564       2095.0574
   2522420.19146   1962876.38646  21694648.4794   21694653.3654
     -1042.2344       -812.1314
   9112896.63145   7051420.67945  23723788.3854   23723794.5144
     -2339.8124      -1823.2314
  -8655583.89746  -6617714.97546  21527289.8384   21527294.0804
      1008.8134        786.0884
   -763748.73445    359260.03545  23293473.3544   23293479.2254
     -1234.1724       -961.6924
 98  6 17  1 38 30.0020000  0  8G 1G 3G 8G25G21G23G29G31
  -1303759.27247   -969758.32946  20953777.2604   20953781.7954
      -981.6724       -764.9394
   8836929.89145   6865978.23845  23298139.5494   23298144.8934
     -3094.5624      -2411.3474
  -3242532.51146  -2445002.18945  23065907.5494   23065913.4434
      -586.8914       -457.3174
  -2722090.19945  -1958853.60343  24431023.7364   24431031.1114
      2687.9534       2094.5094
   2553776.65246   1987309.97946  21700615.3224   21700619.9044
     -1048.0474       -816.6604
   9183143.33345   7106158.32345  23737155.8694   23737161.7054
     -2343.1254      -1825.8124
  -8685639.63146  -6641134.98946  21521570.3694   21521574.4244
       995.0944        775.3984
   -726453.60845    388321.15845  23300570.8464   23300576.3184
     -1252.0004       -975.5844
 98  6 17  1 39  0.0020000  0  9G 1G 3G 8G15G25G21G23G29G31
  -1274067.14747   -946621.60246  20959427.1824   20959431.2254
      -997.9064       -777.5894
   8929927.53545   6938443.85345  23315836.2994   23315842.1704
     -3105.2344      -2419.6634
  -3224616.39346  -2431041.57945  23069316.8544   23069321.8344
      -607.4064       -473.3044
    -87036.91943                  24966231.8854
      3000.5314
  -2802714.98445  -2021677.90543  24415681.1044   24415689.2174
      2686.9534       2093.7304
   2585315.12446   2011885.39646  21706617.0334   21706622.0724
     -1054.5004       -821.6884
   9253494.58845   7160977.44445  23750543.2754   23750549.1354
     -2347.0164      -1828.8434
  -8715282.86446  -6664233.57246  21515929.3074   21515933.4794
       981.2194        764.5864
   -688631.84245    417792.63445  23307767.9474   23307772.7874
     -1269.2974       -989.0624
 98  6 17  1 39 30.0020000  0  9G 1G 3G 8G15G25G21G23G29G31
  -1243886.43147   -923104.15046  20965170.0644   20965174.1194
     -1014.0944       -790.2034
   9023235.01245   7011150.89445  23333592.3074   23333597.8854
     -3115.0784      -2427.3344
  -3206093.83446  -2416608.40545  23072841.7134   23072847.0104
      -627.3594       -488.8514
   -177028.70344                  24949106.5724
      2998.9534
  -2883304.49645  -2084474.72143  24400345.1974   24400351.7604
      2685.7194       2092.7684
   2617041.70946   2036607.39646  21712654.2294   21712659.4904
     -1060.5624       -826.4124
   9323968.26645   7215891.95245  23763953.8774   23763960.5214
     -2351.2034      -1832.1064
  -8744508.64946  -6687006.86646  21510367.7214   21510372.1624
       967.2034        753.6654
   -650297.82845    447663.28045  23315062.3074   23315067.6974
     -1286.2504      -1002.2734
 98  6 17  1 40  0.0020000  0  9G 1G 3G 8G15G25G21G23G29G31
  -1213227.98247   -899214.44346  20971004.6894   20971009.0724
     -1029.8124       -802.4514
   9116824.36545   7084077.57845  23351401.7214   23351407.6864
     -3124.2664      -2434.4934
  -3186968.64946  -2401705.63945  23076481.3384   23076486.7874
      -647.6724       -504.6794
   -266972.70843    -28028.02752  24931991.6114   24931997.0024
      2997.1884       2335.4714
  -2963851.86445  -2147238.67643  24385017.2754   24385023.3574
      2683.9224       2091.3684
   2648952.96646   2061473.30146  21718726.9554   21718731.9244
     -1067.0624       -831.4774
   9394557.54645   7270896.53445  23777386.9244   23777392.4904
     -2354.8594      -1834.9554
  -8773308.34346  -6709448.14846  21504887.3694   21504891.4944
       952.6254        742.3054
   -611456.35345    477929.32845  23322453.6974   23322458.5614
     -1303.2974      -1015.5564
 98  6 17  1 40 30.0020000  0  9G 1G 3G 8G15G25G21G23G29G31
  -1182106.67247   -874964.07946  20976926.7294   20976930.9714
     -1045.0944       -814.3594
   9210690.23845   7157219.73945  23369264.3224   23369270.4864
     -3133.8124      -2441.9324
  -3167237.30345  -2386330.56045  23080235.7994   23080241.1894
      -667.8124       -520.3734
   -356864.17143    -98073.33342  24914884.6974   24914891.2714
      2995.4224       2334.0954
  -3044332.23145  -2209950.50243  24369701.9634   24369709.6434
      2681.0314       2089.1154
   2681059.87946   2086491.65846  21724836.5884   21724841.1004
     -1073.4224       -836.4334
   9465249.20845   7325980.89945  23790839.0804   23790845.5724
     -2357.9844      -1837.3904
  -8801668.35746  -6731546.82246  21499490.6504   21499495.1864
       937.9384        730.8604
   -572099.08145    508597.30845  23329943.2604   23329949.1074
     -1320.7034      -1029.1194
 98  6 17  1 41  0.0020000  0  9G 1G 3G 8G15G25G21G23G29G31
  -1150525.46247   -850355.33746  20982936.5024   20982940.5574
     -1060.3914       -826.2784
   9304852.21745   7230592.60645  23387182.6504   23387189.0024
     -3143.6094      -2449.5664
  -3146905.24846  -2370487.38945  23084104.9864   23084110.6464
      -687.8124       -535.9584
   -446700.18043   -168075.35542  24897789.3774   24897796.8574
      2993.5164       2332.6104
  -3124715.43045  -2272586.53644  24354405.3614   24354411.9124
      2677.7194       2086.5344
   2713354.47746   2111656.26746  21730982.1044   21730986.8034
     -1079.6254       -841.2664
   9536029.82545   7381134.57145  23804308.1044   23804314.2094
     -2360.8754      -1839.6434
  -8829585.82646  -6753300.64546  21494177.9244   21494182.1074
       923.1094        719.3064
   -532215.30845    539675.54445  23337532.6274   23337537.4674
     -1338.3914      -1042.9024
 98  6 17  1 41 30.0020000  0  9G 1G 3G 8G15G25G21G23G29G31
  -1118495.12147   -825396.62746  20989031.6504   20989035.9394
     -1074.9534       -837.6264
   9399296.25945   7304185.29345  23405154.6824   23405161.2324
     -3152.7194      -2456.6644
  -3125978.19746  -2354180.58345  23088087.2834   23088093.2954
      -707.5474       -551.3354
   -536485.21042   -238037.72741  24880704.3694   24880710.9084
      2992.0164       2331.4414
  -3205007.09445  -2335151.28943  24339126.2834   24339132.2134
      2675.0474       2084.4524
   2745829.84846   2136961.73646  21737161.8614   21737166.9004
     -1085.6414       -845.9544
   9606893.60645   7436353.06445  23817793.4004   23817799.4824
     -2363.3914      -1841.6034
  -8857057.88846  -6774707.39946  21488950.2134   21488954.6784
       908.2974        707.7644
   -491798.17345    571169.38145  23345224.1664   23345229.3814
     -1356.3124      -1056.8674
 98  6 17  1 42  0.0020000  0  9G 1G 3G 8G15G25G21G23G29G31
  -1086025.58647   -800095.69646  20995210.3304   20995214.7604
     -1089.4694       -848.9374
   9494016.45845   7377993.15445  23423179.9714   23423186.3114
     -3161.7664      -2463.7134
  -3104448.12146  -2337403.90145  23092184.0644   23092189.3734
      -727.4224       -566.8224
   -626214.74442   -307956.80841  24863628.5024   24863633.1434
      2990.2034       2330.0284
  -3285216.49145  -2397651.87444  24323862.8384   24323869.4474
      2672.4224       2082.4074
   2778503.12146   2162421.40746  21743379.3224   21743384.5844
     -1092.2974       -851.1404
   9677830.45245   7491628.47245  23831292.1664   23831296.6664
     -2365.6094      -1843.3324
  -8884081.27046  -6795764.54646  21483807.7524   21483812.0294
       893.5474        696.2704
   -450829.32045    603093.15345  23353020.2054   23353026.4044
     -1374.7344      -1071.2224
 98  6 17  1 42 30.0020000  0  9G 1G 3G 8G15G25G21G23G29G31
  -1053117.10147   -774452.72546  21001472.7364   21001476.9674
     -1104.2344       -860.4424
   9589008.68045   7452012.98645  23441256.1504   23441261.9514
     -3170.7974      -2470.7514
  -3082329.50846  -2320168.61745  23096392.8544   23096398.2564
      -747.0314       -582.1024
   -715889.90942   -377833.47641  24846564.3854   24846570.9004
      2988.3284       2328.5674
  -3365352.89545  -2460095.60744  24308613.4324   24308620.2914
      2670.2814       2080.7394
   2811372.37146   2188033.79846  21749634.3614   21749639.2484
     -1098.7034       -856.1324
   9748845.91945   7546965.14545  23844806.0964   23844812.4824
     -2368.5474      -1845.6214
  -8910666.48346  -6816480.24946  21478748.9004   21478753.1314
       879.0474        684.9724
   -409309.78745    635445.99345  23360921.0104   23360926.8694
     -1393.0004      -1085.4554
 98  6 17  1 43  0.0020000  0  9G 1G 3G 8G15G25G21G23G29G31
  -1019758.20447   -748458.78546  21007820.5804   21007824.8114
     -1119.5164       -872.3504
   9684260.12745   7526234.82245  23459382.0334   23459388.3144
     -3178.9534      -2477.1064
  -3059622.28345  -2302474.67245  23100713.7054   23100719.4474
      -766.5314       -597.2974
   -805504.73842   -447663.21341  24829511.5494   24829516.5884
      2986.1414       2326.8634
  -3445428.07145  -2522491.66444  24293375.4164   24293381.0764
      2668.2344       2079.1444
   2844439.40446   2213800.29046  21755926.6114   21755931.6974
     -1105.6724       -861.5624
   9819956.96145   7602376.30345  23858337.8464   23858343.7874
     -2372.1094      -1848.3974
  -8936814.61046  -6836855.37746  21473772.9394   21473777.2644
       864.2814        673.4664
   -367245.73145    668223.17245  23368925.3934   23368930.6074
     -1411.1874      -1099.6274
 98  6 17  1 43 30.0020000  0  9G 1G 3G 8G15G25G21G23G29G31
   -985946.24247   -722111.81046  21014254.5884   21014258.7364
     -1134.7194       -884.1964
   9779745.93145   7600639.25245  23477552.2994   23477558.1824
     -3186.8914      -2483.2914
  -3036340.31546  -2284332.86745  23105144.6274   23105150.4284
      -785.7974       -612.3094
   -895059.38342   -517445.93641  24812469.7134   24812473.2644
      2984.0314       2325.2194
  -3525437.32945  -2584836.32343  24278149.2134   24278155.9864
      2665.6414       2077.1234
   2877714.02046   2239728.53446  21762258.6744   21762264.1584
     -1112.6254       -866.9814
   9891174.81245   7657870.67445  23871890.4714   23871896.8574
     -2375.8594      -1851.3194
  -8962523.17046  -6856887.97446  21468880.7994   21468885.1824
       849.6564        662.0704
   -324642.03945    701420.82145  23377032.7914   23377038.6044
     -1429.1094      -1113.5924
 98  6 17  1 44  0.0020000  0  9G 1G 3G 8G15G25G21G23G29G31
   -951667.79347   -695401.33346  21020777.6744   21020781.5064
     -1150.7664       -896.7004
   9875476.24945   7675234.23545  23495769.1584   23495775.7564
     -3195.4374      -2489.9514
  -3012474.84345  -2265736.38945  23109685.6824   23109691.2364
      -805.3284       -627.5284
   -984548.32042   -587177.54041  24795440.4084   24795449.1074
      2981.7194       2323.4174
  -3605362.31145  -2647115.33544  24262940.1824   24262945.9594
      2662.4694       2074.6514
   2911186.86546   2265811.25746  21768628.4324   21768633.6114
     -1118.8284       -871.8144
   9962509.02945   7713455.72945  23885464.6664   23885470.3384
     -2379.9844      -1854.5334
  -8987798.10246  -6876582.68546  21464070.9944   21464074.9554
       835.2664        650.8564
   -281506.28945    735033.07145  23385241.7214   23385246.6894
     -1446.5944      -1127.2164
 98  6 17  1 44 30.0020000  0  9G 1G 3G 8G15G25G21G23G29G31
   -916904.48347   -668313.04946  21027393.1354   21027397.3184
     -1166.9064       -909.2784
   9971473.68245   7750037.34245  23514037.2054   23514043.7214
     -3204.6094      -2497.0984
  -2988024.06046  -2246683.82645  23114339.4004   23114344.9554
      -825.1414       -642.9674
  -1073969.84343   -656856.58142  24778423.9164   24778428.3814
      2979.4694       2321.6644
  -3685189.37045  -2709318.03944  24247750.0804   24247756.5614
      2659.1094       2072.0334
   2944826.69746   2292024.09846  21775029.9244   21775034.9514
     -1124.0784       -875.9054
  10033968.88745   7769138.69345  23899063.1894   23899069.4474
     -2384.1724      -1857.7964
  -9012648.92846  -6895946.92346  21459341.8544   21459345.8504
       821.2194        639.9114
   -237856.69545    769045.71545  23393547.5184   23393553.3894
     -1463.6254      -1140.4874
 98  6 17  1 45  0.0020000  0  9G 1G 3G 8G15G25G21G23G29G31
   -881661.56747   -640851.03946  21034099.5644   21034103.6544
     -1182.8594       -921.7094
  10067740.35745   7825050.27645  23532355.7214   23532362.5414
     -3213.5004      -2504.0264
  -2962976.93946  -2227166.57745  23119104.9944   23119109.7524
      -844.9224       -658.3814
  -1163328.55743   -726486.72841  24761419.3074   24761425.5644
      2977.5474       2320.1664
  -3764916.66345  -2771443.01044  24232578.3464   24232584.4984
      2655.8134       2069.4644
   2978619.32646   2318355.99946  21781460.4324   21781465.1314
     -1129.0944       -879.8134
  10105538.83545   7824907.41345  23912682.4324   23912688.8304
     -2387.3914      -1860.3044
  -9037082.90046  -6914986.34846  21454692.5024   21454696.5334
       807.5004        629.2214
   -193704.64245    803449.88645  23401949.1664   23401954.5104
     -1480.1094      -1153.3324
 98  6 17  1 45 30.0020000  0  9G 1G 3G 8G15G25G21G23G29G31
   -845938.18646   -613014.64646  21040897.4944   21040901.7604
     -1198.5944       -933.9694
  10164291.30545   7900284.71145  23550728.6824   23550735.6354
     -3223.1564      -2511.5504
  -2937318.05346  -2207172.65445  23123987.9244   23123993.8074
      -865.6724       -674.5504
  -1252619.67143   -796064.16242  24744427.9554   24744433.9324
      2975.2974       2318.4134
  -3844539.63545  -2833486.71544  24217426.4244   24217432.7174
      2652.7034       2067.0414
   3012568.62046   2344809.97346  21787920.6584   21787925.7324
     -1134.0784       -883.6974
  10177208.69545   7880753.99444  23926320.4244   23926327.0104
     -2390.4064      -1862.6544
  -9061101.32946  -6933701.96446  21450121.9164   21450125.9124
       793.9384        618.6534
   -149052.91145    838243.43045  23410446.2604   23410451.9204
     -1496.4694      -1166.0804
 98  6 17  1 46  0.0020000  0  9G 1G 3G 8G15G25G21G23G29G31
   -809736.87946   -584805.84046  21047786.1744   21047790.3464
     -1214.3124       -946.2184
  10261138.11845   7975749.68545  23569158.3694   23569164.6624
     -3232.8444      -2519.0994
  -2911028.49646  -2186687.26545  23128990.6894   23128996.3034
      -886.5004       -690.7794
  -1341835.57443   -865583.03242  24727451.6114   24727458.2094
      2972.7974       2316.4654
  -3924074.11545  -2895461.43545  24202291.0334   24202297.5614
      2649.9064       2064.8624
   3046678.90246   2371389.38846  21794411.7604   21794416.6824
     -1139.6564       -888.0444
  10248965.04045   7936667.97944  23939975.2914   23939981.2914
     -2392.8594      -1864.5664
  -9084705.42146  -6952094.72346  21445630.0724   21445634.0334
       779.9844        607.7804
   -103903.58345    873424.71945  23419037.7684   23419043.4044
     -1513.1414      -1179.0714
 98  6 17  1 46 30.0020000  0  9G 1G 3G 8G15G25G21G23G29G31
   -773085.24647   -556246.12646  21054761.1274   21054764.8654
     -1229.0314       -957.6874
  10358256.26945   8051426.10445  23587639.6044   23587645.8034
     -3241.4534      -2525.8084
  -2884117.66046  -2165717.76845  23134111.5884   23134117.6584
      -907.5944       -707.2164
  -1430983.11343   -935048.58842  24710487.0024   24710494.6114
      2970.3594       2314.5664
  -4003526.62345  -2957372.26845  24187171.6744   24187177.6154
      2646.9844       2062.5854
   3080962.19046   2398103.62246  21800935.8224   21800940.7564
     -1146.1094       -893.0724
  10320781.69145   7992628.96844  23953641.9714   23953647.6664
     -2394.8914      -1866.1494
  -9107892.28446  -6970162.36346  21441217.7914   21441221.7874
       765.6884        596.6404
    -58257.95445    908992.73945  23427724.0334   23427729.7054
     -1529.9374      -1192.1594
 98  6 17  1 47  0.0020000  0  9G 1G 3G 8G15G25G21G23G29G31
   -735988.69146   -527339.72746  21061820.1044   21061824.3344
     -1244.2194       -969.5214
  10455623.22645   8127296.39945  23606167.5724   23606174.5724
     -3249.7814      -2532.2974
  -2856571.09246  -2144252.90645  23139353.7604   23139359.3264
      -928.8594       -723.7874
  -1520052.10643  -1004452.99042  24693537.5024   24693543.0104
      2967.4534       2312.3014
  -4082885.88845  -3019210.44745  24172069.6504   24172075.0064
      2643.4694       2059.8464
   3115457.33346   2424982.94746  21807499.9004   21807504.9044
     -1153.6414       -898.9414
  10392658.63545   8048636.91645  23967319.7994   23967325.3424
     -2397.0164      -1867.8044
  -9130639.83146  -6987887.69046  21436888.9714   21436892.4984
       750.7664        585.0124
    -12103.92245    944956.87545  23436506.9554   23436512.4864
     -1547.1254      -1205.5524
 98  6 17  1 47 30.0020000  0  9G 1G 3G 8G15G25G21G23G29G31
   -698449.24146   -498088.20846  21068963.7134   21068968.0724
     -1258.4224       -980.5884
  10553232.50945   8203355.51045  23624742.0964   23624748.6824
     -3257.3754      -2538.2144
  -2828396.43946  -2122298.60645  23144715.2444   23144720.6114
      -949.2344       -739.6634
  -1609036.47444  -1073791.41742  24676603.7914   24676609.6624
      2964.9534       2310.3534
  -4162138.38545  -3080965.46544  24156988.2134   24156993.8384
      2640.1724       2057.2774
   3150170.80846   2452032.39846  21814105.5494   21814110.4364
     -1160.4694       -904.2614
  10464598.17045   8104693.62845  23981009.1974   23981015.2324
     -2398.8284      -1869.2174
  -9152942.36946  -7005266.25346  21432644.9164   21432648.9364
       736.1254        573.6044
     34564.00445    981321.49745  23445387.2754   23445392.4674
     -1564.0164      -1218.7134
 98  6 17  1 48  0.0020000  0  9G 1G 3G 8G15G25G21G23G29G31
   -660476.47246   -468499.04046  21076189.5254   21076194.1894
     -1273.0004       -991.9484
  10651062.71245   8279586.75045  23643358.9714   23643365.0644
     -3264.5004      -2543.7664
  -2799618.11446  -2099873.92945  23150191.2834   23150197.0254
      -969.1414       -755.1754
  -1697944.11044  -1143070.05742  24659686.2604   24659693.7174
      2962.2974       2308.2834
  -4241286.78945  -3142639.33645  24141926.9554   24141934.2364
      2636.3444       2054.2944
   3185091.62146   2479243.40946  21820750.9554   21820756.4284
     -1167.4844       -909.7284
  10536597.02645   8160796.58645  23994710.4004   23994716.7874
     -2401.0784      -1870.9704
  -9174799.12046  -7022297.44846  21428485.7834   21428489.9324
       721.0634        561.8674
     81743.58545   1018084.77445  23454365.5494   23454370.2604
     -1581.2034      -1232.1064
 98  6 17  1 48 30.0020000  0  9G 1G 3G 8G15G25G21G23G29G31
   -622071.58546   -438573.15046  21083497.8224   21083501.9944
     -1287.4224      -1003.1864
  10749096.08345   8355976.30945  23662013.9004   23662020.7834
     -3271.1564      -2548.9534
  -2770250.65646  -2076990.19745  23155780.0494   23155785.5684
      -988.6724       -770.3944
  -1786775.19443  -1212289.06142  24642782.2524   24642788.4394
      2959.7194       2306.2744
  -4320318.51245  -3204222.31744  24126887.4084   24126893.2794
      2632.4844       2051.2874
   3220215.15446   2506612.38946  21827434.6744   21827439.5374
     -1174.1094       -914.8904
  10608669.06445   8216956.58045  24008424.9794   24008430.9554
     -2403.8284      -1873.1134
  -9196212.73046  -7038983.34146  21424410.8304   21424414.5804
       706.5634        550.5684
    129428.58645   1055241.90345  23463439.5574   23463445.7094
     -1597.7504      -1245.0004
 98  6 17  1 49  0.0020000  0  9G 1G 3G 8G15G25G21G23G29G31
   -583230.22446   -408307.15046  21090889.1744   21090893.5454
     -1302.1414      -1014.6554
  10847335.26045   8432526.24945  23680708.5414   23680714.6824
     -3278.2504      -2554.4814
  -2740302.63646  -2053654.06245  23161478.8304   23161484.3144
     -1007.8914       -785.3694
  -1875526.35743  -1281445.78642  24625892.4394   24625896.6114
      2956.8444       2304.0344
  -4399238.72545  -3265718.37645  24111869.6664   24111874.9864
      2628.8284       2048.4384
   3255531.82046   2534131.85246  21834155.2214   21834160.2954
     -1180.3444       -919.7484
  10680828.36445   8273184.52545  24022156.6434   24022162.2684
     -2406.9374      -1875.5364
  -9217199.28846  -7055336.46746  21420417.3224   21420420.8964
       692.5784        539.6714
    177611.04145   1092786.66545  23472608.2914   23472613.5764
     -1614.5474      -1258.0884
 98  6 17  1 49 30.0020000  0  9G 1G 3G 8G15G25G21G23G29G31
   -543954.45746   -377702.65246  21098363.0964   21098367.3614
     -1316.7504      -1026.0394
  10945782.32745   8509238.15345  23699442.4714   23699448.8814
     -3285.2664      -2559.9474
  -2709783.89645  -2029873.21245  23167286.2214   23167291.2714
     -1027.1724       -800.3944
  -1964190.95843  -1350535.01642  24609020.2294   24609025.5374
      2953.7194       2301.5994
  -4478060.81545  -3327138.00144  24096869.8934   24096876.2214
      2625.6254       2045.9424
   3291030.10446   2561792.84646  21840910.3774   21840915.1234
     -1186.5784       -924.6064
  10753088.40245   8329491.01444  24035907.1434   24035913.3544
     -2410.9374      -1878.6534
  -9237773.60246  -7071368.37046  21416501.9714   21416505.8384
       678.6724        528.8354
    226297.57745   1130724.19645  23481873.3464   23481879.4284
     -1631.6564      -1271.4204
 98  6 17  1 50  0.0020000  0  9G 1G 3G 8G15G25G21G23G29G31
   -504235.42946   -346752.75746  21105921.2834   21105925.2794
     -1331.3124      -1037.3864
  11044437.52045   8586112.23645  23718215.6894   23718221.6784
     -3291.9064      -2565.1224
  -2678681.29046  -2005637.40845  23173204.7994   23173210.8344
     -1046.6414       -815.5644
  -2052761.80643  -1419551.20542  24592165.9004   24592171.4904
      2950.7344       2299.2744
  -4556792.29945  -3388487.04744  24081887.7444   24081893.9324
      2622.7974       2043.7384
   3326711.73946   2589596.70246  21847700.5024   21847705.0844
     -1192.4374       -929.1724
  10825475.14145   8385896.17744  24049682.3934   24049688.2644
     -2415.1564      -1881.9404
  -9257942.42946  -7087084.30646  21412664.0644   21412667.8734
       665.5634        518.6204
    275493.60645   1169058.73645  23491235.1504   23491240.8814
     -1648.2504      -1284.3514
 98  6 17  1 50 30.0020000  0  9G 1G 3G 8G15G25G21G23G29G31
   -464083.46346   -315465.50346  21113562.1434   21113566.1974
     -1345.4844      -1048.4294
  11143296.32245   8663144.99845  23737028.0964   23737033.9434
     -3298.7664      -2570.4674
  -2646987.57945  -1980941.00045  23179235.8544   23179241.9124
     -1066.4374       -830.9904
  -2141239.40643  -1488494.66442  24575328.3854   24575337.2134
      2947.7344       2296.9364
  -4635429.78645  -3449762.85745  24066923.9944   24066929.9124
      2619.7344       2041.3514
   3362572.04046   2617539.77446  21854524.4714   21854529.2874
     -1198.2814       -933.7264
  10897990.48645   8442401.58844  24063481.5574   24063487.7914
     -2419.1874      -1885.0814
  -9277714.77847  -7102491.29146  21408901.5644   21408904.9864
       652.5634        508.4904
    325185.84245   1207779.92145  23500691.3544   23500696.7564
     -1664.5624      -1297.0624
 98  6 17  1 51  0.0020000  0  9G 1G 3G 8G15G25G21G23G29G31
   -423502.52046   -283843.98846  21121284.2364   21121288.7604
     -1359.8754      -1059.6434
  11242367.63845   8740343.35345  23755880.6584   23755886.6234
     -3305.8754      -2576.0064
  -2614694.78445  -1955777.79445  23185381.0254   23185386.2644
     -1086.2974       -846.4654
  -2229624.40543  -1557366.05342  24558509.9634   24558517.3264
      2944.6254       2294.5134
  -4713978.00345  -3510969.10145  24051976.1354   24051981.9004
      2616.7504       2039.0264
   3398608.70346   2645620.27646  21861381.9794   21861386.8544
     -1204.1724       -938.3164
  10970624.10545   8498999.11444  24077303.2604   24077309.2134
     -2422.9694      -1888.0284
  -9297093.89646  -7117591.87446  21405213.5494   21405217.0414
       639.2034        498.0804
    375372.64345   1246886.49445  23510241.4474   23510246.9324
     -1681.2034      -1310.0284
 98  6 17  1 51 30.0020000  0  9G 1G 3G 8G15G25G21G23G29G31
   -382480.47646   -251878.76146  21129090.4244   21129095.1704
     -1374.4064      -1070.9664
  11341661.17945   8817714.87945  23774775.2134   23774781.8224
     -3313.2664      -2581.7654
  -2581797.53445  -1930143.55845  23191641.2834   23191647.0964
     -1106.4224       -862.1474
  -2317909.11143  -1626159.22742  24541708.9084   24541714.9904
      2941.5004       2292.0784
  -4792417.11245  -3572090.30945  24037049.5104   24037055.3574
      2612.7814       2035.9334
   3434832.83046   2673846.85446  21868275.2134   21868279.9944
     -1210.3124       -943.1014
  11043378.41545   8555690.73145  24091147.8774   24091153.7364
     -2426.8594      -1891.0594
  -9316055.73846  -7132367.30246  21401605.1044   21401608.8074
       625.1884        487.1594
    426059.95945   1286383.05045  23519887.0884   23519893.2524
     -1697.4064      -1322.6544
 98  6 17  1 52  0.0020000  0  9G 1G 3G 8G15G25G21G23G29G31
   -341021.56046   -219573.10646  21136979.6274   21136983.9284
     -1389.3284      -1082.5934
  11441181.15345   8895262.81645  23793713.8464   23793720.4084
     -3321.1724      -2587.9264
  -2548292.38245  -1904035.67145  23198017.3774   23198022.7564
     -1126.9534       -878.1454
  -2406099.91343  -1694879.29842  24524928.3694   24524934.2524
      2938.0314       2289.3754
  -4870728.22845  -3633111.81045  24022147.5884   24022153.2254
      2608.0634       2032.2564
   3471243.62946   2702218.89546  21875203.9634   21875208.4864
     -1217.0944       -948.3854
  11116238.68045   8612464.88944  24105013.2294   24105019.7324
     -2430.1724      -1893.6404
  -9334585.78246  -7146806.26346  21398079.2524   21398083.1434
       610.1414        475.4344
    477225.89445   1326252.56745  23529623.8544   23529628.8934
     -1713.3754      -1335.0974
 98  6 17  1 52 30.0020000  0  9G 1G 3G 8G15G25G21G23G29G31
   -299127.90046   -186928.68846  21144952.0574   21144956.4514
     -1403.8284      -1093.8924
  11540926.23145   8972986.17745  23812694.1584   23812700.6274
     -3328.6094      -2593.7224
  -2514183.87045  -1877457.60445  23204507.8854   23204513.2994
     -1147.0314       -893.7914
  -2494192.66043  -1763522.87842  24508163.9864   24508170.2214
      2934.7194       2286.7944
  -4948900.95245  -3694025.46545  24007271.6974   24007277.4754
      2603.3754       2028.6044
   3507854.39046   2730746.74446  21882170.5414   21882175.1584
     -1223.8124       -953.6204
  11189178.71445   8669301.19844  24118893.3464   24118899.4394
     -2432.6254      -1895.5524
  -9352662.26846  -7160891.79946  21394639.3074   21394643.1504
       594.9384        463.5884
    528859.80945   1366486.74145  23539449.1974   23539454.6234
     -1729.0784      -1347.3344
 98  6 17  1 53  0.0020000  0  9G 1G 3G 8G15G25G21G23G29G31
   -256787.58846   -153936.23346  21153008.7914   21153013.1624
     -1418.6724      -1105.4594
  11640894.23445   9050883.24345  23831718.2364   23831724.4244
     -3335.6414      -2599.2004
  -2479467.15045  -1850405.60445  23211113.9944   23211119.1154
     -1167.1874       -909.4974
  -2582179.42244  -1832083.88342  24491421.2524   24491426.3854
      2931.1884       2284.0424
  -5026930.20645  -3754827.34545  23992422.8694   23992428.5294
      2598.5944       2024.8784
   3544673.40046   2759436.86746  21889177.1824   21889182.1624
     -1230.6564       -958.9534
  11262200.98545   8726201.60844  24132789.1274   24132794.3774
     -2435.4694      -1897.7684
  -9370274.66046  -7174615.70546  21391287.9084   21391292.0684
       579.2664        451.3764
    580973.59945   1407094.84445  23549366.0494   23549371.8614
     -1745.0784      -1359.8014
 98  6 17  1 53 30.0020000  0  9G 1G 3G 8G15G25G21G23G29G31
   -214016.29446   -120607.94746  21161148.1114   21161152.2604
     -1432.9694      -1116.5994
  11741054.15245   9128929.86145  23850778.0884   23850784.1584
     -3341.6414      -2603.8764
  -2444150.20045  -1822885.90545  23217834.4394   23217839.6784
     -1187.4224       -925.2644
  -2670068.18244  -1900568.54442  24474695.9164   24474699.8894
      2927.9064       2281.4854
  -5104817.88745  -3815518.90045  23977601.1114   23977607.3814
      2593.9224       2021.2384
   3581692.16346   2788282.64046  21896221.5334   21896226.0924
     -1237.4064       -964.2134
  11335303.11545   8783164.24343  24146699.7604   24146705.8304
     -2438.1874      -1899.8864
  -9387426.21046  -7187980.51546  21388023.7754   21388027.4674
       564.1414        439.5904
    633552.41645   1448065.31145  23559371.5494   23559377.1624
     -1760.2814      -1371.6484
 98  6 17  1 54  0.0020000  0  9G 1G 3G 8G15G25G21G23G29G31
   -170813.64446    -86943.53846  21169369.3774   21169373.7484
     -1447.5624      -1127.9714
  11841386.56245   9207110.86245  23869870.7134   23869877.6314
     -3347.4694      -2608.4174
  -2408222.21546  -1794890.07545  23224671.4394   23224676.8544
     -1208.1254       -941.3964
  -2757853.74544  -1968972.82142  24457990.9714   24457997.0064
      2924.0784       2278.5024
  -5182575.09745  -3876108.81945  23962804.2834   23962810.6824
      2589.6564       2017.9144
   3618915.10246   2817287.50846  21903304.7994   21903309.6974
     -1244.5164       -969.7524
  11408485.85345   8840189.68543  24160626.0644   24160632.4514
     -2441.0164      -1902.0904
  -9404127.20446  -7200994.24146  21384845.7134   21384850.0254
       549.0634        427.8414
    686595.66245   1489397.64345  23569465.3694   23569471.1704
     -1776.3284      -1384.1524
 98  6 17  1 54 30.0020000  0  9G 1G 3G 8G15G25G21G23G29G31
   -127186.85747    -52948.63446  21177671.5024   21177675.5214
     -1461.3284      -1138.6974
  11941881.65945   9285418.66845  23888994.0024   23889001.5764
     -3352.6874      -2612.4844
  -2371681.91946  -1766417.12645  23231624.9324   23231630.5804
     -1228.3444       -957.1514
  -2845529.45744  -2037291.44543  24441306.5494   24441313.2874
      2920.5944       2275.7874
  -5260209.16945  -3936602.75145  23948031.2294   23948037.5454
      2585.6414       2014.7854
   3656338.61846   2846448.67946  21910426.3694   21910431.5964
     -1250.6874       -974.5624
  11481752.17245   8897280.24944  24174568.3614   24174573.5414
     -2443.9374      -1904.3674
  -9420400.53046  -7213674.72746  21381748.9864   21381753.3574
       535.5164        417.2854
    740122.22645   1531106.58245  23579651.1664   23579656.5334
     -1792.5784      -1396.8144
 98  6 17  1 55  0.0020000  0  9G 1G 3G 8G15G25G21G23G29G31
    -83132.69647    -18620.71446  21186054.5104   21186058.8574
     -1475.7344      -1149.9234
  12042550.57045   9363861.87944  23908150.9084   23908156.9324
     -3358.7814      -2617.2324
  -2334524.41146  -1737463.22545  23238695.6114   23238700.5574
     -1249.0624       -973.2954
  -2933089.33344  -2105519.85343  24424645.1274   24424651.0214
      2916.5474       2272.6344
  -5337714.69145  -3996996.52045  23933282.0024   23933288.0494
      2581.1564       2011.2914
   3693959.13146   2875763.34646  21917585.2684   21917590.4714
     -1257.4224       -979.8094
  11555123.18745   8954452.43444  24188529.6974   24188535.4394
     -2447.7034      -1907.3014
  -9436267.86246  -7226038.84646  21378729.6274   21378733.7404
       522.2344        406.9364
    794145.83145   1573202.84645  23589931.8544   23589937.5024
     -1809.0944      -1409.6834
 98  6 17  1 55 30.0020000  0  9G 1G 3G 8G15G25G21G23G29G31
    -38651.43347     16040.01246  21194519.0574   21194523.4394
     -1489.7194      -1160.8204
  12143406.59045   9442450.89245  23927343.2444   23927349.7014
     -3365.0624      -2622.1274
  -2296749.56746                  23245884.0494
     -1269.2504
  -3020529.84444  -2173655.24743  24408005.3614   24408012.8184
      2912.8444       2269.7484
  -5415085.45045  -4057285.30745  23918558.8544   23918564.8304
      2576.9844       2008.0404
   3731775.81546   2905230.87446  21924781.7054   21924786.7444
     -1263.6564       -984.6674
  11628603.84345   9011710.01144  24202512.9244   24202518.4904
     -2450.9694      -1909.8464
  -9451749.90046  -7238102.73646  21375783.1044   21375786.8544
       510.0784        397.4634
    848657.53545   1615679.42245  23600304.9164   23600310.0724
     -1824.8444      -1421.9564
 98  6 17  1 56  0.0020000  0  9G 1G 3G 8G15G25G21G23G29G31
      6247.99747     51026.58346  21203062.9324   21203067.2094
     -1503.1724      -1171.3034
  12244465.60045   9521198.11345  23946573.9394   23946580.7604
     -3372.0624      -2627.5814
  -2258371.85046      8017.42855  23253187.0334   23253193.0334
     -1289.0474      -1004.4524
  -3107857.31343  -2241702.57043  24391387.0644   24391394.4634
      2909.2194       2266.9244
  -5492327.65945  -4117473.90645  23903859.9084   23903865.7444
      2572.6724       2004.6794
   3769779.01846   2934843.74546  21932013.2524   21932018.2444
     -1269.6094       -989.3064
  11702184.24545   9069045.30044  24216515.0644   24216521.2644
     -2454.2194      -1912.3784
  -9466861.90646  -7249878.29346  21372907.6274   21372911.3544
       497.6564        387.7844
    903647.69145   1658528.85445  23610769.2134   23610775.1544
     -1840.8284      -1434.4124
 98  6 17  1 56 30.0020000  0  9G 1G 3G 8G15G25G21G23G29G31
     51550.57347     86327.28646  21211683.7444   21211687.9754
     -1516.9224      -1182.0174
  12345744.12345   9600116.34245  23965847.5804   23965854.0724
     -3379.7194      -2633.5474
  -2219405.63645     38380.72045  23260602.0254   23260607.6394
     -1308.6094      -1019.6964
  -3195073.63143  -2309663.27842  24374790.0804   24374796.4674
      2905.3134       2263.8804
  -5569424.64445  -4177549.32845  23889188.8464   23889194.6354
      2567.2034       2000.4184
   3807963.06246   2964597.52646  21939279.3694   21939284.5844
     -1275.9374       -994.2374
  11775872.07345   9126464.30544  24230537.0804   24230543.6434
     -2458.2344      -1915.5074
  -9481595.55546  -7261359.02946  21370103.6274   21370107.6824
       484.4694        377.5084
    959113.23145   1701748.69345  23621324.0494   23621329.9794
     -1856.7034      -1446.7824
 98  6 17  1 57  0.0020000  0  9G 1G 3G 8G15G25G21G23G29G31
     97272.43247    121954.70446  21220384.4474   21220388.9594
     -1530.9224      -1192.9264
  12447248.80245   9679210.81745  23985162.7604   23985170.1004
     -3387.0164      -2639.2334
  -2179848.71745     69204.27845  23268129.2364   23268134.6744
     -1328.4224      -1035.1344
  -3282171.02243  -2377531.31642  24358216.0104   24358221.4944
      2901.2974       2260.7514
  -5646356.18745  -4237495.85845  23874549.2364   23874555.4364
      2561.6094       1996.0594
   3846345.91446   2994506.22446  21946583.5024   21946588.9754
     -1282.7344       -999.5334
  11849681.19545   9183977.86644  24244582.8854   24244589.3544
     -2462.2344      -1918.6244
  -9495917.54746  -7272518.98346  21367378.5494   21367382.9554
       470.3134        366.4774
   1015044.75945   1745331.63845  23631967.6114   23631973.4004
     -1871.8594      -1458.5924
 98  6 17  1 57 30.0020000  0  9G 1G 3G 8G15G25G21G23G29G31
    143405.61947    157902.64246  21229163.3304   21229167.4794
     -1544.4844      -1203.4944
  12548969.20545   9758473.35444  24004519.8854   24004526.0144
     -3393.9844      -2644.6634
  -2139696.88545    100491.39345  23275770.1114   23275775.9474
     -1348.1724      -1050.5244
  -3369142.73144  -2445301.42743  24341666.2994   24341671.4084
      2896.9844       2257.3904
  -5723114.17545  -4297307.14145  23859942.4794   23859948.8184
      2555.9224       1991.6274
   3884936.01846   3024576.41946  21953926.9554   21953931.7254
     -1289.8594      -1005.0854
  11923613.09045   9241587.05144  24258651.7524   24258657.7054
     -2466.2814      -1921.7784
  -9509790.76946  -7283329.25846  21364738.5184   21364742.9244
       454.5944        354.2294
   1071435.96445   1789272.79645  23642698.5724   23642704.3144
     -1887.3594      -1470.6704
 98  6 17  1 58  0.0020000  0  9G 1G 3G 8G15G25G21G23G29G31
    189941.77547    194164.58246  21238018.9004   21238023.2834
     -1557.5474      -1213.6734
  12650883.09445   9837886.71344  24023912.9794   24023919.0614
     -3399.8914      -2649.2654
  -2098955.06645    132238.26845  23283522.9554   23283528.4284
     -1367.7034      -1065.7434
  -3455984.04644  -2512969.93943  24325140.5104   24325146.4394
      2892.6884       2254.0424
  -5799705.92045  -4356988.89145  23845367.4714   23845373.1074
      2550.4534       1987.3664
   3923738.05346   3054811.75146  21961310.8934   21961316.0724
     -1296.4844      -1010.2484
  11997661.18945   9299286.83644  24272742.7294   24272749.8464
     -2469.9224      -1924.6144
  -9523179.83746  -7293762.26346  21362190.4554   21362194.5104
       438.3754        341.5914
   1128297.14945   1833580.16045  23653518.6504   23653524.0884
     -1903.1094      -1482.9424
 98  6 17  1 58 30.0020000  0  9G 1G 3G 8G15G25G21G23G29G31
    236866.72947    230729.47246  21246948.2604   21246952.7134
     -1571.0944      -1224.2294
  12752957.00845   9917424.71644  24043337.4554   24043344.8544
     -3405.1874      -2653.3934
  -2057627.64545    164441.43045  23291387.5104   23291392.8424
     -1387.7664      -1081.3764
  -3542699.38645  -2580540.30043  24308639.4084   24308644.9634
      2888.1094       2250.4754
  -5876142.80945  -4416549.95445  23830821.9944   23830827.9714
      2545.2034       1983.2754
   3962727.55546   3085193.16446  21968730.3304   21968735.5454
     -1302.9534      -1015.2884
  12071808.56745   9357063.91544  24286853.0334   24286859.0574
     -2473.3594      -1927.2934
  -9536097.44946  -7303827.90546  21359732.2054   21359736.2604
       422.6254        329.3184
   1185617.61545   1878245.41645  23664426.8224   23664432.5534
     -1918.4694      -1494.9114
 98  6 17  1 59  0.0020000  0  9G 1G 3G 8G15G25G21G23G29G31
    284191.84947    267606.18146  21255954.1434   21255958.6194
     -1584.3444      -1234.5544
  12855172.57645   9997073.12044  24062788.4004   24062795.6934
     -3409.6874      -2656.8994
  -2015699.95945    197112.34845  23299366.2604   23299371.8964
     -1407.8594      -1097.0334
  -3629287.02044  -2648011.15843  24292162.2444   24292168.9594
      2883.8754       2247.1754
  -5952442.93845  -4476004.47445  23816302.3934   23816308.2174
      2540.9844       1979.9884
   4001897.86846   3115715.47146  21976184.1194   21976189.0064
     -1308.8124      -1019.8544
  12146043.56545   9414909.29543  24300978.9474   24300984.9474
     -2476.1094      -1929.4364
  -9548559.50746  -7313538.56646  21357360.7214   21357364.9514
       407.7344        317.7154
   1243385.51245   1923259.31545  23675419.5024   23675424.9514
     -1933.2034      -1506.3924
 98  6 17  1 59 30.0020000  0  9G 1G 3G 8G15G25G21G23G29G31
    331912.18147    304790.85246  21265034.8854   21265039.0684
     -1597.3914      -1244.7204
  12957521.74145  10076825.62044  24082264.8464   24082271.9164
     -3413.9224      -2660.1994
  -1973173.46545    230249.85445  23307458.5964   23307464.2794
     -1427.5004      -1112.3384
  -3715745.99745  -2715381.76543  24275709.6664   24275715.5614
      2879.7974       2243.9984
  -6028618.57445  -4535361.97245  23801806.5574   23801812.7094
      2537.1414       1976.9934
   4041238.74846   3146370.69546  21983670.4474   21983675.2644
     -1314.2034      -1024.0544
  12220355.92645   9472814.92443  24315119.9394   24315125.7754
     -2478.2974      -1931.1404
  -9560581.02446  -7322905.95246  21355073.2524   21355076.9554
       393.6564        306.7454
   1301599.76345   1968621.01145  23686497.6194   23686503.4434
     -1948.0784      -1517.9834
 98  6 17  2  0  0.0020000  0  9G 1G 3G 8G15G25G21G23G29G31
    380038.53647    342291.90146  21274192.9394   21274197.3224
     -1611.1254      -1255.4224
  13060012.44245  10156688.39844  24101768.2524   24101774.1704
     -3419.0004      -2664.1564
  -1930047.57545    263854.44045  23315665.2604   23315671.4474
     -1447.7814      -1128.1414
  -3802069.86144  -2782647.10243  24259282.8464   24259289.1044
      2874.9694       2240.2354
  -6104657.63845  -4594613.07145  23787336.5644   23787342.7994
      2531.7974       1972.8294
   4080756.03946   3177163.36646  21991190.3854   21991195.4714
     -1320.4534      -1028.9254
  12294743.57045   9530779.27543  24329275.6044   24329281.7564
     -2481.0944      -1933.3204
  -9572188.56546  -7331950.75946  21352864.3384   21352868.3224
       380.1564        296.2264
   1360268.49745   2014336.87845  23697661.7914   23697667.5334
     -1963.2974      -1529.8424
 98  6 17  2  0 30.0020000  0  9G 1G 3G 8G15G25G21G23G29G31
    428570.39946    380108.93346  21283428.5644   21283433.1234
     -1624.5004      -1265.8444
  13162648.21545  10236664.24944  24121299.0644   24121304.3384
     -3423.5314      -2667.6874
  -1886316.85345    297930.28145  23323986.8144   23323992.2294
     -1467.6254      -1143.6044
  -3888258.27644  -2849806.87542  24242880.9004   24242886.1974
      2870.8594       2237.0334
  -6180536.24345  -4653739.12045  23772897.1584   23772903.2874
      2526.6254       1968.7994
   4120459.22746   3208100.90146  21998745.5724   21998750.7174
     -1326.7194      -1033.8074
  12369211.07345   9588805.81343  24343446.3934   24343451.9364
     -2483.4374      -1935.1464
  -9583411.16746  -7340695.61946  21350728.8694   21350732.6664
       367.8594        286.6444
   1419375.52445   2060394.24245  23708909.4864   23708915.3464
     -1977.3124      -1540.7634
 98  6 17  2  1  0.0020000  0  9G 1G 3G 8G15G25G21G23G29G31
    477512.28547    418245.45946  21292741.7684   21292746.3144
     -1637.7194      -1276.1444
  13265432.77545  10316755.99143  24140858.8614   24140864.6274
     -3428.2504      -2671.3644
  -1841982.48845    332476.52645  23332423.4864   23332429.4634
     -1487.3914      -1159.0064
  -3974310.89944  -2916860.85243  24226505.7754   24226511.8694
      2866.4224       2233.5754
  -6256235.94945  -4712725.76645  23758492.0334   23758498.0454
      2520.4064       1963.9534
   4160372.59946   3239202.22046  22006341.0104   22006345.9084
     -1333.8594      -1039.3714
  12443765.49545   9646900.08643  24357633.8464   24357640.0104
     -2486.4844      -1937.5204
  -9594244.07246  -7349136.81746  21348667.2364   21348671.1504
       354.7034        276.3924
   1478923.23745   2106795.01445  23720240.8384   23720246.8734
     -1992.1724      -1552.3424
 98  6 17  2  1 30.0020000  0  9G 1G 3G 8G15G25G21G23G29G31
    526844.47547    456686.11746  21302129.4474   21302133.8304
     -1651.0474      -1286.5304
  13368360.31645  10396959.16944  24160445.1824   24160451.8144
     -3433.5784      -2675.5154
  -1797055.53245    367484.52645  23340972.9944   23340978.3384
     -1507.6874      -1174.8214
  -4060224.43344  -2983806.42843  24210157.7364   24210163.3384
      2861.2034       2229.5094
  -6331733.59945  -4771554.96845  23744125.5104   23744131.2644
      2512.7664       1957.9994
   4200508.99346   3270477.32246  22013978.6114   22013983.6044
     -1341.8284      -1045.5804
  12518415.77045   9705069.02143  24371839.9634   24371846.4794
     -2490.2194      -1940.4304
  -9604675.62546  -7357265.27446  21346682.4244   21346686.2444
       340.8914        265.6294
   1538928.82045   2153552.57845  23731659.7444   23731665.3574
     -2008.1254      -1564.7734
 98  6 17  2  2  0.0020000  0  9G 1G 3G 8G15G25G21G23G29G31
    576556.74647    495422.94246  21311589.3544   21311593.4324
     -1663.4534      -1296.1974
  13471429.84645  10477272.96944  24180058.6504   24180065.0844
     -3438.0314      -2678.9854
  -1751535.10746    402954.97745  23349635.0884   23349639.5294
     -1527.4694      -1190.2354
  -4145996.23044  -3050641.53543  24193835.3464   24193841.5924
      2856.5474       2225.8814
  -6407014.33345  -4830215.15645  23729799.6894   23729805.2914
      2505.6724       1952.4724
   4240867.00846   3301925.11646  22021658.6114   22021664.0024
     -1348.9064      -1051.0964
  12593166.07545   9763315.96243  24386063.6744   24386070.0724
     -2493.5164      -1942.9994
  -9614714.72646  -7365087.92546  21344771.9324   21344775.9754
       327.9064        255.5114
   1599388.75545   2200664.18545  23743164.9864   23743171.0214
     -2022.7814      -1576.1934
 98  6 17  2  2 30.0020000  0  9G 1G 3G 8G15G25G21G23G29G31
    626660.21446    534464.59646  21321123.6894   21321128.0614
     -1676.3754      -1306.2664
  13574646.45645  10557701.37844  24199700.5574   24199707.3774
     -3442.7664      -2682.6754
  -1705405.21645    438900.31745  23358413.4864   23358418.6544
     -1547.3124      -1205.6984
  -4231615.93244  -3117358.16642  24177542.7214   24177547.9824
      2851.8444       2222.2164
  -6482079.89445  -4888707.68145  23715514.9554   23715520.8854
      2499.2814       1947.4924
   4281437.86846   3333538.76046  22029378.8464   22029384.2364
     -1355.4064      -1056.1614
  12668037.31045   9821657.10944  24400311.7444   24400318.0374
     -2497.3594      -1945.9944
  -9624344.83546  -7372591.88146  21342939.5334   21342943.0844
       314.4844        245.0534
   1660300.49345   2248127.83945  23754755.5414   23754761.7994
     -2037.6414      -1587.7724
 98  6 17  2  3  0.0020000  0  9G 1G 3G 8G15G25G21G23G29G31
    677149.95446    573807.23846  21330731.6744   21330736.3144
     -1689.4064      -1316.4204
  13678006.62645  10638241.69244  24219369.1974   24219375.4204
     -3447.7034      -2686.5224
  -1658683.51145    475306.80945  23367304.0334   23367309.5064
     -1567.1564      -1221.1614
  -4317088.30244  -3183959.96643  24161277.6824   24161283.4944
      2846.4694       2218.0284
  -6556954.50845  -4947051.38845  23701266.7054   23701272.3654
      2492.6724       1942.3424
   4322201.03146   3365302.24946  22037135.7524   22037141.2134
     -1361.9374      -1061.2504
  12743023.97845   9880088.17644  24414581.3614   24414587.0924
     -2501.5944      -1949.2944
  -9633562.07746  -7379774.11946  21341185.5574   21341189.2364
       300.2664        233.9734
   1721669.02345   2295947.42745  23766433.8934   23766439.7524
     -2053.2814      -1599.9594
 98  6 17  2  3 30.0020000  0  9G 1G 3G 8G15G25G21G23G29G31
    728019.41047    613445.76846  21340411.6584   21340415.9594
     -1701.8914      -1326.1494
  13781502.47944  10718887.66443  24239063.8304   24239069.9474
     -3452.1724      -2690.0044
  -1611386.25645    512161.78345  23376304.6354   23376310.1544
     -1586.0474      -1235.8814
  -4402410.62944  -3250444.83543  24145041.5494   24145047.3854
      2841.6884       2214.3024
  -6631654.26446  -5005258.86145  23687051.9394   23687057.8114
      2487.3754       1938.2144
   4363144.63046   3397206.33846  22044927.2994   22044932.1974
     -1367.4534      -1065.5484
  12818117.71945   9938602.71343  24428870.5884   24428877.3264
     -2504.5474      -1951.5954
  -9642373.62346  -7386640.23646  21339508.5964   21339512.4984
       287.3594        223.9164
   1783484.08445   2344115.00345  23778196.9944   23778202.8424
     -2067.5784      -1611.1004
 98  6 17  2  4  0.0020000  0  9G 1G 3G 8G15G25G21G23G29G31
    779272.76547    653383.43346  21350164.5964   21350168.8384
     -1715.1724      -1336.4984
  13885139.31445  10799643.58544  24258785.1274   24258791.1624
     -3457.1094      -2693.8514
  -1563522.90245    549457.87545  23385412.6274   23385417.9124
     -1605.0164      -1250.6624
  -4487584.83245  -3316814.23743  24128833.3694   24128839.4984
      2836.3914       2210.1754
  -6706197.28045  -5063344.21745  23672866.5724   23672872.5254
      2481.9844       1934.0144
   4404257.15646   3429242.06446  22052750.6504   22052755.3504
     -1373.6094      -1070.3454
  12893310.28144   9997194.26343  24443179.8854   24443186.0374
     -2508.4844      -1954.6634
  -9650795.22146  -7393202.49146  21337906.1894   21337909.7994
       273.7664        213.3244
   1845725.54645   2392614.81645  23790041.0334   23790046.7644
     -2082.0164      -1622.3504
 98  6 17  2  4 30.0020000  0  9G 1G 3G 8G15G25G21G23G29G31
    830925.96946    693632.67646  21359994.2444   21359998.9434
     -1728.2664      -1346.7004
  13988920.50645  10880511.90444  24278534.5254   24278540.6544
     -3461.4694      -2697.2484
  -1515094.43145    587194.34045  23394628.1894   23394633.5684
     -1623.4534      -1265.0284
  -4572601.33645  -3383060.80843  24112654.9244   24112660.7484
      2831.3914       2206.2784
  -6780574.63746  -5121300.48445  23658713.4004   23658719.4474
      2476.5164       1929.7524
   4445561.99446   3461427.64646  22060610.7444   22060615.7134
     -1380.1414      -1075.4344
  12968618.14345  10055875.58843  24457510.1584   24457515.8424
     -2511.8914      -1957.3174
  -9658798.57746  -7399438.85246  21336382.8544   21336386.6624
       259.7664        202.4154
   1908403.42545   2441454.69745  23801968.3544   23801974.1314
     -2096.4694      -1633.6124
 98  6 17  2  5  0.0020000  0  9G 1G 3G 8G15G25G21G23G29G31
    882969.79947    734186.30046  21369897.9084   21369902.4204
     -1741.2034      -1356.7824
  14092830.94645  10961480.97744  24298307.8224   24298313.6584
     -3465.6874      -2700.5364
  -1466104.76145    625368.09145  23403950.4864   23403956.0184
     -1642.4694      -1279.8464
  -4657457.13544  -3449182.14543  24096508.0494   24096513.7324
      2825.7974       2201.9204
  -6854776.45346  -5179119.96845  23644592.4714   23644598.0844
      2470.3914       1924.9804
   4487080.64646   3493779.82946  22068511.5964   22068516.8344
     -1387.6414      -1081.2784
  13044024.90545  10114634.00443  24471859.9714   24471866.0534
     -2515.1874      -1959.8864
  -9666370.14847  -7405338.75146  21334942.0884   21334945.6044
       245.1254        191.0064
   1971519.56845   2490636.09145  23813979.0494   23813985.1544
     -2111.0004      -1644.9354
 98  6 17  2  5 30.0020000  0  9G 1G 3G 8G15G25G21G23G29G31
    935391.99747    775034.75746  21379873.6354   21379877.9004
     -1753.7194      -1366.5344
  14196859.98045  11042542.44944  24318104.3144   24318110.0334
     -3469.6254      -2703.6044
  -1416548.95245    663982.97445  23413380.8074   23413386.0924
     -1661.5474      -1294.7124
  -4742156.05544  -3515181.21943  24080389.3544   24080397.0574
      2820.7034       2197.9504
  -6928809.17246  -5236807.65445  23630504.5644   23630510.6004
      2464.9064       1920.7064
   4528815.63946   3526300.59446  22076453.4714   22076458.4864
     -1394.6724      -1086.7574
  13119522.46344  10173463.25443  24486226.5804   24486233.9904
     -2518.1254      -1962.1754
  -9673513.24846  -7410904.77546  21333582.9474   21333586.5574
       231.0164        180.0124
   2035048.45645   2540139.10345  23826068.5494   23826074.3614
     -2124.3594      -1655.3454
 98  6 17  2  6  0.0020000  0  9G 1G 3G 8G15G25G21G23G29G31
    988199.50647    816183.45146  21389922.1504   21389926.4864
     -1766.9374      -1376.8344
  14301011.44744  11123699.35944  24337923.6354   24337930.4204
     -3473.7504      -2706.8184
  -1366407.05245    703054.56945  23422922.5724   23422928.0574
     -1681.4534      -1310.2234
  -4826693.93145  -3581054.83443  24064302.4864   24064308.0884
      2814.9384       2193.4584
  -7002660.17746  -5294353.79945  23616451.2444   23616456.9164
      2458.2194       1915.4954
   4570771.87146   3558993.74046  22084437.4164   22084442.5374
     -1402.6564      -1092.9794
  13195128.03845  10232376.62143  24500614.1274   24500619.5064
     -2522.3444      -1965.4634
  -9680221.69546  -7416132.12046  21332306.2134   21332309.9514
       215.9384        168.2634
   2098982.85145   2589958.09945  23838234.4244   23838240.3304
     -2138.1564      -1666.0964
 98  6 17  2  6 30.0020000  0  9G 1G 3G 8G15G25G21G23G29G31
   1041397.83747    857636.68946  21400045.7054   21400050.3344
     -1779.8594      -1386.9034
  14405273.05044  11204942.05044  24357764.1434   24357770.4244
     -3477.3284      -2709.6064
  -1315665.37145    742593.50445  23432578.5254   23432584.3504
     -1701.6564      -1325.9664
  -4911061.92845  -3646796.05944  24048248.5804   24048253.5374
      2809.2814       2189.0504
  -7076310.81846  -5351743.77945  23602435.8614   23602441.3694
      2451.5784       1910.3214
   4612958.65846   3591866.53846  22092465.3144   22092470.8694
     -1410.0004      -1098.7014
  13270844.12745  10291376.12643  24515022.5804   24515028.6394
     -2525.6564      -1968.0444
  -9686482.31246  -7421010.49546  21331114.9944   21331118.1824
       201.2664        156.8304
   2163327.17645   2640096.51545  23850478.9794   23850484.6504
     -2151.7194      -1676.6644
 98  6 17  2  7  0.0020000  0  9G 1G 3G 8G15G25G21G23G29G31
   1094970.45746    899381.57446  21410240.1664   21410244.7954
     -1791.8914      -1396.2784
  14509641.16944  11286267.76544  24377624.1434   24377630.4714
     -3480.7814      -2712.2974
  -1264327.12545    782597.31145  23442347.9324   23442353.1114
     -1721.0624      -1341.0884
  -4995265.65045  -3712409.28444  24032224.5334   24032230.8034
      2804.0944       2185.0084
  -7149770.40346  -5408984.90745  23588456.7604   23588462.5254
      2445.5004       1905.5844
   4655357.28146   3624904.41346  22100533.6824   22100538.8034
     -1416.7504      -1103.9614
  13346656.61445  10350450.73943  24529449.4944   24529455.9634
     -2528.8124      -1970.5034
  -9692320.89547  -7425560.01946  21330003.9004   21330007.1934
       187.9064        146.4204
   2228066.97745   2690543.09345  23862798.6504   23862804.3694
     -2164.4224      -1686.5624
 98  6 17  2  7 30.0020000  0  9G 1G 3G 8G15G25G21G23G29G31
   1148919.55347    941419.82146  21420506.4634   21420510.9864
     -1804.4844      -1406.0924
  14614123.90145  11367682.78643  24397507.4944   24397514.7294
     -3484.4694      -2715.1704
  -1212403.47845    823057.28245  23452228.3774   23452234.6004
     -1740.2344      -1356.0274
  -5079299.79445  -3777890.39543  24016233.3464   24016239.1934
      2798.3444       2180.5284
  -7223025.91446  -5466066.98445  23574516.7364   23574522.3734
      2438.2664       1899.9474
   4697968.33046   3658107.80246  22108642.1664   22108647.3344
     -1423.7504      -1109.4164
  13422580.31645  10409612.00043  24543897.1434   24543902.3464
     -2532.5784      -1973.4374
  -9697753.15746  -7429792.92646  21328970.1194   21328973.7294
       174.5784        136.0354
   2293201.99245   2741297.63845  23875193.2214   23875198.9284
     -2177.7344      -1696.9364
 98  6 17  2  8  0.0020000  0  9G 1G 3G 8G15G25G21G23G29G31
   1203237.47947    983745.46746  21430842.7994   21430847.2174
     -1816.5624      -1415.5034
  14718708.62845  11449177.31343  24417409.4864   24417416.4394
     -3487.7974      -2717.7644
  -1159921.90145    863951.99545  23462215.5574   23462220.7714
     -1758.4844      -1370.2484
  -5163163.97445  -3843239.05643  24000274.7294   24000280.0494
      2792.5784       2176.0354
  -7296055.53946  -5522973.08145  23560619.6974   23560625.6394
      2430.3754       1893.7994
   4740784.96646   3691471.39446  22116789.9944   22116794.8574
     -1430.7344      -1114.8584
  13498610.82844  10468856.55543  24558364.9554   24558370.5104
     -2536.0314      -1976.1284
  -9702797.22946  -7433723.34946  21328009.9944   21328014.0374
       161.6564        125.9664
   2358742.86145   2792368.43045  23887665.1664   23887671.2364
     -2191.7664      -1707.8694
 98  6 17  2  8 30.0020000  0  9G 1G 3G 8G15G25G21G23G29G31
   1257914.38747   1026350.83946  21441247.4394   21441251.6234
     -1828.2974      -1424.6474
  14823396.72545  11530752.36743  24437330.6894   24437338.7684
     -3491.3594      -2720.5404
  -1106887.96045    905277.14245  23472307.7834   23472312.8934
     -1776.9374      -1384.6274
  -5246852.34145  -3908450.74044  23984349.2444   23984355.2214
      2786.8444       2171.5674
  -7368846.54146  -5579693.23845  23546767.8694   23546773.3774
      2422.5784       1887.7234
   4783810.11046   3724997.46346  22124977.5334   22124982.4434
     -1437.3284      -1119.9964
  13574740.72145  10528178.49843  24572852.2134   24572858.3894
     -2539.1724      -1978.5754
  -9707451.62746  -7437350.13646  21327124.6664   21327127.9004
       148.8754        116.0064
   2424712.20545   2843773.06845  23900218.9714   23900224.8304
     -2205.9534      -1718.9254
 98  6 17  2  9  0.0020000  0  9G 1G 3G 8G15G25G21G23G29G31
   1312938.92847   1069227.09846  21451718.2444   21451722.5684
     -1839.9064      -1433.6934
  14928200.64644  11612417.71243  24457273.9554   24457280.7294
     -3495.3124      -2723.6204
  -1053301.08045    947033.13745  23482504.7524   23482509.8144
     -1795.4374      -1399.0424
  -5330364.98645  -3973525.47044  23968457.3694   23968463.0064
      2780.7504       2166.8184
  -7441397.55946  -5636226.37745  23532961.5494   23532967.6194
      2414.2814       1881.2584
   4827037.55146   3758681.15846  22133203.1434   22133207.9124
     -1444.3124      -1125.4384
  13650975.22444  10587581.94542  24587359.5254   24587364.6704
     -2543.0004      -1981.5584
  -9711725.31647  -7440680.25546  21326311.2054   21326314.4754
       136.1884        106.1204
   2491107.70545   2895509.82645  23912853.6894   23912859.4324
     -2220.3444      -1730.1384
 98  6 17  2  9 30.0020000  0  9G 1G 3G 8G15G25G21G23G29G31
   1368313.43647   1112376.06346  21462255.6504   21462259.9864
     -1851.9844      -1443.1054
  15033109.19644  11694164.51843  24477237.1664   24477243.6004
     -3498.7814      -2726.3234
   -999153.25045    989226.24445  23492808.7444   23492814.9554
     -1814.7504      -1414.0914
  -5413696.46545  -4038458.99544  23952599.0804   23952606.6314
      2774.4534       2161.9124
  -7513702.15646  -5692567.52045  23519202.1194   23519208.0024
      2405.9534       1874.7694
   4870464.29346   3792520.15046  22141467.2524   22141472.2684
     -1450.9844      -1130.6374
  13727320.84044  10647071.99042  24601887.3694   24601895.0144
     -2546.9534      -1984.6394
  -9715614.87546  -7443711.06546  21325571.1744   21325574.6314
       122.8914         95.7594
   2557935.21745   2947583.18445  23925570.4004   23925576.1074
     -2234.9224      -1741.4984
 98  6 17  2 10  0.0020000  0  9G 1G 3G 8G15G25G21G23G29G31
   1424050.51247   1155807.54446  21472862.0574   21472866.1704
     -1864.0944      -1452.5414
  15138112.09444  11775984.92743  24497218.7994   24497225.9394
     -3501.7034      -2728.6004
   -944420.81545   1031874.86945  23503224.2444   23503230.1624
     -1834.5624      -1429.5294
  -5496843.14545  -4103248.58744  23936777.2214   23936783.1864
      2768.3754       2157.1754
  -7585775.41546  -5748728.39245  23505487.6584   23505493.2714
      2398.7814       1869.1804
   4914083.53846   3826509.14346  22149767.7994   22149772.7444
     -1457.3444      -1135.5934
  13803784.54944  10706654.06243  24616437.6974   24616445.1074
     -2550.8914      -1987.7074
  -9719106.63046  -7446431.89246  21324906.5414   21324910.0214
       109.4224         85.2644
   2625187.03745   2999987.17945  23938368.5334   23938374.4284
     -2248.7344      -1752.2614
 98  6 17  2 10 30.0020000  0  9G 1G 3G 8G15G25G21G23G29G31
   1480157.76347   1199527.48446  21483538.8774   21483543.0614
     -1876.4534      -1462.1714
  15243205.21645  11857875.59843  24517217.5724   24517225.3814
     -3504.5784      -2730.8404
   -889076.71345   1075000.12845  23513755.4944   23513760.6624
     -1855.0624      -1445.5034
  -5579804.44445  -4167893.67144  23920990.2684   23920996.0804
      2762.2974       2152.4394
  -7657639.30746  -5804726.12245  23491811.9474   23491817.7254
      2392.1414       1864.0064
   4957897.22146   3860649.65546  22158105.3224   22158110.3614
     -1463.6724      -1140.5244
  13880367.62544  10766329.08843  24631010.6354   24631017.4084
     -2554.7034      -1990.6784
  -9722179.78546  -7448826.52946  21324321.8614   21324325.4004
        95.3444         74.2944
   2692840.01345   3052703.78845  23951241.6824   23951247.4244
     -2261.3914      -1762.1234
 98  6 17  2 11  0.0020000  0  9G 1G 3G 8G15G25G21G23G29G31
   1536634.23746   1243535.13146  21494286.1354   21494290.4824
     -1888.8754      -1471.8514
  15348376.84845  11939827.47443  24537230.7294   24537237.4554
     -3506.8284      -2732.5934
   -833123.08245   1118600.35445  23524403.1894   23524408.6154
     -1875.1874      -1461.1854
  -5662579.66245  -4232393.82744  23905238.2994   23905244.2404
      2755.9224       2147.4724
  -7729308.50646  -5860572.14245  23478174.2134   23478179.9204
      2385.7664       1859.0384
   5001906.43846   3894942.52746  22166480.0414   22166485.2324
     -1470.4844      -1145.8324
  13957063.30444  10826091.92943  24645605.5104   24645612.1784
     -2558.3914      -1993.5514
  -9724828.09946  -7450890.13446  21323817.8074   21323821.2874
        81.0004         63.1174
   2760866.79945   3105711.63645  23964187.3224   23964192.3734
     -2273.8594      -1771.8384
 98  6 17  2 11 30.0020000  0  9G 1G 3G 8G15G25G21G23G29G31
   1593493.34546   1287840.92346  21505105.9554   21505110.5724
     -1901.7344      -1481.8714
  15453606.53945  12021824.57043  24557255.6584   24557263.8894
     -3508.6874      -2734.0424
   -776573.31945   1162665.10345  23535164.4004   23535169.2174
     -1894.7194      -1476.4044
  -5745164.67945  -4296745.75544  23889523.0724   23889529.2714
      2749.6724       2142.6014
  -7800792.56746  -5916273.92245  23464570.6584   23464575.6974
      2379.7974       1854.3874
   5046118.88446   3929393.75946  22174893.2214   22174898.2954
     -1477.1414      -1151.0194
  14033859.73644  10885933.23243  24660219.7994   24660224.8504
     -2561.4064      -1995.9014
  -9727034.44146  -7452609.34546  21323397.8144   21323401.4944
        66.0944         51.5024
   2829263.23845   3159007.54645  23977202.3544   23977207.8614
     -2285.9224      -1781.2384
 98  6 17  2 12  0.0020000  0  9G 1G 3G 8G15G25G21G23G29G31
   1650736.17346   1332445.72246  21515998.8854   21516003.2324
     -1914.4224      -1491.7574
  15558906.24544  12103876.26543  24577293.8144   24577300.8264
     -3511.5624      -2736.2824
   -719445.22145                  23546035.3464
     -1913.8754
  -5827555.63845  -4360946.44744  23873844.3614   23873850.1154
      2742.9064       2137.3304
  -7872090.51146  -5971830.66145  23451003.5024   23451009.1154
      2372.9844       1849.0794
   5090541.08546   3964008.42746  22183346.5414   22183351.2404
     -1484.5474      -1156.7904
  14110746.97045  10945845.32443  24674850.8854   24674857.9324
     -2564.5004      -1998.3124
  -9728800.24846  -7453985.27646  21323061.8074   21323065.4514
        51.4384         40.0814
   2898028.97845   3212591.20445  23990288.3774   23990293.4284
     -2298.7034      -1791.1974
 98  6 17  2 12 30.0020000  0  9G 1G 3G 8G15G25G21G23G29G31
   1708340.37846   1377332.11846  21526960.5494   21526964.9434
     -1925.8914      -1500.6944
  15664293.21144  12185995.87243  24597348.2294   24597354.9204
     -3514.2194      -2738.3524
   -661754.09145                  23557013.3774
     -1932.1094
  -5909750.42645  -4424994.26744  23858203.3074   23858210.1394
      2736.6564       2132.4594
  -7943175.95546  -6027221.82745  23437476.1194   23437481.7214
      2365.9534       1843.6004
   5135177.10146   3998789.72346  22191840.4794   22191845.6824
     -1491.2504      -1162.0134
  14187711.20644  11005817.38843  24689497.3074   24689505.2214
     -2566.5314      -1999.8944
  -9730135.94547  -7455026.06346  21322807.8934   21322811.2794
        37.7344         29.4034
   2967175.05745   3266471.23145  24003446.5724   24003452.9594
     -2311.2034      -1800.9374
 98  6 17  2 13  0.0020000  0  9G 1G 3G 8G15G25G21G23G29G31
   1766298.66946   1422494.42946  21537989.5804   21537993.9284
     -1937.9064      -1510.0574
  15769761.15444  12268178.62443  24617417.8224   24617425.6544
     -3516.8124      -2740.3734
   -603516.94545     37844.20355  23568095.5574   23568101.0184
     -1950.2034      -1519.6394
  -5991746.31145  -4488887.11944  23842599.9164   23842606.2684
      2729.8754       2127.1754
  -8014035.64446  -6082437.06645  23423991.9864   23423997.7754
      2358.1414       1837.5124
   5180022.73246   4033734.33346  22200374.5254   22200379.6354
     -1498.2194      -1167.4434
  14264755.14545  11065851.58043  24704158.1894   24704164.7404
     -2569.7194      -2002.3784
  -9731066.80647  -7455751.39046  21322630.2914   21322633.6664
        24.5784         19.1524
   3036712.37045   3320656.09945  24016678.7524   24016684.1784
     -2324.5004      -1811.2994
 98  6 17  2 13 30.0020000  0  9G 1G 3G 8G15G25G21G23G29G31
   1824614.95346   1467935.69346  21549086.8464   21549091.4984
     -1949.3284      -1518.9574
  15875311.49044  12350425.52443  24637503.9944   24637511.0414
     -3519.6254      -2742.5654
   -544738.80045     83645.34645  23579280.8614   23579286.5214
     -1968.1094      -1533.5924
  -6073539.30845  -4552621.86644  23827035.3694   23827041.0184
      2723.2974       2122.0504
  -8084653.80446  -6137464.11345  23410553.3384   23410558.8464
      2350.0164       1831.1814
   5225072.54346   4068838.06946  22208946.9394   22208952.4474
     -1504.8444      -1172.6064
  14341902.15444  11125966.05743  24718838.6274   24718844.8614
     -2573.2034      -2005.0934
  -9731608.37246  -7456173.36646  21322527.3694   21322530.8504
        12.0634          9.3994
   3106650.45145   3375153.25945  24029987.2994   24029992.4204
     -2337.6414      -1821.5384
 98  6 17  2 14  0.0020000  0  9G 1G 3G 8G15G25G21G23G29G31
   1883257.07046   1513630.84846  21560245.8854   21560250.6314
     -1960.3284      -1527.5284
  15980944.80644  12432737.17143  24657605.3934   24657612.9324
     -3522.6094      -2744.8904
   -485415.96245    129870.94345  23590569.5884   23590574.8264
     -1987.0164      -1548.3244
  -6155134.73945  -4616202.64845  23811508.2914   23811514.0104
      2716.2194       2116.5344
  -8155025.76246  -6192299.31145  23397161.9864   23397167.4244
      2341.1564       1824.2784
   5270328.28446   4104102.26046  22217558.9944   22217564.3964
     -1512.3124      -1178.4254
  14419162.88044  11186169.14043  24733540.8694   24733548.3264
     -2577.7344      -2008.6244
  -9731785.29346  -7456311.20846  21322493.8694   21322497.6894
        -0.5314         -0.4144
   3176971.38545   3429948.75045  24043369.4714   24043375.3894
     -2350.4844      -1831.5464
 98  6 17  2 14 30.0020000  0  9G 1G 3G 8G15G25G21G23G29G31
   1942228.33146   1559582.47746  21571468.2134   21571472.8184
     -1971.0784      -1535.9054
  16086654.81944  12515108.53343  24677721.3074   24677727.4004
     -3524.5784      -2746.4254
   -425520.55145    176542.67145  23601967.1434   23601972.8854
     -2005.9064      -1563.0444
  -6236515.95245  -4679616.52145  23796022.1354   23796028.4754
      2709.2194       2111.0804
  -8225131.96746  -6246927.43445  23383821.2994   23383826.1044
      2332.7974       1817.7644
   5315803.04246   4139537.11146  22226212.7684   22226217.8654
     -1519.2974      -1183.8684
  14496561.69444  11246479.85242  24748269.0334   24748275.2914
     -2582.2504      -2012.1434
  -9731574.34347  -7456146.81646  21322533.7684   21322537.3654
       -13.3914        -10.4344
   3247664.09445   3485033.91645  24056821.6434   24056827.6194
     -2362.2814      -1840.7394
 98  6 17  2 15  0.0020000  0  9G 1G 3G 8G15G25G21G23G29G31
   2001523.36746   1605786.40246  21582751.3464   21582756.3504
     -1981.5474      -1544.0624
  16192417.08643  12597520.58842  24697846.4084   24697853.2174
     -3526.1874      -2747.6794
   -365071.77445    223645.62045  23613470.7834   23613475.7294
     -2023.8444      -1577.0214
  -6317688.48045  -4742867.79645  23780575.2834   23780581.2834
      2702.5164       2105.8564
  -8294997.54546  -6301368.05645  23370526.0334   23370531.7644
      2325.1254       1811.7864
   5361484.19046   4175132.80146  22234905.3544   22234910.4514
     -1525.9534      -1189.0544
  14574103.93045  11306902.30743  24763024.9944   24763033.4004
     -2586.8444      -2015.7224
  -9730981.49147  -7455684.83146  21322646.6274   21322650.1194
       -26.0164        -20.2724
   3318705.46645   3540390.80244  24070340.2994   24070346.4514
     -2373.5474      -1849.5174
 98  6 17  2 15 30.0020000  0  9G 1G 3G 8G15G25G21G23G29G31
   2061134.13446   1652236.34146  21594094.8304   21594099.5064
     -1991.7344      -1552.0014
  16298249.24643  12679987.13242  24717985.9004   24717992.9364
     -3528.5164      -2749.4934
   -304068.94145    271180.30045  23625079.2364   23625084.1584
     -2042.3284      -1591.4254
  -6398645.03145  -4805950.77045  23765169.9164   23765175.1784
      2695.3444       2100.2684
  -8364617.21946  -6355617.05045  23357277.9634   23357283.3184
      2316.9384       1805.4064
   5407389.65846   4210903.27346  22243641.0724   22243645.9594
     -1533.6094      -1195.0204
  14651782.72544  11367431.10742  24777806.6434   24777812.9594
     -2590.8124      -2018.8154
  -9729986.27647  -7454909.31446  21322835.9634   21322839.3034
       -39.5314        -30.8044
   3390098.28245   3596021.52144  24083926.0414   24083931.1744
     -2385.2194      -1858.6124
 98  6 17  2 16  0.0030000  0  9G 1G 3G 8G15G25G21G23G29G31
   2121055.12046   1698928.02046  21605497.6324   21605502.0384
     -2003.0164      -1560.7914
  16404145.05144  12762503.28142  24738137.6084   24738144.6204
     -3531.0314      -2751.4534
   -242505.90245    319151.49445  23636794.1634   23636799.9294
     -2061.6874      -1606.5104
  -6479392.00645  -4868870.47445  23749804.3904   23749809.2654
      2687.5634       2094.2054
  -8433996.20946  -6409678.51345  23344075.6714   23344081.0384
      2308.0474       1798.4784
   5453514.33046   4246844.56646  22252418.0074   22252423.3974
     -1541.2344      -1200.9624
  14729572.81444  11428046.72743  24792610.0544   24792617.9564
     -2594.9064      -2022.0054
  -9728590.36547  -7453821.57046  21323101.6084   21323105.0774
       -53.6094        -41.7744
   3461840.55145   3651924.50045  24097578.0624   24097583.5464
     -2397.6414      -1868.2914
 98  6 17  2 16 30.0030000  0  9G 1G 3G 8G15G25G21G23G29G31
   2181312.53046   1745881.83846  21616964.0544   21616968.8824
     -2014.1564      -1569.4724
  16510106.86944  12845070.90043  24758301.1714   24758308.6634
     -3533.2974      -2753.2184
   -180374.94345    367565.23745  23648617.3354   23648623.7924
     -2080.4534      -1621.1324
  -6559910.33645  -4931611.97245  23734481.5074   23734486.7574
      2680.2504       2088.5064
  -8503111.81746  -6463534.73745  23330922.9134   23330928.6204
      2299.6414       1791.9284
   5499857.62246   4282956.21246  22261237.0154   22261241.9604
     -1548.4844      -1206.6114
  14807465.77144  11488742.45542  24807432.6324   24807437.4724
     -2598.0164      -2024.4284
  -9726777.76547  -7452409.14046  21323446.5934   21323450.1794
       -67.2814        -52.4274
   3533961.72945   3708122.77145  24111302.4134   24111308.8004
     -2410.6414      -1878.4214
 98  6 17  2 17  0.0030000  0  9G 1G 3G 8G15G25G21G23G29G31
   2241896.97446   1793090.48046  21628493.0384   21628497.7614
     -2025.2504      -1578.1174
  16616130.62444  12927686.73142  24778477.3584   24778482.8194
     -3535.2974      -2754.7774
   -117685.87645    416413.86745  23660546.6404   23660552.1594
     -2099.3444      -1635.8524
  -6640217.18645  -4994188.71145  23719200.0074   23719205.4794
      2673.1414       2082.9674
  -8571980.35646  -6517198.44245  23317817.9994   23317823.8474
      2291.1564       1785.3174
   5546415.66846   4319235.19446  22270096.6084   22270101.9294
     -1555.8754      -1212.3704
  14885439.44844  11549501.08442  24822270.2884   24822274.4014
     -2600.4534      -2026.3274
  -9724565.41947  -7450685.20846  21323867.6244   21323871.1044
       -80.6414        -62.8374
   3606473.00145   3764624.99445  24125100.6164   24125107.0034
     -2423.7814      -1888.6614
 98  6 17  2 17 30.0030000  0  9G 1G 3G 8G15G25G21G23G29G31
   2302822.81546   1840565.15946  21640086.9684   21640091.2574
     -2036.8124      -1587.1274
  16722209.03745  13010345.17643  24798663.2804   24798669.0694
     -3536.5944      -2755.7874
    -54412.39945    465717.85745  23672587.2414   23672592.9484
     -2119.0474      -1651.2054
  -6720306.22145  -5056595.70045  23703959.2724   23703964.4294
      2665.9694       2077.3784
  -8640587.90846  -6570658.78945  23304762.1244   23304766.8124
      2282.5634       1778.6204
   5593200.85946   4355691.19346  22278999.8194   22279004.7414
     -1563.1414      -1218.0324
  14963484.80544  11610315.56342  24837122.4444   24837129.5854
     -2602.8914      -2028.2264
  -9721946.97747  -7448644.84646  21324365.9684   21324369.5074
       -94.0314        -73.2714
   3679374.86645   3821431.59145  24138973.8354   24138979.5654
     -2436.5004      -1898.5714
 98  6 17  2 18  0.0030000  0  9G 1G 3G 8G15G25G21G23G29G31
   2364107.87346   1888319.74346  21651749.1164   21651753.8514
     -2048.7344      -1596.4164
  16828324.89144  13093032.74442  24818856.3584   24818862.7334
     -3537.8754      -2756.7864
      9455.14645    515484.78345  23684740.7024   23684745.9644
     -2138.5944      -1666.4374
  -6800173.16345  -5118829.63445  23688761.2654   23688766.8904
      2658.4844       2071.5464
  -8708937.18346  -6623917.87545  23291756.0224   23291760.9914
      2274.0474       1771.9854
   5640198.77646   4392312.93346  22287942.9684   22287947.7264
     -1570.1724      -1223.5114
  15041617.28244  11671198.00442  24851990.2804   24851996.2334
     -2606.1564      -2030.7714
  -9718924.76947  -7446289.85946  21324940.9214   21324944.2964
      -107.5624        -83.8154
   3752659.10145   3878536.12045  24152919.6084   24152925.9254
     -2449.0784      -1908.3734
 98  6 17  2 18 30.0030000  0  9G 1G 3G 8G15G25G21G23G29G31
   2425746.35247   1936349.70846  21663478.4764   21663483.1044
     -2059.9844      -1605.1834
  16934484.36644  13175754.31043  24839058.0774   24839064.1474
     -3538.7814      -2757.4924
     73902.71045    565703.66045  23697004.6714   23697010.6014
     -2157.3914      -1681.0844
  -6879808.51945  -5180883.11045  23673606.6474   23673613.2334
      2650.9534       2065.6784
  -8777025.04046  -6676973.25845  23278799.1404   23278804.8004
      2265.6254       1765.4224
   5687422.60846   4429110.72946  22296929.4684   22296934.7184
     -1577.5474      -1229.2574
  15119858.65345  11732165.22842  24866879.3514   24866886.5854
     -2609.6094      -2033.4624
  -9715491.67747  -7443614.70346  21325594.0624   21325597.9524
      -120.8914        -94.2004
   3826316.71945   3935931.60045  24166936.1874   24166941.8584
     -2460.7504      -1917.4684
 98  6 17  2 19  0.0030000  0  9G 1G 3G 8G15G25G21G23G29G31
   2487726.63747   1984646.02446  21675273.0854   21675277.2924
     -2072.2974      -1614.7774
  17040668.48943  13258495.07642  24859264.3124   24859272.1084
     -3540.2504      -2758.6364
    138913.78845    616361.64145  23709375.9054   23709381.7064
     -2176.7814      -1696.1934
  -6959210.48845  -5242754.71945  23658497.6084   23658503.5974
      2642.3444       2058.9694
  -8844855.31246  -6729827.93745  23265891.4764   23265896.3864
      2256.2344       1758.1054
   5734862.56546   4466076.92046  22305956.7724   22305961.8584
     -1585.2664      -1235.2724
  15198215.36944  11793222.33642  24881789.5624   24881794.4724
     -2614.4224      -2037.2124
  -9711661.19647  -7440629.89846  21326323.0304   21326326.6754
      -134.5784       -104.8664
   3900313.55545   3993591.40245  24181016.6714   24181022.1204
     -2472.5624      -1926.6724
 98  6 17  2 19 30.0030000  0  9G 1G 3G 8G15G25G21G23G29G31
   2550050.14747   2033209.78546  21687132.7414   21687136.9724
     -2083.2194      -1623.2874
  17146873.36143  13341252.02442  24879474.1084   24879480.3434
     -3540.9694      -2759.1964
    204471.00645    667445.17245  23721850.8824   23721856.1204
     -2194.3754      -1709.9034
  -7038379.44945  -5304444.76445  23643432.1164   23643437.9644
      2634.7974       2053.0884
  -8912426.63746  -6782480.81945  23253032.8904   23253038.2454
      2247.6724       1751.4334
   5782504.92546   4503200.84746  22315022.9764   22315028.4014
     -1591.5944      -1240.2034
  15276700.63044  11854379.65842  24896724.8044   24896729.8084
     -2618.7664      -2040.5974
  -9707449.93747  -7437348.37346  21327124.5464   21327128.0734
      -146.9374       -114.4974
   3974637.54045   4051506.11745  24195160.9134   24195166.8664
     -2483.2814      -1935.0244
 98  6 17  2 20  0.0030000  0  9G 1G 3G 8G15G25G21G23G29G31
   2612693.44447   2082022.73646  21699053.4444   21699057.8154
     -2093.1874      -1631.0554
  17253112.90843  13424035.98342  24899691.4524   24899699.3544
     -3542.1254      -2760.0974
    270552.36345    718937.14045  23734425.9294   23734431.5304
     -2211.2974      -1723.0884
  -7117314.19245  -5365952.30745  23628411.2184   23628416.0934
      2627.1564       2047.1354
  -8979723.56246  -6834919.89145  23240226.4294   23240231.7494
      2238.3284       1744.1524
   5830341.66346   4540476.23246  22324125.9214   22324130.9134
     -1598.0944      -1245.2684
  15355320.19544  11915641.63942  24911686.1164   24911692.2104
     -2622.8914      -2043.8114
  -9702864.47847  -7433775.27346  21327997.0694   21328000.2804
      -159.0784       -123.9574
   4049295.68245   4109681.22745  24209368.0544   24209374.1834
     -2494.2504      -1943.5714
 98  6 17  2 20 30.0030000  0  9G 1G 3G 8G15G25G21G23G29G31
   2675635.55747   2131068.52446  21711030.6244   21711035.1124
     -2103.3284      -1638.9574
  17359388.85643  13506848.33242  24919915.3584   24919921.4994
     -3543.1874      -2760.9254
    337145.85945    770828.19345  23747098.0074   23747103.5034
     -2228.5474      -1736.5304
  -7196016.99645  -5427279.09845  23613434.7334   23613440.4404
      2619.4534       2041.1324
  -9046729.95946  -6887132.58345  23227475.6474   23227480.8154
      2228.5164       1736.5064
   5878386.41846   4577913.69746  22333268.4834   22333273.6044
     -1605.1094      -1250.7354
  15434063.62144  11977000.10543  24926670.4834   24926677.1634
     -2626.8594      -2046.9034
  -9697909.98847  -7429914.61046  21328939.8904   21328943.3584
      -171.5004       -133.6364
   4124284.61145   4168114.07545  24223637.7804   24223643.9684
     -2505.3124      -1952.1924
 98  6 17  2 21  0.0030000  0  9G 1G 3G 8G15G25G21G23G29G31
   2738897.10146   2180363.21646  21723068.9994   21723073.6044
     -2113.9064      -1647.2004
  17465711.08243  13589696.75942  24940147.6474   24940155.5624
     -3544.9064      -2762.2654
    404269.24345    823132.11745  23759871.1014   23759876.6904
     -2246.1414      -1750.2394
  -7274477.85745  -5488417.37645  23598503.9444   23598508.7144
      2611.4844       2034.9234
  -9113431.39246  -6939107.64345  23214782.5934   23214787.4094
      2218.4694       1728.6774
   5926650.78346   4615522.30146  22342453.0624   22342458.5934
     -1612.5164      -1256.5064
  15512938.59944  12038461.09342  24941679.9294   24941686.7374
     -2631.2504      -2050.3254
  -9692566.70547  -7425750.99046  21329956.6634   21329960.0384
      -184.5944       -143.8394
   4199624.40045   4226820.34245  24237974.5774   24237980.4954
     -2517.2344      -1961.4814
 98  6 17  2 21 30.0030000  0  9G 1G 3G 8G15G25G21G23G29G31
   2802473.19646   2229903.03046  21735167.1794   21735171.7264
     -2124.2664      -1655.2724
  17572091.55443  13672590.51842  24960391.7264   24960399.8624
     -3546.9374      -2763.8474
    471924.23445    875850.27045  23772745.5304   23772751.0974
     -2264.1094      -1764.2414
  -7352693.47945  -5549364.56745  23583619.6634   23583625.3234
      2602.9224       2028.2514
  -9179824.62346  -6990842.53545  23202148.3744   23202153.0624
      2207.8444       1720.3984
   5975148.94446   4653313.07746  22351681.7494   22351686.6944
     -1620.6564      -1262.8494
  15591944.81844  12100024.36942  24956713.4914   24956719.2574
     -2635.6564      -2053.7584
  -9686816.52747  -7421270.31246  21331051.1634   21331054.5854
      -198.7664       -154.8824
   4275324.96245   4285807.72745  24252379.9994   24252385.6594
     -2529.3124      -1970.8934
 98  6 17  2 22  0.0030000  0  9G 1G 3G 8G15G25G21G23G29G31
   2866343.47847   2279672.07346  21747321.3194   21747325.7144
     -2133.9224      -1662.7964
  17678509.21143  13755513.24842  24980641.6164   24980646.7964
     -3547.4844      -2764.2744
    540107.52645    928980.10745  23785720.7024   23785725.8824
     -2281.6414      -1777.9024
  -7430661.31145  -5610118.63945  23568783.1404   23568788.9764
      2594.8594       2021.9684
  -9245919.87946  -7042345.25345  23189570.7414   23189574.9014
      2198.5474       1713.1534
   6023880.81246   4691285.95646  22360955.3434   22360960.8394
     -1628.3444      -1268.8394
  15671064.23144  12161675.78142  24971770.2884   24971775.7724
     -2639.0944      -2056.4374
  -9680654.79947  -7416468.95246  21332223.4684   21332227.1594
      -212.0004       -165.1954
   4351368.44245   4345062.34145  24266850.2024   24266856.0034
     -2540.1564      -1979.3434
 98  6 17  2 22 30.0030000  0  9G 1G 3G 8G15G25G21G23G29G31
   2930515.78346   2329676.45546  21759532.9524   21759537.5934
     -2144.2504      -1670.8444
  17784934.51943  13838441.93943  25000894.4834   25000901.8704
     -3547.2814      -2764.1154
    608823.35845    982524.90145  23798796.8974   23798802.3704
     -2299.4064      -1791.7454
  -7508383.52545  -5670681.34345  23553992.5694   23553997.7374
      2586.6884       2015.6014
  -9311750.41046  -7093641.68746  23177043.8664   23177048.4134
      2190.3444       1706.7614
   6072848.17846   4729442.33246  22370273.4684   22370277.9334
     -1635.9694      -1274.7814
  15750293.47344  12223412.83942  24986846.9524   24986852.7064
     -2642.6564      -2059.2134
  -9674096.85147  -7411358.84146  21333471.3434   21333474.7414
      -225.0164       -175.3374
   4427738.89745   4404571.71445  24281383.3274   24281389.7494
     -2551.1094      -1987.8774
 98  6 17  2 23  0.0030000  0  9G 1G 3G 8G15G25G21G23G29G31
   2995008.11646   2379930.21446  21771805.3974   21771810.0154
     -2155.1254      -1679.3184
  17891352.96643  13921365.25442  25021145.5774   25021152.2224
     -3547.2194      -2764.0674
    678085.05745   1036495.03745  23811977.3194   23811983.6014
     -2318.1254      -1806.3314
  -7585849.76945  -5731044.57045  23539251.8824   23539257.3194
      2577.7034       2008.6004
  -9377330.70046  -7144743.12446  23164564.3434   23164569.1474
      2181.6094       1699.9554
   6122044.81146   4767777.35746  22379635.5854   22379640.8354
     -1643.8444      -1280.9174
  15829633.19044  12285235.94442  25001944.9914   25001951.2264
     -2646.6254      -2062.3054
  -9667147.24147  -7405943.54746  21334793.8744   21334797.3544
      -238.1874       -185.6014
   4504439.80945   4464338.61045  24295979.1944   24295985.4404
     -2562.2344      -1996.5464
 98  6 17  2 23 30.0030000  0  9G 1G 3G 8G15G25G21G23G29G31
   3059810.13146   2430425.27946  21784137.0154   21784141.6324
     -2165.0164      -1687.0254
  17997752.10643  14004273.57742  25041392.0774   25041399.3584
     -3545.9374      -2763.0684
    747898.12845   1090894.83345  23825261.8974   23825267.3474
     -2336.0164      -1820.2724
  -7663055.24945  -5791204.62745  23524559.5934   23524565.4174
      2569.3754       2002.1104
  -9442653.56346  -7195643.97846  23152133.4834   23152138.3354
      2173.2974       1693.4784
   6171464.60446   4806286.29046  22389039.3274   22389044.4834
     -1650.6874      -1286.2504
  15909076.62144  12347139.86842  25017062.7724   25017068.5504
     -2649.5624      -2064.5944
  -9659820.48447  -7400234.37246  21336187.9684   21336191.3664
      -250.1874       -194.9514
   4581461.10245   4524355.13245  24310635.9134   24310641.4334
     -2572.4844      -2004.5334
 98  6 17  2 24  0.0030000  0  9G 1G 3G 8G15G25G21G23G29G31
   3124921.38647   2481161.32746  21796527.3194   21796531.7724
     -2175.9374      -1695.5364
  18104117.98243  14087155.97242  25061632.7574   25061639.3544
     -3545.3124      -2762.5814
    818253.86345   1145717.48045  23838650.3124   23838655.6554
     -2354.4844      -1834.6634
  -7740006.37945  -5851166.49645  23509916.0624   23509921.5694
      2560.5784       1995.2564
  -9507721.45046  -7246346.15246  23139751.4214   23139756.0154
      2164.4224       1686.5634
   6221097.97746   4844961.61546  22398484.7334   22398490.0424
     -1658.2814      -1292.1674
  15988615.51644  12409118.18842  25032198.3124   25032204.9214
     -2653.2974      -2067.5044
  -9652129.07147  -7394241.04546  21337651.6324   21337654.9014
      -262.6564       -204.6674
   4658803.94745   4584622.22445  24325353.4994   24325358.7724
     -2583.8754      -2013.4094
 98  6 17  2 24 30.0030000  0  9G 1G 3G 8G15G25G21G23G29G31
   3190361.40946   2532153.54746  21808979.9764   21808984.6044
     -2186.6254      -1703.8644
  18210469.22543  14170026.88642  25081870.8194   25081878.4764
     -3544.8124      -2762.1924
    889152.85545   1200963.43345  23852141.5224   23852146.6794
     -2372.0784      -1848.3734
  -7816697.66145  -5910925.87845  23495322.3904   23495327.9914
      2552.1724       1988.7054
  -9572526.50746  -7296843.51946  23127419.4524   23127424.1874
      2155.8134       1679.8544
   6270952.45846   4883809.25046  22407971.4604   22407977.1444
     -1665.1724      -1297.5374
  16068267.01944  12471184.23642  25047355.8974   25047362.2844
     -2656.6874      -2070.1464
  -9644062.21847  -7387955.16646  21339186.6324   21339190.3004
      -275.2664       -214.4934
   4736490.32645   4645156.97545  24340137.1474   24340143.0074
     -2595.1724      -2022.2124
 98  6 17  2 25  0.0030000  0  9G 1G 3G 8G15G25G21G23G29G31
   3256110.58246   2583386.66346  21821491.7104   21821496.5384
     -2196.6414      -1711.6684
  18316816.52244  14252894.82042  25102108.2964   25102117.5464
     -3545.2814      -2762.5574
    960577.07345   1256618.66145  23865733.6014   23865738.2064
     -2389.5944      -1862.0214
  -7893132.80445  -5970485.68245  23480777.2884   23480783.1364
      2543.3754       1981.8514
  -9637049.13846  -7347120.79646  23115141.0934   23115145.9444
      2145.4384       1671.7694
   6321010.09846   4922815.17546  22417497.0074   22417502.1984
     -1672.0944      -1302.9304
  16148021.11644  12533330.28342  25062532.0934   25062537.9764
     -2660.5004      -2073.1174
  -9635611.62247  -7381370.26846  21340794.7494   21340798.2294
      -288.2194       -224.5864
   4814509.04745   4705950.75245  24354983.9134   24354989.6904
     -2606.2504      -2030.8444
 98  6 17  2 25 30.0030000  0  9G 1G 3G 8G15G25G21G23G29G31
   3322150.12146   2634846.03846  21834058.3584   21834062.8474
     -2206.2194      -1719.1314
  18423181.16443  14335776.23242  25122349.3904   25122357.0694
     -3545.9064      -2763.0444
   1032513.39545   1312672.93945  23879422.2574   23879427.8824
     -2406.3124      -1875.0494
  -7969308.14945  -6029843.04845  23466281.8434   23466287.2924
      2534.7504       1975.1304
  -9701263.47346  -7397157.87346  23102921.4834   23102925.8664
      2135.4224       1663.9654
   6371277.72446   4961984.74446  22427062.6874   22427068.1244
     -1679.2814      -1308.5314
  16227890.64543  12595566.25043  25077731.2264   25077739.5974
     -2664.2814      -2076.0634
  -9626778.03147  -7374486.93746  21342475.4834   21342478.9174
      -300.9374       -234.4974
   4892858.66745   4767002.31645  24369893.0544   24369898.7964
     -2617.2504      -2039.4164
 98  6 17  2 26  0.0030000  0  9G 1G 3G 8G15G25G21G23G29G31
   3388485.31746   2686535.79446  21846681.6794   21846686.2494
     -2215.6564      -1726.4854
  18529572.28944  14418678.31542  25142595.1014   25142603.3664
     -3546.4694      -2763.4824
   1104963.92245   1369127.89445  23893208.9444   23893215.2494
     -2423.4224      -1888.3814
  -8045213.99745  -6088990.43645  23451837.1794   23451842.6874
      2525.9534       1968.2754
  -9765175.97346  -7446959.73846  23090759.4524   23090764.3624
      2125.7664       1656.4414
   6421771.99046   5001330.91046  22436671.6164   22436676.6554
     -1686.6564      -1314.2784
  16307880.91744  12657896.28242  25092952.5544   25092959.6014
     -2668.0474      -2078.9984
  -9617557.78047  -7367302.31146  21344230.2104   21344233.4444
      -313.2344       -244.0794
   4971539.14545   4828311.71345  24384865.7654   24384871.3314
     -2627.5784      -2047.4634
 98  6 17  2 26 30.0030000  0  9G 1G 3G 8G15G25G21G23G29G31
   3455100.38546   2738443.64246  21859358.1634   21859363.0624
     -2225.0944      -1733.8394
  18635983.62843  14501596.16342  25162843.1324   25162849.2494
     -3547.2344      -2764.0794
   1177936.73345   1425989.81045  23907095.7414   23907100.9444
     -2441.2504      -1902.2734
  -8120847.67245  -6147925.73945  23437444.5934   23437449.7844
      2516.5784       1960.9704
  -9828784.43146  -7496524.68246  23078654.6404   23078659.7024
      2114.9384       1648.0034
   6472491.62546   5040852.68146  22446323.4684   22446328.7184
     -1694.3444      -1320.2684
  16387985.30444  12720315.22442  25108195.9294   25108203.9954
     -2671.8444      -2081.9564
  -9607973.13847  -7359833.74646  21346053.9994   21346057.7724
      -325.5164       -253.6494
   5050521.29845   4889856.21344  24399895.1554   24399901.1084
     -2637.4224      -2055.1344
 98  6 17  2 27  0.0030000  0  9G 1G 3G 8G15G25G21G23G29G31
   3521988.66046   2790564.36446  21872086.5464   21872091.3744
     -2234.3754      -1741.0714
  18742402.43643  14584519.78342  25183094.6474   25183105.3624
     -3547.4374      -2764.2374
   1251445.81645   1483269.62545  23921083.8824   23921089.5424
     -2459.4224      -1916.4334
  -8196205.05445  -6206645.73245  23423104.7494   23423110.5034
      2507.1254       1953.6044
  -9892060.56746  -7545830.67946  23066614.0074   23066619.2454
      2103.5004       1639.0914
   6523441.73346   5080554.05046  22456018.7884   22456023.6874
     -1702.6094      -1326.7094
  16468197.36444  12782818.09842  25123460.3974   25123468.2294
     -2675.7814      -2085.0244
  -9598030.43847  -7352086.17046  21347946.2264   21347949.5304
      -337.4374       -262.9384
   5129778.99145   4951615.35944  24414977.5774   24414983.3784
     -2646.5474      -2062.2444
 98  6 17  2 27 30.0030000  0  9G 1G 3G 8G15G25G21G23G29G31
   3589157.67147   2842903.85446  21884868.3904   21884872.8434
     -2244.1414      -1748.6814
  18848804.55843  14667430.45042  25203342.4214   25203348.9014
     -3546.5624      -2763.5554
   1325488.41245   1540965.13044  23935173.6014   23935179.6944
     -2477.3914      -1930.4344
  -8271289.28745  -6265152.90845  23408816.4214   23408821.9054
      2497.8914       1946.4084
  -9955024.79446  -7594893.62646  23054632.1014   23054636.7414
      2093.5634       1631.3474
   6574638.32646   5120447.47746  22465761.1014   22465766.6204
     -1711.0474      -1333.2834
  16548515.99844  12845404.00642  25138743.9134   25138749.7964
     -2679.2814      -2087.7524
  -9587734.91947  -7344063.67046  21349905.2724   21349908.6594
      -349.7034       -272.4964
   5209303.18445   5013582.21344  24430110.1404   24430116.5974
     -2655.5624      -2069.2694
 98  6 17  2 28  0.0030000  0  9G 1G 3G 8G15G25G21G23G29G31
   3656627.20347   2895477.50646  21897707.5384   21897711.9684
     -2254.2974      -1756.5954
  18955175.93243  14750317.15342  25223584.3974   25223592.5814
     -3545.4224      -2762.6664
   1400077.34245   1599086.35444  23949367.3194   23949372.9684
     -2495.5944      -1944.6194
  -8346092.24145  -6323440.86045  23394581.7724   23394587.3394
      2488.4224       1939.0304
 -10017681.90746  -7643717.26846  23042708.4054   23042713.2804
      2082.9064       1623.0444
   6626086.24246   5160536.75346  22475551.6084   22475556.7764
     -1719.3444      -1339.7484
  16628944.17144  12908075.22142  25154048.8514   25154055.3664
     -2683.2034      -2090.8084
  -9577058.40747  -7335744.29746  21351937.0074   21351940.8394
      -362.6874       -282.6144
   5289099.41345   5075761.02344  24445295.0304   24445300.8194
     -2664.6724      -2076.3684
 98  6 17  2 28 30.0030000  0  9G 1G 3G 8G15G25G21G23G29G31
   3724404.25247   2948290.79346  21910605.0074   21910609.3434
     -2264.2974      -1764.3874
  19061514.58443  14833178.32242  25243820.0774   25243827.8974
     -3543.7814      -2761.3884
   1475205.30445   1657627.62944  23963663.2334   23963669.7024
     -2512.9224      -1958.1214
  -8420605.94045  -6381503.46045  23380402.4994   23380407.1634
      2479.1094       1931.7744
 -10080003.78946  -7692279.69146  23030849.4294   23030854.2694
      2071.9384       1614.4974
   6677783.97046   5200820.66846  22485389.1874   22485394.4604
     -1727.2194      -1345.8854
  16709498.46443  12970844.80042  25169378.1164   25169383.3084
     -2687.1564      -2093.8884
  -9565976.03847  -7327108.67046  21354046.0074   21354049.2064
      -376.3594       -293.2674
   5369177.87045   5138159.77644  24460533.9834   24460539.7614
     -2674.0474      -2083.6734
 98  6 17  2 29  0.0030000  0  9G 1G 3G 8G15G25G21G23G29G31
   3792475.08946   3001332.99846  21923558.3124   21923563.1634
     -2273.7814      -1771.7784
  19167796.19143  14915995.05742  25264044.3044   25264052.3004
     -3541.7664      -2759.8174
   1550839.78445   1716563.57944  23978056.9524   23978062.2144
     -2529.3284      -1970.9054
  -8494844.96845  -6439352.02545  23366275.2184   23366281.0654
      2470.0634       1924.7244
 -10142013.90046  -7740599.18346  23019049.0464   23019054.2024
      2062.1254       1606.8514
   6729713.20246   5241284.99246  22495271.0934   22495276.6014
     -1734.7664      -1351.7654
  16790168.40143  13033704.45142  25184728.8824   25184734.6014
     -2690.8914      -2096.7984
  -9554489.32647  -7318157.97546  21356231.6714   21356234.9644
      -389.4224       -303.4464
   5449536.77245   5200777.05344  24475825.7104   24475831.5814
     -2683.4064      -2090.9664
 98  6 17  2 29 30.0030000  0  9G 1G 3G 8G15G25G21G23G29G31
   3860844.14146   3054607.58146  21936568.2884   21936573.1874
     -2283.8284      -1779.6064
  19274029.16943  14998773.92442  25284259.8904   25284265.7614
     -3540.3754      -2758.7344
   1626973.71045   1775888.70945  23992544.5544   23992550.0854
     -2546.2034      -1984.0544
  -8568797.52945  -6496977.36445  23352202.2724   23352208.0974
      2460.2034       1917.0414
 -10203723.59746  -7788684.58646  23007305.9914   23007310.7264
      2051.7344       1598.7544
   6781874.63546   5281930.25646  22505197.0384   22505201.9834
     -1742.4534      -1357.7564
  16870959.58444  13096658.58242  25200103.4214   25200113.5264
     -2695.0784      -2100.0614
  -9542595.79647  -7308890.28046  21358494.9374   21358498.3584
      -403.2814       -314.2454
   5530197.92245   5263629.85244  24491174.8124   24491180.5194
     -2693.8914      -2099.1364
 98  6 17  2 30  0.0030000  0  9G 1G 3G 8G15G25G21G23G29G31
   3929502.07246   3108107.26246  21949633.9444   21949638.8544
     -2293.0624      -1786.8024
  19380228.11843  15081526.24242  25304470.1404   25304476.3514
     -3539.3284      -2757.9184
   1703608.88945   1835604.41844  24007127.2804   24007132.4134
     -2562.4844      -1996.7414
  -8642455.58545  -6554373.20145  23338185.7334   23338191.2294
      2450.5634       1909.5294
 -10265108.26946  -7836516.71746  22995624.6324   22995629.3904
      2040.8134       1590.2444
   6834257.64446   5322748.15646  22515165.3124   22515170.6794
     -1749.4844      -1363.2354
  16951876.97144                  25215501.3124
     -2699.1254
  -9530301.76047  -7299310.49446  21360834.3824   21360837.5694
      -415.9064       -324.0834
   5611164.35145   5326720.52644  24506582.1084   24506588.1324
     -2703.5004      -2106.6234
 98  6 17  2 30 30.0030000  0  9G 1G 3G 8G15G25G21G23G29G31
   3998433.29246   3161819.89646  21962750.8434   21962755.5544
     -2302.4224      -1794.0954
  19486399.00243  15164256.71042  25324673.2184   25324679.3944
     -3538.6564      -2757.3944
   1780730.15745   1895698.91744  24021803.3434   24021808.9214
     -2578.9694      -2009.5864
  -8715822.23045  -6611541.96545  23324224.5384   23324230.5624
      2440.5944       1901.7614
 -10326169.21546  -7884096.59346  22984005.1794   22984009.8314
      2030.1414       1581.9284
   6886853.44146   5363731.87446  22525173.6324   22525179.1044
     -1756.8754      -1368.9944
  17032916.03043                  25230922.2264
     -2703.3284
  -9517645.48147  -7289448.44946  21363242.9444   21363246.4954
      -427.5944       -333.1904
   5692415.67545   5390033.20444  24522043.8194   24522049.5034
     -2713.2814      -2114.2454
 98  6 17  2 31  0.0030000  0  9G 1G 3G 8G15G25G21G23G29G31
   4067645.03246   3215751.11946  21975921.5154   21975926.4604
     -2311.8444      -1801.4374
  19592551.35043  15246972.74941  25344872.9214   25344882.2884
     -3538.2974      -2757.1144
   1858346.28845   1956179.01044  24036573.3434   24036578.5584
     -2595.5004      -2022.4684
  -8788894.89745  -6668481.67045  23310318.9834   23310324.6204
      2430.7504       1894.0914
 -10386922.34746  -7931436.62046  22972444.1014   22972448.1794
      2019.7814       1573.8564
   6939666.15246   5404884.62446  22535223.6714   22535228.6874
     -1764.2344      -1374.7284
  17114069.92743     44272.09952  25246365.5154   25246372.0074
     -2707.1254      -2109.4484
  -9504656.20247  -7279326.92746  21365714.4764   21365717.9214
      -438.5474       -341.7254
   5773950.65245   5453566.91444  24537559.8194   24537565.4094
     -2722.5474      -2121.4654
 98  6 17  2 31 30.0030000  0  9G 1G 3G 8G15G25G21G23G29G31
   4137137.63247   3269901.19446  21989145.7104   21989150.3864
     -2320.9374      -1808.5234
  19698693.09243  15329680.49942  25365071.9444   25365076.4214
     -3537.8594      -2756.7744
   1936454.71345   2017042.68744  24051436.4524   24051442.0304
     -2611.6414      -2035.0454
  -8861670.26445  -6725189.68345  23296470.2964   23296475.7694
      2420.9384       1886.4454
 -10447356.48046  -7978528.07746  22960943.8824   22960948.4994
      2009.1094       1565.5404
   6992701.84346   5446211.12546  22545316.1014   22545321.3274
     -1771.4844      -1380.3774
  17195345.66143    107603.79642  25261831.6474   25261840.7104
     -2711.2504      -2112.6624
  -9491327.30847  -7268940.75546  21368250.8354   21368254.1634
      -450.0314       -350.6744
   5855766.06645   5517319.14044  24553128.2724   24553133.7804
     -2731.7974      -2128.6734
 98  6 17  2 32  0.0030000  0  9G 1G 3G 8G15G25G21G23G29G31
   4206912.57147   3324271.28046  22002423.2334   22002427.6634
     -2330.4064      -1815.9014
  19804834.75242  15412388.21342  25385268.1944   25385274.6044
     -3537.8284      -2756.7494
   2015055.88345   2078290.35144  24066394.0304   24066399.8434
     -2628.1094      -2047.8774
  -8934140.82345  -6781660.18345  23282679.2654   23282684.7374
      2410.7504       1878.5064
 -10507464.90246  -8025365.74346  22949505.4444   22949509.5694
      1998.5634       1557.3214
   7045962.79446   5487713.14646  22555451.1324   22555455.9834
     -1779.0004      -1386.2344
  17276755.59243    171040.03642  25277324.4604   25277332.2104
     -2715.7034      -2116.1324
  -9477650.03547  -7258283.13046  21370853.6944   21370857.0224
      -461.3914       -359.5254
   5937864.56045   5581291.95244  24568751.4444   24568757.3154
     -2741.1564      -2135.9664
 98  6 17  2 32 30.0030000  0  9G 1G 3G 8G15G25G21G23G29G31
   4276955.66247   3378850.30946  22015752.0464   22015756.6284
     -2339.2194      -1822.7684
  19910955.15342  15495079.31841  25405463.8124   25405476.0854
     -3536.8914      -2756.0194
   2094142.51945   2139916.27744  24081443.9764   24081449.7414
     -2644.4844      -2060.6374
  -9006316.73345  -6837901.10045  23268944.8194   23268950.4094
      2400.8594       1870.8004
 -10567271.74546  -8071968.40946  22938124.7654   22938129.2064
      1988.3444       1549.3594
   7099438.07746   5529382.18246  22565627.1554   22565632.4764
     -1786.1874      -1391.8344
  17358279.17043    234564.94942  25292837.7024   25292846.1904
     -2719.2664      -2118.9084
  -9463643.84247  -7247369.20446  21373519.0304   21373522.2294
      -472.6414       -368.2914
   6020239.64045   5645480.26144  24584427.2724   24584432.9334
     -2750.6564      -2143.3694
 98  6 17  2 33  0.0030000  0  9G 1G 3G 8G15G25G21G23G29G31
   4347267.18747   3433638.51546  22029131.9214   22029136.5034
     -2348.3914      -1829.9154
  20017049.30842  15577750.01042  25425652.7184   25425657.7694
     -3536.2974      -2755.5564
   2173734.27545   2201935.78844  24096589.2104   24096594.8474
     -2661.8914      -2074.2004
  -9078186.99045  -6893903.84745  23255268.4214   23255273.6474
      2390.1414       1862.4474
 -10626750.40046  -8118315.34546  22926806.3044   22926811.0974
      1976.4694       1540.1064
   7153137.17146   5571225.63146  22575845.6474   22575851.3314
     -1794.0474      -1397.9594
  17439916.10943    298178.10541  25308372.4684   25308382.4564
     -2723.5944      -2122.2814
  -9449278.22447  -7236175.20746  21376252.7884   21376256.2694
      -485.5474       -378.3484
   6102909.67645   5709898.42945  24600158.7964   24600164.3044
     -2760.9224      -2151.3684
 98  6 17  2 33 30.0030000  0  9G 1G 3G 8G15G25G21G23G29G31
   4417826.44447   3488619.75046  22042558.7334   22042563.3274
     -2356.2344      -1836.0274
  20123100.20843  15660387.00442  25445834.2884   25445838.7064
     -3534.4374      -2754.1074
   2253828.88945   2264347.16744  24111831.3974   24111835.8974
     -2678.5944      -2087.2164
  -9149751.72045  -6949668.52145  23241650.1474   23241655.1514
      2380.1884       1854.6924
 -10685889.51046  -8164397.70746  22915552.1404   22915557.2024
      1965.5634       1531.6074
   7207050.01046   5613235.61646  22586105.4374   22586111.0974
     -1800.7034      -1403.1454
  17521671.55643    361883.55242  25323930.1324   25323937.9294
     -2727.2664      -2125.1424
  -9434539.47647  -7224690.45546  21379057.4374   21379060.9994
      -497.5474       -387.6994
   6185865.27445   5774539.11045  24615944.8904   24615950.6324
     -2769.9844      -2158.4294
 98  6 17  2 34  0.0030000  0  9G 1G 3G 8G15G25G21G23G29G31
   4488639.50846   3543798.75846  22056034.0694   22056038.7924
     -2364.5314      -1842.4924
  20229112.86643  15742994.15442  25466007.8584   25466013.8354
     -3532.8914      -2752.9024
   2334457.78145   2327174.86944  24127174.2334   24127179.6834
     -2696.6724      -2101.3034
  -9220999.17645  -7005185.96245  23228092.3044   23228098.2804
      2369.6884       1846.5104
 -10744683.07646  -8210210.79646  22904364.1714   22904369.0694
      1953.9534       1522.5614
   7261180.73246   5655415.40246  22596405.6404   22596411.3704
     -1808.0784      -1408.8924
  17603543.19743    425679.55541  25339509.4374   25339516.7884
     -2730.8124      -2127.9064
  -9419436.84847  -7212922.16046  21381931.2884   21381934.9684
      -509.3124       -396.8674
   6269099.38945   5839396.78944  24631783.7964   24631790.4174
     -2778.8284      -2165.3214
 98  6 17  2 34 30.0030000  0  9G 1G 3G 8G15G25G21G23G29G31
   4559693.39247   3599165.41546  22069555.3124   22069559.9764
     -2372.4694      -1848.6774
  20335068.01643  15825556.52342  25486170.1944   25486176.8514
     -3530.6874      -2751.1854
   2415621.31945   2390419.17744  24142619.4054   24142624.6444
     -2714.1874      -2114.9514
  -9291933.36546  -7060459.31245  23214593.6014   23214599.0384
      2359.2504       1838.3774
 -10803117.45546  -8255744.01646  22893244.5854   22893249.3664
      1941.6094       1512.9424
   7315538.15446   5697771.81146  22606749.5854   22606755.0114
     -1815.6874      -1414.8214
  17685520.38643    489557.91842  25355109.1014   25355116.6284
     -2734.4064      -2130.7064
  -9403974.16247  -7200873.30646  21384873.7804   21384877.2264
      -521.7034       -406.5224
   6352590.43545   5904454.70844  24647671.4834   24647677.0974
     -2787.1254      -2171.7864
 98  6 17  2 35  0.0030000  0  9G 1G 3G 8G15G25G21G23G29G31
   4630994.39247   3654724.63346  22083123.4994   22083127.8124
     -2381.0314      -1855.3494
  20440957.68443  15908067.83242  25506320.6474   25506326.6714
     -3528.5944      -2749.5544
   2497305.01745   2454068.80344  24158162.7574   24158168.2064
     -2731.1254      -2128.1494
  -9362551.03046  -7115486.01845  23201155.6474   23201161.1554
      2348.5784       1830.0614
 -10861181.52646  -8300988.68746  22882194.9374   22882199.4834
      1929.5314       1503.5314
   7370128.54646   5740309.77546  22617137.8904   22617143.8664
     -1823.6724      -1421.0434
  17767613.47543    553526.51942  25370730.6014   25370738.0224
     -2738.4534      -2133.8604
  -9388134.04047  -7188530.34346  21387887.9374   21387891.2414
      -534.2814       -416.3234
   6436324.93945   5969702.32644  24663605.5694   24663611.8624
     -2794.9534      -2177.8864
 98  6 17  2 35 30.0030000  0  9G 1G 3G 8G15G25G21G23G29G31
   4702553.78847   3710485.20346  22096740.8354   22096745.2184
     -2389.7034      -1862.1064
  20546783.56043  15990529.50442  25526458.7964   25526464.7614
     -3526.5164      -2747.9344
   2579484.74145   2518104.95444  24173801.3354   24173807.5224
     -2747.5164      -2140.9214
  -9432845.09946  -7170260.57345  23187779.0154   23187784.4994
      2337.5944       1821.5024
 -10918894.99646  -8345960.15346  22871212.2654   22871217.0224
      1918.0474       1494.5824
   7424966.29746   5783040.48546  22627573.2884   22627578.4214
     -1832.3284      -1427.7884
  17849829.44543    617590.84041  25386377.3584   25386386.6204
     -2742.5314      -2137.0374
  -9371919.61747  -7175895.71746  21390973.3514   21390976.8664
      -546.6724       -425.9784
   6520283.34645   6035124.41144  24679582.1634   24679588.3154
     -2802.3914      -2183.6814
 98  6 17  2 36  0.0030000  0  9G 1G 3G 8G15G25G21G23G29G31
   4774369.17147   3766445.23646  22110406.6324   22110410.9564
     -2398.5474      -1868.9984
  20652534.61943  16072932.81242  25546582.4764   25546589.2264
     -3524.0164      -2745.9864
   2662140.77345   2582512.21444  24189530.2964   24189535.0654
     -2763.1414      -2153.0974
  -9502816.24745  -7224783.51245  23174464.0624   23174469.5814
      2326.6094       1812.9424
 -10976267.13046  -8390665.64946  22860294.7334   22860299.4684
      1906.1884       1485.3414
   7480055.35046   5825967.00646  22638056.3354   22638062.1124
     -1840.8284      -1434.4124
  17932152.14743    681738.40942  25402042.2334   25402051.5654
     -2746.2974      -2139.9724
  -9355343.27747  -7162979.08346  21394127.7804   21394131.3904
      -559.0314       -435.6094
   6604459.21645   6100715.95044  24695600.9214   24695606.8974
     -2809.9694      -2189.5864
 98  6 17  2 36 30.0030000  0  9G 1G 3G 8G15G25G21G23G29G31
   4846451.81747   3822613.52346  22124123.7414   22124128.0424
     -2407.4064      -1875.9014
  20758201.06643  16155270.21042  25566689.8664   25566696.1244
     -3520.8124      -2743.4904
   2745246.12445   2647269.61444  24205344.2964   24205348.9834
     -2777.6094      -2164.3714
  -9572463.10646  -7279053.74745  23161210.5854   23161215.9294
      2316.1414       1804.7854
 -11033291.90146  -8435100.46946  22849443.6084   22849448.3314
      1895.2194       1476.7944
   7535393.09846   5869087.32546  22648586.8354   22648591.8744
     -1848.5314      -1440.4144
  18014592.36243    745977.46441  25417729.2104   25417736.9134
     -2750.0944      -2142.9304
  -9338393.42247  -7149771.39646  21397353.2724   21397356.4254
      -571.1414       -445.0454
   6688867.90944   6166488.90944  24711662.8974   24711668.6044
     -2817.7034      -2195.6134
 98  6 17  2 37  0.0030000  0  9G 1G 3G 8G15G25G21G23G29G31
   4918816.67147   3879001.70546  22137894.3274   22137898.8044
     -2416.6874      -1883.1334
  20863790.39542  16237547.51142  25586782.9054   25586790.6204
     -3518.2504      -2741.4944
   2828804.44045   2712379.97344  24221245.3514   24221250.7884
     -2792.7814      -2176.1934
  -9641780.27746  -7333067.10345  23148020.0464   23148025.6834
      2305.1884       1796.2504
 -11089981.79046  -8479274.35646  22838655.8194   22838660.1324
      1884.2974       1468.2834
   7590966.27546   5912391.09046  22659162.1944   22659167.5034
     -1856.2344      -1446.4164
  18097158.11443    810314.40242  25433441.2804   25433447.5974
     -2754.0784      -2146.0354
  -9321081.47047  -7136281.54846  21400647.4684   21400650.7614
      -582.7504       -454.0914
   6773528.22845   6232457.92744  24727773.0694   24727779.3274
     -2826.2344      -2202.2614
 98  6 17  2 37 30.0030000  0  9G 1G 3G 8G15G25G21G23G29G31
   4991454.14447   3935602.32646  22151716.8194   22151721.3544
     -2425.4844      -1889.9884
  20969303.48042  16319765.35042  25606862.0694   25606871.2844
     -3515.7814      -2739.5704
   2912825.65245   2777851.04744  24237234.1164   24237239.2024
     -2808.6094      -2188.5274
  -9710764.83846  -7386821.26545  23134892.7884   23134898.4254
      2294.0164       1787.5454
 -11146336.23746  -8523186.85846  22827931.7964   22827936.0504
      1872.7504       1459.2864
   7646776.16346   5955879.30946  22669782.5224   22669787.7494
     -1864.0474      -1452.5044
  18179849.54643    874749.25342  25449177.3584   25449182.4214
     -2758.4844      -2149.4684
  -9303425.29647  -7122523.47946  21404007.5154   21404010.8084
      -594.0314       -462.8814
   6858457.02244   6298636.13444  24743934.7724   24743939.8474
     -2835.6414      -2209.5904
 98  6 17  2 38  0.0030000  0  9G 1G 3G 8G15G25G21G23G29G31
   5064360.77447   3992412.68146  22165590.4684   22165595.0034
     -2434.9534      -1897.3664
  21074745.35642  16401927.65041  25626927.2264   25626933.2844
     -3513.5624      -2737.8414
   2997335.66645   2843702.98544  24253315.8274   24253321.6634
     -2825.1564      -2201.4204
  -9779413.03345  -7440313.32845  23121829.0934   23121834.4014
      2282.5944       1778.6444
 -11202326.79146  -8566815.79446  22817277.1164   22817281.7924
      1859.9844       1449.3384
   7702811.29746   5999543.05246  22680445.8274   22680451.1594
     -1871.6874      -1458.4584
  18262676.25543    939289.51042  25464939.1084   25464948.2764
     -2763.3444      -2153.2554
  -9285433.91947  -7108504.21246  21407431.2654   21407434.8974
      -605.2814       -471.6484
   6943671.66744   6365037.11744  24760150.0384   24760156.9444
     -2845.2344      -2217.0664
 98  6 17  2 38 30.0030000  0  9G 1G 3G 8G15G25G21G23G29G31
   5137542.73747   4049437.56546  22179516.1084   22179520.7494
     -2443.5784      -1904.0874
  21180114.10542  16484033.12441  25646977.7724   25646986.5894
     -3510.9374      -2735.7954
   3082333.68245   2909935.21544  24269490.1634   24269494.8974
     -2841.3284      -2214.0224
  -9847721.97346  -7493541.03845  23108830.7264   23108836.1404
      2271.3754       1769.9034
 -11257940.34646  -8610150.97946  22806694.1244   22806698.6474
      1847.5944       1439.6834
   7759081.20546   6043389.72946  22691153.4054   22691159.2654
     -1879.5314      -1464.5704
  18345651.05843   1003945.16842  25480728.4294   25480735.6984
     -2768.1414      -2156.9934
  -9267109.60047  -7094225.52046  21410917.8274   21410921.3314
      -616.1724       -480.1344
   7029165.32644   6431655.49643  24776419.7024   24776425.6794
     -2854.0624      -2223.9454
 98  6 17  2 39  0.0030000  0  9G 1G 3G 8G15G25G21G23G29G31
   5210965.93746   4106650.44246  22193488.2884   22193493.0934
     -2450.9844      -1909.8584
  21285400.75343  16566074.51241  25667013.2964   25667019.9874
     -3507.8754      -2733.4094
   3167809.69445   2976539.86243  24285755.4604   24285761.9404
     -2856.8444      -2226.1124
  -9915693.59346  -7546505.90145  23095895.9604   23095901.5974
      2260.2974       1761.2704
 -11313176.94546  -8653192.42646  22796183.2964   22796187.7264
      1835.0784       1429.9314
   7815587.31446   6087420.45946  22701905.9134   22701911.1874
     -1887.4694      -1470.7554
  18428758.97143   1068704.56142  25496543.1324   25496549.2844
     -2772.1094      -2160.0854
  -9248462.13347  -7079695.01746  21414466.4054   21414469.3944
      -626.8754       -488.4744
   7114908.62944   6498468.40043  24792736.4764   24792741.8544
     -2861.7814      -2229.9594
 98  6 17  2 39 30.0030000  0  9G 1G 3G 8G15G25G21G23G29G31
   5284617.96846   4164041.62146  22207503.8434   22207508.7414
     -2458.7974      -1915.9464
  21390598.46043  16648046.64441  25687031.8274   25687040.8314
     -3505.0784      -2731.2304
   3253754.28245   3043509.64043  24302110.5934   24302115.7494
     -2872.4694      -2238.2874
  -9983323.27946  -7599204.34245  23083026.6324   23083032.1754
      2248.6884       1752.2244
 -11368027.76146  -8695933.26746  22785745.1014   22785749.5544
      1821.9384       1419.6924
   7872345.77846   6131647.81946  22712707.0074   22712712.7024
     -1895.8914      -1477.3174
  18511996.18243   1133564.70242  25512383.0154   25512391.1044
     -2776.7504      -2163.7014
  -9229475.83747  -7064900.49346  21418079.5154   21418082.5974
      -638.5624       -497.5814
   7200879.40444   6565458.55443  24809095.6324   24809101.2454
     -2869.1094      -2235.6704
 98  6 17  2 40  0.0030000  0  9G 1G 3G 8G15G25G21G23G29G31
   5358502.48446   4221613.96546  22221563.6714   22221568.4524
     -2466.9534      -1922.3014
  21495708.18742  16729950.19641  25707033.1944   25707040.8154
     -3502.3914      -2729.1364
   3340164.22045   3110842.09244  24318553.1014   24318558.5154
     -2888.1874      -2250.5364
 -10050609.19246  -7651634.89045  23070222.1554   23070227.6044
      2236.8754       1743.0194
 -11422486.82346  -8738368.84746  22775381.7804   22775386.2334
      1808.6724       1409.3554
   7929345.26646   6176062.99546  22723553.7184   22723558.5344
     -1904.3124      -1483.8804
  18595365.88043   1198528.11442  25528247.3274   25528255.2294
     -2781.3754      -2167.3054
  -9210137.73747  -7049831.83146  21421759.3824   21421762.6754
      -650.8754       -507.1754
   7287050.48344   6632604.79743  24825493.3664   24825498.6284
     -2875.8124      -2240.8934
 98  6 17  2 40 30.0030000  0  9G 1G 3G 8G15G25G21G23G29G31
   5432611.14846   4279360.96946  22235665.9994   22235670.9444
     -2473.8284      -1927.6584
  21600732.47142  16811787.26441  25727018.3044   25727027.0974
     -3499.6564      -2727.0054
   3427031.61545   3178530.96243  24335084.2574   24335091.0074
     -2903.4064      -2262.3944
 -10117549.69346  -7703796.29645  23057483.9374   23057489.9254
      2225.4694       1734.1314
 -11476570.73746  -8780512.11246  22765090.1944   22765094.3784
      1796.6094       1399.9554
   7986584.79646   6220665.20746  22734445.7654   22734450.6404
     -1911.8754      -1489.7734
  18678861.83843   1263589.90542  25544135.6084   25544140.7064
     -2785.2814      -2170.3494
  -9190430.20647  -7034475.30646  21425509.6404   21425513.0974
      -663.2814       -516.8434
   7373416.92544   6699903.24743  24841928.8664   24841933.9994
     -2882.2194      -2245.8854
 98  6 17  2 41  0.0030000  0  8G 1G 3G 8G15G25G21G29G31
   5506931.58446   4337272.97946  22249808.8744   22249813.8544
     -2481.2194      -1933.4174
  21705686.44742  16893569.42641  25746991.7494   25746994.0464
     -3497.4694      -2725.3004
   3514366.07244   3246583.74043  24351703.2964   24351708.1944
     -2919.1874      -2274.6924
 -10184139.74646  -7755684.61345  23044811.8664   23044817.8544
      2213.6254       1724.9034
 -11530288.35446  -8822369.92546  22754868.0464   22754872.4054
      1784.3754       1390.4224
   8044052.93946   6265445.57446  22745382.0304   22745387.0464
     -1919.7034      -1495.8734
  -9170347.12547  -7018826.14446  21429331.2964   21429334.8234
      -675.7504       -526.5584
   7459979.45844   6767354.54943  24858401.4294   24858408.6404
     -2889.0164      -2251.1814
 98  6 17  2 41 30.0030000  0  8G 1G 3G 8G15G25G21G29G31
   5581477.81446   4395360.93346  22263994.4444   22263998.9914
     -2488.7194      -1939.2614
  21810568.84143  16975295.87941  25766950.0544   25766961.9764
     -3494.9844      -2723.3644
   3602172.07745   3315004.02843  24368411.8194   24368417.7724
     -2934.7814      -2286.8434
 -10250377.30646  -7807298.26645  23032207.6014   23032213.4254
      2201.9844       1715.8324
 -11583645.02046  -8863946.49746  22744714.2804   22744718.6404
      1772.4694       1381.1444
   8101751.40446   6310405.40346  22756361.3274   22756366.0854
     -1927.0004      -1501.5584
  -9149895.91147  -7002890.12246  21433223.1554   21433226.3664
      -687.8284       -535.9704
   7546749.44744   6834967.47943  24874912.9134   24874919.5814
     -2895.9374      -2256.5754
 98  6 17  2 42  0.0030000  0  7G 1G 8G15G25G21G29G31
   5656249.53546   4453624.61246  22278222.9134   22278227.4254
     -2496.3284      -1945.1914
   3690450.08944   3383792.04843  24385211.3514   24385216.3784
     -2950.5474      -2299.1274
 -10316261.27846  -7858636.39445  23019670.3354   23019676.3474
      2189.9844       1706.4814
 -11636644.11846  -8905244.43846  22734628.9914   22734633.5504
      1760.5474       1371.8554
   8159672.76446   6355538.92546  22767383.3824   22767388.6904
     -1934.8444      -1507.6704
  -9129087.40547  -6986675.69346  21437182.7104   21437185.9564
      -699.6414       -545.1754
   7633736.31743   6902749.38743  24891466.1164   24891472.3394
     -2903.4694      -2262.4434
 98  6 17  2 42 30.0030000  0  7G 1G 8G15G25G21G29G31
   5731243.38346   4512061.36946  22292493.9914   22292498.7144
     -2503.4534      -1950.7434
   3779180.20345   3452932.39843  24402095.8434   24402101.8434
     -2964.9374      -2310.3414
 -10381789.81146  -7909697.56045  23007200.7264   23007205.9524
      2178.4064       1697.4594
 -11689292.99546  -8946269.48346  22724610.2104   22724614.6284
      1749.1094       1362.9424
   8217830.20346   6400856.39346  22778450.5544   22778455.6404
     -1942.5164      -1513.6494
  -9107939.67347  -6970196.92746  21441206.8824   21441210.0584
      -710.2344       -553.4294
   7720940.48944   6970700.63443  24908060.4914   24908066.7964
     -2910.2034      -2267.6914
 98  6 17  2 43  0.0030000  0  7G 1G 8G15G25G21G29G31
   5806472.60746   4570681.53346  22306809.6084   22306814.1904
     -2511.5784      -1957.0744
   3868353.74244   3522418.25643  24419064.6634   24419069.0114
     -2979.6724      -2321.8224
 -10446953.84246  -7960474.69645  22994800.1874   22994805.2614
      2166.1564       1687.9144
 -11741577.27446  -8987010.41946  22714660.7724   22714664.9214
      1736.7664       1353.3244
   8276239.41046   6446370.05946  22789565.4524   22789571.1124
     -1951.1564      -1520.3814
  -9086466.53947  -6953464.60146  21445293.2104   21445296.5974
      -721.0474       -561.8554
   7808363.24844   7038822.19243  24924696.3974   24924702.7724
     -2917.8444      -2273.6444
 98  6 17  2 43 30.0030000  0  7G 1G 8G15G25G21G29G31
   5881948.80146   4629494.14646  22321172.2964   22321176.8194
     -2520.3124      -1963.8804
   3957970.68645   3592249.62843  24436118.3974   24436124.1634
     -2994.9694      -2333.7424
 -10511750.55246  -8010965.61345  22982470.1554   22982475.5464
      2153.4384       1678.0034
 -11793489.75446  -9027461.64346  22704782.0074   22704786.2964
      1723.9384       1343.3284
   8334904.98646   6492083.48746  22800729.2494   22800733.9724
     -1959.8914      -1527.1874
  -9064664.45447  -6936475.96146  21449442.1244   21449445.4764
      -732.6254       -570.8774
   7896015.03544   7107122.20843  24941376.3124   24941381.6794
     -2925.6874      -2279.7564
 98  6 17  2 44  0.0030000  0  7G 1G 8G15G25G21G29G31
   5957673.30846   4688500.25146  22335582.0694   22335586.5934
     -2528.0474      -1969.9074
   4048035.63945   3662430.07943  24453257.4764   24453262.9374
     -3009.3914      -2344.9804
 -10576175.52546  -8061166.85445  22970210.2264   22970215.9914
      2141.4534       1668.6654
 -11845028.36646  -9067621.54846  22694974.8744   22694978.9874
      1711.7664       1333.8434
   8393822.01346   6537992.84545  22811940.7494   22811946.1754
     -1968.0784      -1533.5674
  -9042528.92747  -6919227.48646  21453654.3274   21453657.8784
      -743.2974       -579.1924
   7983878.87244   7175587.50743  24958096.5854   24958102.7844
     -2931.9064      -2284.6024
 98  6 17  2 44 30.0030000  0  7G 1G 8G15G25G21G29G31
   6033638.20746   4747693.67546  22350037.6404   22350042.1164
     -2536.2194      -1976.2744
   4138542.25445   3732954.71343  24470480.7024   24470486.4334
     -3024.5784      -2356.8144
 -10640231.07046  -8111080.22745  22958020.7024   22958025.8004
      2128.8754       1658.8644
 -11896182.66546  -9107481.98646  22685240.2574   22685244.5934
      1698.5164       1323.5194
   8452993.60546   6584100.56645  22823200.6164   22823205.2454
     -1976.6414      -1540.2394
  -9020058.23747  -6901717.84746  21457930.3824   21457933.6754
      -754.7344       -588.1054
   8071932.36844   7244200.54743  24974852.1404   24974858.1284
     -2938.4064      -2289.6674
 98  6 17  2 45  0.0030000  0  7G 1G 8G15G25G21G29G31
   6109840.29747   4807071.92646  22364538.6324   22364543.1444
     -2543.8444      -1982.2164
   4229520.94645   3803847.21043  24487793.1944   24487798.9724
     -3040.6564      -2369.3434
 -10703908.31246  -8160698.82045  22945903.6794   22945909.0224
      2116.2814       1649.0504
 -11946939.58046  -9147032.77546  22675581.5464   22675585.6944
      1685.2974       1313.2184
   8512415.46846   6630403.29545  22834507.9604   22834513.4214
     -1984.8914      -1546.6684
  -8997236.35247  -6883934.54146  21462273.3744   21462276.5264
      -766.7344       -597.4554
   8160184.09544   7312968.08243  24991646.4374   24991653.9644
     -2944.9064      -2294.7324
 98  6 17  2 45 30.0030000  0  7G 1G 8G15G25G21G29G31
   6186268.17346   4866626.10646  22379082.5074   22379087.1244
     -2551.2974      -1988.0244
   4320982.34145   3875115.80043  24505197.5774   24505201.5734
     -3056.7814      -2381.9074
 -10767210.07246  -8210024.83345  22933857.4604   22933863.0154
      2103.7814       1639.3104
 -11997302.17246  -9186276.30646  22665997.8904   22666001.9914
      1672.1254       1302.9554
   8572087.68346   6676901.11345  22845863.5544   22845868.9914
     -1993.2034      -1553.1454
  -8974062.21447  -6865876.75546  21466682.9294   21466686.4794
      -778.1094       -606.3194
   8248609.88144   7381871.24443  25008473.4684   25008479.4214
     -2950.0784      -2298.7624
 98  6 17  2 46  0.0030000  0  7G 1G 8G15G25G21G29G31
   6262919.30246   4926354.25946  22393668.6404   22393673.5384
     -2558.5314      -1993.6614
   4412928.81345   3946762.38544  24522694.2724   24522699.8274
     -3072.7814      -2394.3754
 -10830129.63646  -8259053.02545  22921884.3434   22921889.6634
      2091.0314       1629.3754
 -12047254.26046  -9225199.96346  22656492.1164   22656496.2064
      1658.1564       1292.0704
   8632015.90146   6723598.41345  22857267.3824   22857272.2574
     -2001.8444      -1559.8784
  -8950544.77547  -6847551.46646  21471158.1634   21471161.5154
      -789.5944       -615.2684
   8337196.67044   7450899.81343  25025330.7884   25025336.1554
     -2955.5784      -2303.0484
 98  6 17  2 46 30.0030000  0  7G 1G 8G15G25G21G29G31
   6339787.71646   4986251.71746  22408296.0464   22408300.7574
     -2565.6564      -1999.2134
   4505350.17745   4018779.03944  24540281.6014   24540287.2494
     -3088.2814      -2406.4534
 -10892664.03646  -8307781.08145  22909984.0304   22909989.8544
      2078.2974       1619.4524
 -12096783.78946  -9263794.35746  22647066.9134   22647070.9564
      1644.4224       1281.3684
   8692204.13046   6770498.33545  22868720.9444   22868726.5464
     -2010.2664      -1566.4414
  -8926684.84247  -6828959.30546  21475698.5224   21475701.7694
      -800.5944       -623.8394
   8425963.84544   7520068.99543  25042221.8044   25042228.0384
     -2961.9224      -2307.9914
 98  6 17  2 47  0.0030000  0  7G 1G 8G15G25G21G29G31
   6416872.69746   5046317.93746  22422964.8124   22422969.2764
     -2573.0004      -2004.9354
   4598235.82545   4091157.43743  24557957.1554   24557962.5464
     -3103.4844      -2418.3004
 -10954814.21046  -8356209.74245  22898157.5934   22898163.1124
      2065.3914       1609.3954
 -12145911.96946  -9302076.01446  22637718.4054   22637722.7294
      1631.0474       1270.9464
   8752646.87446   6817596.56545  22880222.8974   22880228.1944
     -2019.0624      -1573.2954
  -8902494.09147  -6810109.35246  21480302.0624   21480305.4604
      -811.7504       -632.5324
   8514923.95144   7589388.43443  25059150.6554   25059157.2294
     -2968.3124      -2312.9714
 98  6 17  2 47 30.0030000  0  7G 1G 8G15G25G21G29G31
   6494178.29046   5106556.06546  22437675.6244   22437680.3944
     -2580.5784      -2010.8404
   4691559.60844   4163877.25743  24575715.9994   24575721.5654
     -3117.8444      -2429.4894
 -11016577.43346  -8404336.88646  22886404.4834   22886409.5224
      2052.2504       1599.1564
 -12194638.64846  -9340044.80146  22628445.8514   22628449.8944
      1617.4694       1260.3654
   8813351.75846   6864899.06745  22891774.7264   22891779.7654
     -2027.7344      -1580.0534
  -8877977.02747  -6791005.14046  21484967.5464   21484970.9444
      -822.5784       -640.9704
   8604074.56644   7658856.41343  25076115.6474   25076123.7374
     -2974.9374      -2318.1334
 98  6 17  2 48  0.0030000  0  7G 1G 8G15G25G21G29G31
   6571701.94246   5166964.10246  22452428.0304   22452432.8824
     -2587.5314      -2016.2584
   4785293.87044   4236916.92043  24593553.4134   24593559.1324
     -3131.0164      -2439.7524
 -11077948.05946  -8452158.11446  22874725.8974   22874731.2654
      2039.1884       1588.9774
 -12242957.03846  -9377695.45646  22619250.9914   22619255.0224
      1603.8594       1249.7614
   8874310.37446   6912399.27945  22903374.5934   22903379.9374
     -2036.1724      -1586.6274
  -8853132.83247  -6771646.02146  21489694.8974   21489698.3784
      -833.6254       -649.5784
   8693422.10444   7728477.74643  25093118.3274   25093124.5854
     -2981.4224      -2323.1864
 98  6 17  2 48 30.0030000  0  7G 1G 8G15G25G21G29G31
   6649424.12346   5227526.84046  22467217.9214   22467222.6204
     -2594.1564      -2021.4204
   4879416.24344   4310258.99043  24611463.6794   24611468.7414
     -3144.0164      -2449.8824
 -11138930.48646  -8499676.83246  22863121.2494   22863126.3824
      2026.1414       1578.8114
 -12290878.42946  -9415036.75746  22610131.7334   22610135.8824
      1590.8284       1239.6064
   8935515.67246   6960091.70345  22915021.4834   22915026.6514
     -2044.3284      -1592.9834
  -8827965.89447  -6752035.41046  21494484.1874   21494487.5264
      -844.2974       -657.8944
   8782951.38544   7798240.79743  25110154.9684   25110161.9914
     -2987.2664      -2327.7394
 98  6 17  2 49  0.0030000  0  7G 1G 8G15G25G21G29G31
   6727342.67646   5288242.59546  22482045.1244   22482049.8824
     -2600.1564      -2026.0964
   4973931.94544   4383907.55643  24629449.8664   24629456.0654
     -3156.7814      -2459.8304
 -11199519.63146  -8546889.11146  22851591.8194   22851596.7884
      2013.3444       1568.8394
 -12338408.26146  -9452072.94346  22601087.2264   22601091.2694
      1577.7974       1229.4524
   8996964.36646   7007973.79545  22926714.8744   22926720.5694
     -2051.9694      -1598.9374
  -8802475.91547  -6732173.08246  21499334.8434   21499338.0654
      -854.7034       -666.0024
   8872643.36044   7868130.58243  25127222.4994   25127229.0624
     -2992.0004      -2331.4294
 98  6 17  2 49 30.0030000  0  7G 1G 8G15G25G21G29G31
   6805454.99146   5349109.32246  22496909.5304   22496914.5584
     -2606.7814      -2031.2584
   5068841.34645   4457862.89143  24647510.6324   24647516.3974
     -3170.0164      -2470.1424
 -11259710.25146  -8593790.85646  22840137.7104   22840142.7144
      1999.9694       1558.4174
 -12385523.10446  -9488785.76246  22592121.3584   22592125.3544
      1563.7974       1218.5434
   9058649.22346   7056039.90645  22938452.8744   22938457.9134
     -2059.7034      -1604.9634
  -8776667.74347  -6712062.81846  21504246.0544   21504249.4054
      -865.2194       -674.1964
   8962492.20144   7938142.57343  25144320.8824   25144327.7654
     -2997.2814      -2335.5444
 98  6 17  2 50  0.0030000  0  7G 1G 8G15G25G21G29G31
   6883766.77546   5410131.49746  22511811.6634   22511816.7264
     -2613.6874      -2036.6404
   5164149.41445   4532128.96242  24665647.1794   24665653.1204
     -3183.8754      -2480.9424
 -11319499.26546  -8640379.64946  22828760.1944   22828765.4214
      1986.1724       1547.6664
 -12432216.14646  -9525169.90646  22583236.1244   22583240.3314
      1549.3284       1207.2694
   9120567.14846   7104287.62445  22950235.7654   22950241.2144
     -2067.7974      -1611.2704
  -8750541.16847  -6691704.42746  21509217.5304   21509220.8234
      -876.3914       -682.9024
   9052496.35044   8008275.62343  25161447.7884   25161453.1904
     -3002.9224      -2339.9394
 98  6 17  2 50 30.0030000  0  7G 1G 8G15G25G21G29G31
   6962266.81446   5471300.34846  22526749.8904   22526754.5654
     -2619.9844      -2041.5464
   5259867.08144   4606714.10343  24683861.2334   24683867.1164
     -3197.4694      -2491.5344
 -11378892.89246  -8686660.36046  22817457.7104   22817462.7614
      1973.1414       1537.5124
 -12478499.52546  -9561234.84046  22574428.3194   22574432.6444
      1536.0164       1196.8954
   9182703.16046   7152705.27945  22962059.7334   22962065.1714
     -2074.8594      -1616.7744
  -8724100.70547  -6671101.46246  21514249.2804   21514252.6324
      -886.5004       -690.7794
   9142657.10544   8078530.67643  25178605.2264   25178612.2724
     -3008.1414      -2344.0064
 98  6 17  2 51  0.0030000  0  7G 1G 8G15G25G21G29G31
   7040972.87446   5532629.74146  22541727.1554   22541732.4054
     -2626.8284      -2046.8794
   5356000.27644   4681623.03743  24702154.7654   24702160.4134
     -3211.1254      -2502.1754
 -11437881.33346  -8732625.33346  22806232.5154   22806237.7654
      1959.7034       1527.0414
 -12524365.75946  -9596974.72646  22565700.4834   22565704.5384
      1521.9384       1185.9254
   9245064.15246   7201298.23145  22973926.7104   22973931.7494
     -2082.2664      -1622.5454
  -8697351.57247  -6650257.98346  21519339.3434   21519342.8474
      -896.5004       -698.5714
   9232990.46544   8148920.25943  25195795.0694   25195802.6444
     -3013.7664      -2348.3894
 98  6 17  2 51 30.0030000  0  7G 1G 8G15G25G21G29G31
   7119878.32346   5594114.49846  22556742.3194   22556747.5344
     -2633.9694      -2052.4434
   5452534.68544   4756844.67942  24720524.8194   24720530.7724
     -3224.9844      -2512.9754
 -11496472.21346  -8778280.52346  22795083.4214   22795088.9994
      1945.9064       1516.2914
 -12569818.45946  -9632392.36846  22557051.0774   22557054.9564
      1507.9534       1175.0284
   9307645.77846   7250063.11045  22985835.6634   22985840.4914
     -2090.2344      -1628.7544
  -8670305.28147  -6629182.93746  21524485.9834   21524489.0654
      -907.1414       -706.8634
   9323483.96144   8219434.58142  25213015.0224   25213020.2494
     -3019.3594      -2352.7484
 98  6 17  2 52  0.0030000  0  7G 1G 8G15G25G21G29G31
   7198984.18646   5655755.42646  22571795.7414   22571800.3234
     -2639.9534      -2057.1064
   5549483.91644   4832389.52042  24738973.4374   24738977.7024
     -3238.5624      -2523.5554
 -11554652.44846  -8823615.74046  22784011.7024   22784016.9404
      1932.5004       1505.8444
 -12614859.72746  -9667489.41046  22548480.0224   22548483.9014
      1494.5944       1164.6194
   9370461.75746   7299010.60345  22997789.2804   22997794.6014
     -2097.7814      -1634.6354
  -8642942.10847  -6607860.98046  21529693.0464   21529696.1634
      -917.3284       -714.8014
   9414133.84744   8290070.82143  25230265.7024   25230272.0894
     -3024.2504      -2356.5584
 98  6 17  2 52 30.0030000  0  7G 1G 8G15G25G21G29G31
   7278277.98546   5717542.79646  22586884.8274   22586889.6904
     -2646.5944      -2062.2814
   5646844.32244   4908254.74642  24757500.8194   24757506.0224
     -3252.1874      -2534.1724
 -11612422.62646  -8868631.43546  22773018.6084   22773024.0344
      1918.6564       1495.0574
 -12659497.99846  -9702272.43846  22539985.6874   22539989.2374
      1481.0164       1154.0384
   9433517.88346   7348145.22545  23009788.5934   23009793.7024
     -2106.3284      -1641.2954
  -8615277.27947  -6586303.96346  21534957.4604   21534960.8354
      -927.0944       -722.4114
   9504936.22044   8360825.88943  25247544.7264   25247550.5504
     -3029.3124      -2360.5034
 98  6 17  2 53  0.0030000  0  7G 1G 8G15G25G21G29G31
   7357761.67646   5779478.12646  22602010.1634   22602015.1444
     -2652.6254      -2066.9814
   5744600.55644   4984428.41843  24776103.4054   24776107.6124
     -3265.3284      -2544.4124
 -11669785.74246  -8913329.94546  22762102.5154   22762107.7294
      1905.1724       1484.5504
 -12703736.92846  -9736744.28046  22531567.1634   22531571.1714
      1467.8444       1143.7744
   9496822.99846   7397473.85945  23021835.0224   23021840.2144
     -2114.3914      -1647.5774
  -8587327.66947  -6564525.04146  21540276.0774   21540279.2294
      -936.7664       -729.9474
   9595876.60744   8431688.42943  25264849.6404   25264855.2064
     -3033.7034      -2363.9254
 98  6 17  2 53 30.0030000  0  7G 1G 8G15G25G21G29G31
   7437433.73046   5841560.24446  22617171.0224   22617175.6164
     -2659.0474      -2071.9854
   5842765.05844   5060920.22443  24794783.2804   24794787.9444
     -3279.1254      -2555.1624
 -11726731.08246  -8957702.89946  22751266.1404   22751271.7654
      1890.9534       1473.4704
 -12747571.85446  -9770901.31346  22523225.7724   22523230.0034
      1454.1414       1133.0974
   9560388.85946   7447005.69245  23033931.1944   23033936.7144
     -2123.5474      -1654.7124
  -8559060.70547  -6542498.82846  21545655.1014   21545658.4054
      -947.8754       -738.6044
   9686962.43944   8502664.37543  25282182.9994   25282189.9404
     -3038.9374      -2368.0034
 98  6 17  2 54  0.0030000  0  7G 1G 8G15G25G21G29G31
   7517293.01546   5903788.25046  22632367.7334   22632372.4094
     -2665.0624      -2076.6724
   5941333.68544   5137726.95443  24813540.4834   24813545.3234
     -3292.1874      -2565.3414
 -11783253.72046  -9001746.50446  22740510.1874   22740514.9564
      1877.0634       1462.6464
 -12790989.58446  -9804733.26446  22514963.6244   22514967.5264
      1440.2194       1122.2484
   9624225.14346   7496748.22645  23046078.8584   23046084.7184
     -2132.4844      -1661.6764
  -8530470.74947  -6520220.93246  21551095.6474   21551098.9054
      -958.2664       -746.7004
   9778204.69844   8573762.18743  25299545.5624   25299551.2924
     -3044.0784      -2372.0094
 98  6 17  2 54 30.0030000  0  7G 1G 8G15G25G21G29G31
   7597339.24146   5966161.92046  22647600.1944   22647604.8234
     -2671.4534      -2081.6524
   6040293.95244   5214838.87443  24832372.2414   24832376.9294
     -3305.3754      -2575.6174
 -11839354.46846  -9045461.35446  22729834.4374   22729839.2884
      1862.8284       1451.5544
 -12833982.84846  -9838234.46346  22506782.2264   22506786.2574
      1425.7814       1110.9984
   9688335.24446   7546704.12345  23058278.7334   23058284.0074
     -2141.5944      -1668.7744
  -8501563.55147  -6497695.82446  21556596.5854   21556599.9134
      -969.1724       -755.1994
   9869600.09044   8644979.27843  25316937.7884   25316943.0384
     -3049.0624      -2375.8934
 98  6 17  2 55  0.0030000  0  7G 1G 8G15G25G21G29G31
   7677565.36246   6028675.77446  22662866.8044   22662871.3974
     -2676.9694      -2085.9504
   6139651.07644   5292259.95343  24851279.6014   24851284.7104
     -3318.4694      -2585.8204
 -11895031.60246  -9088846.12046  22719239.2494   22719244.7804
      1848.9224       1440.7184
 -12876542.62246  -9871397.87646  22498683.4994   22498687.3544
      1411.4224       1099.8094
   9752704.06746   7596861.62045  23070527.5304   23070532.4294
     -2149.7194      -1675.1064
  -8472319.69147  -6474908.38946  21562161.3124   21562164.4174
      -980.5004       -764.0264
   9961134.67144   8716304.87043  25334356.2964   25334362.4134
     -3053.2034      -2379.1194
 98  6 17  2 55 30.0030000  0  7G 1G 8G15G25G21G29G31
   7757962.34246   6091322.76846  22678165.8434   22678170.3084
     -2682.7344      -2090.4424
   6239404.79844   5369990.11842  24870261.4214   24870266.7294
     -3331.5474      -2596.0114
 -11950287.74046  -9131902.83346  22708724.6944   22708729.9914
      1835.0004       1429.8704
 -12918657.67546  -9904214.75546  22490669.0304   22490672.9564
      1396.3444       1088.0604
   9817323.57446   7647214.45745  23082824.0224   23082829.6364
     -2157.9224      -1681.4984
  -8442736.01247  -6451856.16046  21567791.0774   21567794.4874
      -991.3444       -772.4764
  10052788.54144   8787723.39743  25351797.9994   25351804.9994
     -3056.7504      -2381.8834
 98  6 17  2 56  0.0030000  0  7G 1G 8G15G25G21G29G31
   7838540.37846   6154110.84046  22693499.3194   22693503.6554
     -2688.5944      -2095.0084
   6339555.73044   5448029.83442  24889319.5074   24889323.8904
     -3344.6874      -2606.2504
 -12005120.66546  -9174629.78446  22698290.2104   22698294.5934
      1820.9534       1418.9254
 -12960316.25246  -9936675.94546  22482741.6554   22482745.6634
      1381.4844       1076.4814
   9882178.32946   7697750.60745  23095165.6794   23095171.3864
     -2165.2974      -1687.2444
  -8412834.73847  -6428556.45346  21573480.8354   21573484.1514
     -1001.5314       -780.4144
  10144545.19143   8859222.03142  25369258.1794   25369265.3544
     -3059.9064      -2384.3434
 98  6 17  2 56 30.0030000  0  7G 1G 8G15G25G21G29G31
   7919296.78846   6217037.90746  22708866.9214   22708871.5974
     -2694.7034      -2099.7694
   6440102.13844   5526377.65942  24908452.5464   24908458.3004
     -3358.0164      -2616.6364
 -12059525.30646  -9217023.00146  22687937.4054   22687942.2924
      1806.4224       1407.6014
 -13001529.86546  -9968790.41746  22474898.8744   22474903.1874
      1366.5004       1064.8054
   9947260.72046   7748464.14345  23107550.6874   23107556.6284
     -2173.0784      -1693.3084
  -8382629.54047  -6405019.92146  21579228.8664   21579232.1364
     -1011.6874       -788.3284
  10236398.06943   8930795.61342  25386737.4994   25386743.7104
     -3063.2034      -2386.9124
 98  6 17  2 57  0.0030000  0  7G 1G 8G15G25G21G29G31
   8000229.87446   6280102.63946  22724268.0224   22724273.0154
     -2700.9694      -2104.6514
   6541037.96444   5605028.94343  24927659.6084   24927664.0504
     -3371.0314      -2626.7784
 -12113499.34946  -9259080.68446  22677666.5544   22677671.5694
      1791.6564       1396.0964
 -13042302.25346 -10000561.07446  22467139.8274   22467143.7654
      1351.4694       1053.0934
  10012573.77946   7799357.40845  23119979.0774   23119984.6084
     -2181.4064      -1699.7974
  -8352133.88047  -6381257.05146  21585031.9604   21585035.1364
     -1021.3444       -795.8524
  10328344.71043   9002442.29042  25404235.1404   25404243.1474
     -3066.7974      -2389.7124
 98  6 17  2 57 30.0030000  0  7G 1G 8G15G25G21G29G31
   8081337.82846   6343303.64646  22739702.4054   22739707.0464
     -2706.4694      -2108.9374
   6642343.96643   5683968.68542  24946938.4834   24946944.7884
     -3383.0164      -2636.1164
 -12167038.98046  -9300799.86746  22667478.4134   22667483.6164
      1777.2664       1384.8824
 -13082635.02347 -10031989.16046  22459464.8194   22459468.6754
      1337.1414       1041.9284
  10078128.84946   7850439.26745  23132453.8514   23132459.2064
     -2189.2504      -1705.9094
  -8321373.75747  -6357288.11146  21590885.2184   21590888.3474
     -1029.7034       -802.3664
  10420395.31943   9074169.95142  25421750.9054   25421755.4644
     -3070.2814      -2392.4274
 98  6 17  2 58  0.0030000  0  7G 1G 8G15G25G21G29G31
   8162605.46646   6406629.07446  22755166.7804   22755171.5264
     -2711.2974      -2112.6994
   6744005.21344   5763185.21442  24966284.0154   24966289.0544
     -3394.4844      -2645.0534
 -12220139.81546  -9342177.13246  22657373.3514   22657378.5894
      1762.6564       1373.4984
 -13122544.90146 -10063087.72746  22451870.3744   22451874.5464
      1323.4534       1031.2624
  10143932.59046   7901714.89345  23144976.0544   23144981.4444
     -2197.9844      -1712.7154
  -8290358.36947  -6333120.27046  21596787.5464   21596791.0264
     -1038.1414       -808.9414
  10512557.96543   9145984.90643  25439289.3904   25439296.1404
     -3074.0624      -2395.3734
 98  6 17  2 58 30.0030000  0  7G 1G 8G15G25G21G29G31
   8244019.02046   6470068.19846  22770659.2334   22770664.1904
     -2716.1564      -2116.4854
   6846016.50444   5842674.49943  24985695.7414   24985702.3864
     -3406.2504      -2654.2214
 -12272794.85246  -9383207.01546  22647353.6794   22647358.8234
      1747.7664       1361.8954
 -13162033.61446 -10093858.11846  22444356.0224   22444360.0894
      1309.1414       1020.1104
  10210020.39646   7953211.86845  23157551.7184   23157557.1554
     -2207.6254      -1720.2274
  -8259083.82747  -6308750.48346  21602738.6014   21602742.1634
     -1046.8284       -815.7104
  10604845.71143   9217897.34642  25456851.0304   25456857.1124
     -3078.2504      -2398.6364
 98  6 17  2 59  0.0030000  0  7G 1G 8G15G25G21G29G31
   8325570.29746   6533614.64046  22786178.0074   22786183.1164
     -2720.4534      -2119.8344
   6948383.11444   5922440.68943  25005175.0464   25005180.1904
     -3418.0004      -2663.3774
 -12325008.37546  -9423892.86946  22637417.6404   22637422.9834
      1733.3284       1350.6454
 -13201098.84846 -10124298.51946  22436921.7884   22436925.8544
      1295.3594       1009.3714
  10276383.94046   8004923.70445  23170180.2724   23170185.8744
     -2216.3754      -1727.0454
  -8227543.53247  -6284173.61646  21608740.6794   21608744.1594
     -1055.6564       -822.5894
  10697249.68344   9289900.38043  25474434.9764   25474440.7064
     -3081.8284      -2401.4254
 98  6 17  2 59 30.0030000  0  7G 1G 8G15G25G21G29G31
   8407257.76846   6597267.20746  22801722.6014   22801727.4994
     -2725.6094      -2123.8514
   7051105.65944   6002484.21643  25024722.7964   25024728.5974
     -3430.3594      -2673.0074
 -12376785.58246  -9464238.73546  22627565.1324   22627570.2654
      1718.2664       1338.9084
 -13239741.60246 -10154409.72246  22429568.3744   22429572.1944
      1280.6564        997.9144
  10343010.99646   8056840.86645  23182859.3274   23182864.9524
     -2225.7034      -1734.3144
  -8195729.93747  -6259383.79346  21614794.5224   21614797.7924
     -1065.5624       -830.3084
  10789761.65243   9361987.51242  25492039.2964   25492045.1794
     -3085.7974      -2404.5174
 98  6 17  3  0  0.0030000  0  7G 1G 8G15G25G21G29G31
   8489100.24146   6661040.56646  22817296.6324   22817301.5774
     -2731.0164      -2128.0644
   7154195.10444   6082813.62043  25044340.3354   25044345.6554
     -3442.6254      -2682.5654
 -12428115.20146  -9504235.82046  22617796.9914   22617802.5224
      1703.3594       1327.2934
 -13277948.87346 -10184181.59046  22422297.8824   22422301.9134
      1266.0314        986.5184
  10409917.83046   8108976.04245  23195591.2184   23195597.0774
     -2235.0314      -1741.5834
  -8163619.48447  -6234362.65346  21620904.9134   21620908.2884
     -1075.3594       -837.9424
  10882383.61843   9434160.38243  25509665.0074   25509671.5464
     -3089.4224      -2407.3424
 98  6 17  3  0 30.0030000  0  8G 1G14G 8G15G25G21G29G31
   8571122.88546   6724954.31046  22832905.2654   22832910.1984
     -2737.1564      -2132.8494
    -57172.95352                  25867577.4914
      2118.2664
   7257666.50244   6163440.72742  25064030.3744   25064036.5734
     -3455.3914      -2692.5124
 -12478989.46946  -9543878.08446  22608115.8744   22608121.6634
      1688.3284       1315.5804
 -13315702.59546 -10213600.03846  22415113.6714   22415117.4684
      1250.9844        974.7934
  10477100.66846   8161326.29445  23208375.9604   23208380.5654
     -2243.6254      -1748.2794
  -8131211.71047  -6209109.83746  21627071.9134   21627075.1244
     -1085.2194       -845.6254
  10975124.46143   9506425.89743  25527312.8514   25527318.0424
     -3093.1094      -2410.2154
 98  6 17  3  1  0.0030000  0  8G 1G14G 8G15G25G21G29G31
   8653335.61346   6789016.16046  22848549.5464   22848554.3624
     -2743.8594      -2138.0724
   -120734.98843                  25855482.0854
      2119.0164
   7361516.30744   6244362.65942  25083791.9914   25083798.6124
     -3467.9064      -2702.2654
 -12529410.27046  -9583166.98946  22598521.3124   22598526.7144
      1672.9844       1303.6244
 -13353005.98346 -10242667.57346  22408014.9604   22408018.7334
      1235.8134        962.9714
  10544539.30346   8213875.85645  23221209.1164   23221214.9994
     -2252.5004      -1755.1954
  -8098498.59147  -6183619.08546  21633296.9764   21633300.2804
     -1095.5944       -853.7094
  11067970.73043   9578773.51343  25544981.1634   25544988.4214
     -3096.7664      -2413.0644
 98  6 17  3  1 30.0040000  0  8G 1G14G 8G15G25G21G29G31
   8735747.45446   6853233.17346  22864231.9884   22864236.5124
     -2750.0944      -2142.9304
   -184322.35143    -18168.44552  25843381.8714   25843388.3404
      2120.0314       1651.9724
   7465733.61444   6325570.87342  25103623.4574   25103629.3164
     -3479.6414      -2711.4084
 -12579374.50246  -9622100.15046  22589013.2384   22589018.4304
      1657.7974       1291.7904
 -13389854.12746 -10271380.37746  22401002.8794   22401006.7234
      1220.6564        951.1614
  10612247.29346   8266635.32345  23234093.3164   23234098.8594
     -2261.1414      -1761.9284
  -8065485.06747  -6157894.24346  21639579.2304   21639582.6764
     -1105.2664       -861.2464
  11160925.31343   9651205.57643  25562670.4024   25562678.0704
     -3100.0474      -2415.6214
 98  6 17  3  2  0.0040000  0  8G 1G14G 8G15G25G21G29G31
   8818341.87546   6917592.45446  22879949.2464   22879953.9224
     -2756.1094      -2147.6184
   -247939.50743    -67740.20242  25831275.8714   25831282.6094
      2121.1414       1652.8374
   7570304.39744   6407054.62042  25123523.1454   25123529.4614
     -3491.6564      -2720.7714
 -12628878.57346  -9660674.72246  22579592.9024   22579598.2814
      1642.5784       1279.9314
 -13426249.13546 -10299740.08946  22394077.1054   22394080.6804
      1205.7974        939.5824
  10680207.39246   8319591.22945  23247025.9264   23247031.3874
     -2269.2974      -1768.2834
  -8032182.09847  -6131943.87846  21645916.4494   21645919.5554
     -1114.7664       -868.6494
  11253977.06243   9723713.25643  25580377.0124   25580381.4654
     -3103.2194      -2418.0934
 98  6 17  3  2 30.0040000  0  8G 1G14G 8G15G25G21G29G31
   8901110.23446   6982087.26446  22895699.5824   22895703.9774
     -2761.5624      -2151.8674
   -311580.07543   -117330.28042  25819165.0124   25819172.4224
      2121.8594       1653.3974
   7675239.31444   6488822.01242  25143491.6914   25143497.2114
     -3503.7814      -2730.2194
 -12677923.03946  -9698891.16446  22570259.9734   22570265.1764
      1627.1564       1267.9144
 -13462194.61447 -10327749.50846  22387236.8244   22387240.3754
      1190.6724        927.7964
  10748407.74546   8372734.35945  23260003.9024   23260009.3634
     -2277.3124      -1774.5294
  -7998592.00847  -6105769.77346  21652308.5824   21652311.5944
     -1124.6724       -876.3684
  11347118.44043   9796290.85042  25598101.6844   25598107.7664
     -3105.8754      -2420.1624
 98  6 17  3  3  0.0040000  0  8G 1G14G 8G15G25G21G29G31
   8984032.91846   7046702.34146  22911479.5124   22911484.3404
     -2766.8124      -2155.9584
   -375257.32343   -166948.85042  25807048.0824   25807054.6804
      2123.1094       1654.3714
   7780522.28643   6570860.72942  25163526.1054   25163532.7274
     -3515.2974      -2739.1924
 -12726505.38746  -9736747.52146  22561015.1764   22561020.6024
      1611.4534       1255.6784
 -13497683.12447 -10355402.86046  22380483.7544   22380487.2934
      1175.0004        915.5844
  10816843.65746   8426061.03345  23273026.6134   23273031.8404
     -2285.2664      -1780.7264
  -7964700.09147  -6079360.47446  21658757.8794   21658761.1724
     -1134.8444       -884.2944
  11440327.11044   9868920.88243  25615838.4654   25615844.3484
     -3108.2344      -2422.0014
 98  6 17  3  3 30.0040000  0  8G 1G14G 8G15G25G21G29G31
   9067091.07046   7111422.96746  22927284.8014   22927289.4184
     -2770.7194      -2159.0024
   -438982.69343   -216604.95842  25794921.5904   25794928.1414
      2124.8444       1655.7224
   7886145.20744   6653164.29142  25183625.4804   25183631.2234
     -3526.5944      -2747.9954
 -12774626.84046  -9774244.71646  22551857.9264   22551863.3634
      1596.1884       1243.7824
 -13532709.65746 -10382696.21646  22373818.3954   22373822.4494
      1159.6414        903.6164
  10885503.18546   8479561.95945  23286092.3714   23286097.8794
     -2292.4374      -1786.3154
  -7930519.93347  -6052726.57546  21665262.2234   21665265.6094
     -1144.2034       -891.5874
  11533594.35744   9941596.54642  25633586.6454   25633593.6914
     -3110.0474      -2423.4134
 98  6 17  3  4  0.0040000  0  8G 1G14G 8G15G25G21G29G31
   9150268.20646   7176236.30546  22943113.0124   22943117.8634
     -2774.6254      -2162.0454
   -502751.65943   -266295.03942  25782786.3094   25782792.0984
      2126.1564       1656.7454
   7992111.37944   6735735.31242  25203790.5044   25203797.4104
     -3538.1094      -2756.9684
 -12822282.41146  -9811378.91346  22542789.5354   22542794.2464
      1580.5944       1231.6314
 -13567272.59147 -10409628.34146  22367241.3094   22367244.7074
      1144.3754        891.7214
  10954387.38146   8533237.94945  23299200.3954   23299205.2344
     -2300.1724      -1792.3424
  -7896054.60247  -6025870.46346  21671820.8714   21671824.1294
     -1153.6874       -898.9774
  11626917.94244  10014316.11043  25651345.5594   25651352.0624
     -3111.6094      -2424.6314
 98  6 17  3  4 30.0040000  0  8G 1G14G 8G15G25G21G29G31
   9233561.27746   7241139.98746  22958962.9574   22958967.4344
     -2778.4534      -2165.0284
   -566564.69443   -316019.41542  25770642.5744   25770648.3634
      2128.0474       1658.2184
   8098418.10543   6818571.66742  25224019.5044   25224026.6804
     -3549.0474      -2765.4914
 -12869467.94046  -9848146.83746  22533810.2304   22533815.3874
      1564.9224       1219.4204
 -13601372.84447 -10436199.92646  22360752.0124   22360755.8794
      1128.8284        879.6064
  11023507.47846   8587097.75145  23312353.6374   23312358.9454
     -2308.0784      -1798.5024
  -7861303.16947  -5998791.43346  21678433.8324   21678437.2074
     -1163.2974       -906.4654
  11720282.53143  10087067.62742  25669113.3324   25669119.1684
     -3112.8444      -2425.5934
 98  6 17  3  5  0.0040000  0  8G 1G14G 8G15G25G21G29G31
   9316973.99146   7306136.89846  22974836.0664   22974840.2854
     -2782.6094      -2168.2674
   -630440.68343   -365792.87741  25758487.5904   25758491.1294
      2129.8754       1659.6434
   8205045.88843   6901658.29842  25244310.0904   25244315.0594
     -3559.9224      -2773.9654
 -12916183.90146  -9884548.85746  22524920.6134   22524926.0394
      1549.1724       1207.1474
 -13635013.85247 -10462413.66646  22354350.4414   22354353.9344
      1113.6564        867.7844
  11092870.07946   8641146.52645  23325552.7854   23325558.6334
     -2316.5004      -1805.0654
  -7826271.29147  -5971493.86346  21685100.0434   21685103.4884
     -1172.2974       -913.4784
  11813687.95744  10159850.96142  25686887.6524   25686895.3794
     -3114.6094      -2426.9684
 98  6 17  3  5 30.0040000  0  8G 1G14G 8G15G25G21G29G31
   9400503.95246   7371225.16946  22990731.4344   22990736.2384
     -2786.0314      -2170.9334
   -694364.68542   -415603.74741  25746322.7934   25746328.0664
      2131.8444       1661.1774
   8312006.75843   6985004.38542  25264664.1914   25264668.9024
     -3570.5944      -2782.2814
 -12962428.52246  -9920583.59746  22516120.5514   22516125.7304
      1533.8594       1195.2154
 -13668209.48547 -10488280.35946  22348033.4804   22348036.7624
      1099.3914        856.6684
  11162491.09246   8695396.65545  23338801.0204   23338806.2114
     -2324.8444      -1811.5674
  -7790979.75247  -5943993.95146  21691815.7304   21691818.8014
     -1180.4064       -919.7974
  11907151.33843  10232679.45942  25704672.7934   25704679.5084
     -3116.2504      -2428.2474
 98  6 17  3  6  0.0040000  0  8G 1G14G 8G15G25G21G29G31
   9484165.61746   7436416.06446  23006651.4494   23006656.0554
     -2791.2344      -2174.9884
   -758341.37142   -465455.65241  25734149.0124   25734157.5824
      2133.5634       1662.5164
   8419294.37243   7068605.10141  25285080.9654   25285088.4454
     -3581.6724      -2790.9134
 -13008198.31446  -9956248.34346  22507410.5744   22507415.4734
      1517.7034       1182.6264
 -13700964.11347 -10513803.41546  22341800.4344   22341803.9264
      1084.5004        845.0654
  11232373.34246   8749850.35245  23352099.5274   23352104.8714
     -2333.7034      -1818.4704
  -7755429.28047  -5916292.28346  21698580.9104   21698584.0394
     -1189.4534       -926.8474
  12000676.29043  10305555.90142  25722470.4804   25722480.1174
     -3118.4534      -2429.9634
 98  6 17  3  6 30.0040000  0  8G 1G14G 8G15G25G21G29G31
   9567980.75146   7501726.54946  23022600.9654   23022606.1564
     -2796.4374      -2179.0424
   -822378.25442   -515354.57141  25721963.7234   25721965.1644
      2135.5004       1664.0264
   8526905.84443   7152458.21942  25305558.7234   25305567.2584
     -3592.4224      -2799.2904
 -13053489.12146  -9991539.85746  22498792.2154   22498796.9494
      1501.5784       1170.0614
 -13733268.71347 -10538975.80246  22335652.8874   22335656.3444
      1068.9534        832.9504
  11302513.86446   8804505.30845  23365446.6054   23365452.2424
     -2342.4694      -1825.3004
  -7719612.90647  -5888383.41646  21705396.5744   21705399.5514
     -1198.2664       -933.7134
  12094263.71242  10378481.08641  25740279.2464   25740285.9144
     -3120.9224      -2431.8874
 98  6 17  3  7  0.0040000  0  8G 1G14G 8G15G25G21G29G31
   9651943.45646   7567152.02646  23038578.2854   23038583.1134
     -2800.9844      -2182.5854
   -886471.01042   -565296.87041  25709767.8404   25709772.3754
      2137.2504       1665.3904
   8634838.88643   7236561.81542  25326097.8484   25326102.0314
     -3603.1724      -2807.6664
 -13098297.12846 -10026455.16346  22490265.4574   22490270.2384
      1485.6094       1157.6184
 -13765106.53247 -10563784.44746  22329594.3554   22329598.2344
      1053.6094        820.9944
  11372918.66546   8859366.16945  23378844.2704   23378849.9304
     -2351.0474      -1831.9854
  -7683540.23147  -5860274.83046  21712260.9654   21712263.8954
     -1206.5314       -940.1544
  12187932.29342  10451469.45241  25758103.3324   25758108.9694
     -3123.6254      -2433.9944
 98  6 17  3  7 30.0040000  0  8G 1G14G 8G15G25G21G29G31
   9736043.37446   7632684.42046  23054582.1914   23054586.8794
     -2805.9534      -2186.4574
   -950612.14442   -615276.92041  25697561.9104   25697567.3594
      2138.7344       1666.5464
   8743097.10542   7320918.87441  25346698.0824   25346706.3364
     -3614.0784      -2816.1654
 -13142622.16146 -10060994.11846  22481830.5664   22481835.5004
      1469.2504       1144.8704
 -13796479.41147 -10588230.81646  22323624.4494   22323628.2814
      1037.7034        808.6004
  11443572.35046   8914420.97845  23392289.4104   23392294.8714
     -2359.3124      -1838.4254
  -7647210.74447  -5831966.13446  21719174.0594   21719177.0704
     -1215.6414       -947.2524
  12281674.63142  10524515.30242  25775942.6294   25775949.1564
     -3125.8284      -2435.7104
 98  6 17  3  8  0.0040000  0  8G 1G14G 8G15G25G21G29G31
   9820289.40346   7698330.66546  23070613.8874   23070618.4104
     -2810.4224      -2189.9394
  -1014807.03642   -665298.80441  25685344.4494   25685349.7114
      2140.6564       1668.0444
   8851667.74642   7405519.31541  25367358.8954   25367357.7934
     -3624.2974      -2824.1274
 -13186465.82446 -10095157.98146  22473487.4574   22473492.7544
      1453.4534       1132.5614
 -13827379.02747 -10612308.39746  22317744.1994   22317747.9494
      1022.1094        796.4494
  11514460.11146   8969658.18145  23405778.6994   23405783.6914
     -2366.7504      -1844.2214
  -7610614.02347  -5803449.21246  21726138.4574   21726141.3754
     -1224.3124       -954.0104
  12375465.09642  10597598.67641  25793790.8714   25793798.8444
     -3127.0004      -2436.6234
 98  6 17  3  8 30.0040000  0  8G 1G14G 8G15G25G21G29G31
   9904663.95946   7764077.06746  23086669.8874   23086674.3984
     -2814.5314      -2193.1414
  -1079039.35642   -715349.92641  25673122.1524   25673127.6134
      2141.4534       1668.6654
   8960569.66542   7490377.99341  25388082.6844   25388093.6684
     -3635.7664      -2833.0644
 -13229818.34346 -10128939.13746  22465237.7774   22465242.8634
      1436.7344       1119.5334
 -13857792.38446 -10636007.07946  22311956.8874   22311960.7074
      1005.5314        783.5314
  11585595.33446   9025088.23045  23419315.3714   23419320.4344
     -2375.5784      -1851.1004
  -7573745.40047  -5774720.40346  21733154.0984   21733157.0394
     -1233.5784       -961.2304
  12469305.23642  10670720.73942  25811647.7624   25811652.9184
     -3129.0314      -2438.2064
 98  6 17  3  9  0.0040000  0  8G 1G14G 8G15G25G21G29G31
   9989157.16546   7829915.91546  23102748.2234   23102752.9224
     -2818.6094      -2196.3194
  -1143300.82343   -765423.64942  25660894.0904   25660901.2664
      2142.4384       1669.4324
   9069802.86642   7575494.69341  25408868.8324   25408877.1804
     -3646.7034      -2841.5874
 -13272679.75246 -10162337.60846  22457081.3874   22457086.5084
      1420.4534       1106.8474
 -13887728.04947 -10659333.53546  22306260.0664   22306263.6764
       990.0474        771.4654
  11656984.38946   9080716.04645  23432900.1684   23432905.9104
     -2383.8594      -1857.5534
  -7536604.83847  -5745779.69346  21740221.9574   21740225.1454
     -1242.7974       -968.4134
  12563191.67943  10743878.90641  25829514.0044   25829521.3444
     -3130.1724      -2439.0954
 98  6 17  3  9 30.0040000  0  8G 1G14G 8G15G25G21G29G31
  10073780.84846   7895856.42846  23118851.2934   23118856.4024
     -2822.7194      -2199.5214
  -1207589.67743   -815518.69742  25648660.3554   25648665.5124
      2143.9534       1670.6134
   9179367.59542   7660869.86541  25429718.1524   25429727.1564
     -3657.3124      -2849.8544
 -13315044.22246 -10195348.85146  22449019.8244   22449024.8754
      1404.1884       1094.1724
 -13917187.25447 -10682288.72046  22300654.4494   22300658.3284
       974.2194        759.1314
  11728628.09945   9136542.30045  23446533.5824   23446538.7854
     -2392.2034      -1864.0544
  -7499176.40247  -5716614.67146  21747344.0434   21747347.1374
     -1252.0944       -975.6574
  12657109.18842  10817061.28341  25847385.2544   25847392.6644
     -3130.6094      -2439.4364
 98  6 17  3 10  0.0040000  0  8G 1G14G 8G15G25G21G29G31
  10158529.87846   7961894.62646  23134978.9574   23134984.2664
     -2827.0314      -2202.8814
  -1271929.66243   -865653.65142  25636416.3244   25636421.9374
      2145.5164       1671.8304
   9289250.66242   7746492.97741  25450628.0904   25450633.3634
     -3668.2194      -2858.3524
 -13356918.89246 -10227978.43346  22441051.2704   22441056.0864
      1387.5164       1081.1814
 -13946169.99247 -10704872.64246  22295139.1764   22295143.0204
       958.1094        746.5794
  11800531.08846   9192570.61045  23460215.8954   23460221.6484
     -2401.2664      -1871.1164
  -7461471.33347  -5687234.09546  21754519.2464   21754522.3754
     -1261.4224       -982.9264
  12751042.78643  10890256.19442  25865261.4494   25865270.0314
     -3131.6094      -2440.2154
 98  6 17  3 10 30.0040000  0  8G 1G14G 8G15G25G21G29G31
  10243411.68846   8028036.29746  23151131.1214   23151135.7854
     -2831.8914      -2206.6684
  -1336316.75843   -915825.35642  25624163.7154   25624172.0864
      2147.1564       1673.1094
   9399462.12142   7832372.01241  25471600.1214   25471603.6374
     -3678.8124      -2866.6074
 -13398286.59746 -10260212.97646  22433179.0744   22433184.0084
      1370.4844       1067.9104
 -13974666.28847 -10727077.50346  22289716.4964   22289720.0474
       941.7974        733.8684
  11872714.86846   9248817.69545  23473952.2934   23473957.9774
     -2410.8914      -1878.6164
  -7423481.99847  -5657632.00146  21761748.3634   21761751.1764
     -1271.0784       -990.4504
  12845013.76343  10963480.18342  25883143.1054   25883149.2344
     -3133.0314      -2441.3234
 98  6 17  3 11  0.0040000  0  8G 1G14G 8G15G25G21G29G31
  10328449.31346   8094299.37346  23167313.1764   23167318.1684
     -2837.1094      -2210.7354
  -1400764.89943   -966044.53242  25611899.5354   25611906.0514
      2149.5004       1674.9354
   9509967.37242   7918479.99441  25492628.4104   25492632.2074
     -3688.1564      -2873.8884
 -13439152.08946 -10292056.18246  22425402.5664   22425407.8404
      1353.8284       1054.9314
 -14002682.37746 -10748908.18646  22284385.0044   22284388.8014
       925.8284        721.4254
  11945171.70746   9305277.55045  23487740.5354   23487745.9494
     -2419.4694      -1885.3004
  -7385210.15347  -5627809.77946  21769031.2934   21769034.1994
     -1280.2814       -997.6224
  12939017.77843  11036729.99642  25901030.9574   25901036.3484
     -3133.8914      -2441.9934
 98  6 17  3 11 30.0040000  0  8G 1G14G 8G15G25G21G29G31
  10413636.06946   8160678.65246  23183523.8554   23183528.7664
     -2842.2344      -2214.7284
  -1465285.36244  -1016320.15042  25599621.1524   25599626.8834
      2151.5314       1676.5184
   9620752.62042   8004806.13241  25513710.5824   25513717.0164
     -3697.7504      -2881.3644
 -13479514.14246 -10323507.09646  22417721.9414   22417727.2624
      1336.7194       1041.5994
 -14030212.78946 -10770360.40846  22279145.8554   22279149.7344
       909.3444        708.5804
  12017884.59746   9361936.92845  23501577.3634   23501582.3674
     -2428.3444      -1892.2164
  -7346668.74447  -5597777.49646  21776365.3954   21776368.4884
     -1289.2974      -1004.6474
  13033047.45344  11109999.72842  25918924.5124   25918932.0044
     -3134.9534      -2442.8214
 98  6 17  3 12  0.0040000  0  8G 1G14G 8G15G25G21G29G31
  10498965.39746   8227169.01646  23199761.7234   23199766.7034
     -2846.3754      -2217.9554
  -1529858.70643  -1066636.96642  25587333.3404   25587340.2464
      2153.1414       1677.7724
   9731815.04741   8091348.33641  25534845.3244   25534852.9104
     -3706.4224      -2888.1214
 -13519366.30746 -10354560.69146  22410138.4104   22410143.7544
      1319.9384       1028.5234
 -14057263.37346 -10791438.74246  22273998.5274   22274002.3954
       893.8134        696.4774
  12090857.66246   9418799.04245  23515463.6844   23515469.0984
     -2436.6564      -1898.6934
  -7307868.09647  -5567543.21846  21783748.7544   21783752.0234
     -1297.4064      -1010.9664
  13127109.73943  11183294.94342  25936824.6844   25936831.8014
     -3136.0474      -2443.6734
 98  6 17  3 12 30.0040000  0  8G 1G14G 8G15G25G21G29G31
  10584410.93346   8293749.95046  23216021.3714   23216026.0704
     -2850.1564      -2220.9014
  -1594474.42043  -1116986.70942  25575037.8484   25575044.8484
      2154.3754       1678.7344
   9843129.23841   8178086.64641  25556027.5904   25556030.4614
     -3714.5474      -2894.4524
 -13558713.75946 -10385221.00446  22402650.9494   22402655.8244
      1303.0634       1015.3734
 -14083842.62446 -10812149.79346  22268940.5984   22268944.4064
       877.9694        684.1314
  12164080.68046   9475855.92545  23529397.7384   23529403.0704
     -2445.0784      -1905.2564
  -7268832.60547  -5537125.93946  21791177.2544   21791180.1484
     -1305.1414      -1016.9934
  13221205.62943  11256616.25342  25954729.9494   25954737.5124
     -3137.1724      -2444.5504
 98  6 17  3 13  0.0040000  0  7G 1G14G15G25G21G29G31
  10669972.38346   8360421.20146  23232302.9804   23232307.9144
     -2853.5314      -2223.5314
  -1659115.37943  -1167356.18942  25562736.5044   25562742.8554
      2155.1564       1679.3434
 -13597544.50946 -10415478.69646  22395261.6454   22395266.5434
      1285.7814       1001.9074
 -14109941.30646 -10832486.38746  22263974.0984   22263977.9534
       862.0944        671.7614
  12237565.56946   9533116.86945  23543381.5904   23543387.3444
     -2453.8124      -1912.0624
  -7229560.42147  -5506524.22246  21798650.4884   21798653.4304
     -1312.8284      -1022.9834
  13315338.21743  11329966.22642  25972643.3874   25972651.0554
     -3138.0004      -2445.1954
 98  6 17  3 13 30.0040000  0  7G 1G14G15G25G21G29G31
  10755624.43246   8427163.05046  23248602.1134   23248607.0594
     -2856.3444      -2225.7224
  -1723771.41043  -1217737.40242  25550432.8634   25550439.8284
      2155.5634       1679.6594
 -13635850.74646 -10445327.67846  22387972.1054   22387976.8984
      1268.3444        988.3204
 -14135563.95946 -10852452.05046  22259098.3164   22259102.0204
       846.4384        659.5624
  12311327.36646   9590593.59245  23557417.6994   23557423.7934
     -2463.2974      -1919.4524
  -7190054.41647  -5475740.30846  21806167.9734   21806171.0204
     -1320.5164      -1028.9734
  13409491.76243  11403332.47442  25990559.9414   25990566.8364
     -3138.5314      -2445.6094
 98  6 17  3 14  0.0040000  0  7G 1G14G15G25G21G29G31
  10841357.80246   8493968.25946  23264916.8244   23264921.3594
     -2859.3124      -2228.0364
  -1788454.18743  -1268139.41942  25538123.8484   25538131.1644
      2156.7814       1680.6094
 -13673643.67146 -10474776.67246  22380780.3794   22380785.7934
      1251.2194        974.9764
 -14160723.72446 -10872057.02046  22254310.5904   22254314.5164
       830.8284        647.3994
  12385366.30646   9648286.24545  23571506.4494   23571512.2624
     -2472.6094      -1926.7094
  -7150327.81647  -5444784.50746  21813727.7074   21813730.5554
     -1327.9844      -1034.7934
  13503659.11643  11476709.53143  26008479.3014   26008485.1844
     -3139.2344      -2446.1574
 98  6 17  3 14 30.0040000  0  7G 1G14G15G25G21G29G31
  10927192.64946   8560852.54746  23281250.5664   23281255.7234
     -2863.2974      -2231.1404
  -1853182.94443  -1318577.32142  25525806.3484   25525813.1804
      2158.1884       1681.7054
 -13710921.89946 -10503824.60946  22373686.5204   22373691.2194
      1233.7504        961.3644
 -14185409.94046 -10891292.99746  22249612.8324   22249616.4774
       814.7664        634.8824
  12459687.18346   9706198.60445  23585649.5204   23585655.2854
     -2482.3284      -1934.2824
  -7110371.07447  -5413649.36246  21821331.2774   21821334.2774
     -1336.1094      -1041.1244
  13597838.33942  11550095.86342  26026402.0204   26026408.8524
     -3139.5474      -2446.4004
 98  6 17  3 15  0.0040000  0  7G 1G14G15G25G21G29G31
  11013150.40946   8627832.61446  23297607.9884   23297612.6874
     -2867.3444      -2234.2944
  -1917954.38242  -1369048.52242  25513479.9494   25513486.1954
      2159.8134       1682.9714
 -13747674.58246 -10532463.03146  22366692.5594   22366697.5274
      1216.3284        947.7884
 -14209615.95946 -10910154.78546  22245006.3554   22245010.2814
       798.8754        622.5004
  12534298.41545   9764337.21845  23599847.4734   23599853.2974
     -2491.7814      -1941.6484
  -7070168.60747  -5382322.75046  21828981.5514   21828984.2234
     -1344.2504      -1047.4684
  13692025.87642  11623488.58242  26044324.5204   26044330.5204
     -3139.7974      -2446.5954
 98  6 17  3 15 30.0040000  0  7G 1G14G15G25G21G29G31
  11099243.27646   8694917.96046  23313990.7704   23313995.3524
     -2872.1094      -2238.0074
  -1982764.22342  -1419549.59242  25501148.4804   25501154.6804
      2160.9694       1683.8724
 -13783896.39746 -10560687.78846  22359799.9884   22359805.1334
      1198.7344        934.0794
 -14233332.01546 -10928634.78746  22240493.5434   22240497.3404
       782.2814        609.5704
  12609194.20245   9822697.55845  23614099.9964   23614105.5394
     -2500.9844      -1948.8194
  -7029713.16647  -5350799.01146  21836679.8874   21836682.5124
     -1352.5784      -1053.9574
  13786235.66243  11696898.63942  26062252.3794   26062261.6524
     -3140.6564      -2447.2654
 98  6 17  3 16  0.0040000  0  7G 1G14G15G25G21G29G31
  11185486.11946   8762120.16146  23330402.4344   23330407.0274
     -2877.4694      -2242.1834
  -2047603.25642  -1470073.40542  25488808.8014   25488816.0354
      2161.3754       1684.1884
 -13819589.98346 -10588500.94646  22353007.6054   22353012.3164
      1180.7194        920.0414
 -14256540.97647 -10946719.65346  22236077.0354   22236080.4344
       764.9064        596.0314
  12684360.09445   9881268.38645  23628403.6454   23628409.9734
     -2510.2194      -1956.0154
  -6989004.16947  -5319077.70246  21844426.5744   21844429.4694
     -1361.5314      -1060.9334
  13880474.17643  11770331.16742  26080185.6604   26080195.0864
     -3141.9374      -2448.2634
 98  6 17  3 16 30.0040000  0  7G 1G14G15G25G21G29G31
  11271869.14846   8829431.60146  23346840.6134   23346845.2774
     -2881.7344      -2245.5074
  -2112453.44842  -1520605.87342  25476468.8164   25476476.0044
      2161.3444       1684.1644
 -13854754.63246 -10615901.93546  22346315.9964   22346320.9304
      1163.0474        906.2704
 -14279239.61247 -10964406.85646  22231757.5904   22231760.9654
       747.7194        582.6384
  12759791.42245   9940046.05145  23642757.9104   23642762.9264
     -2518.9844      -1962.8454
  -6948042.03247  -5287159.14446  21852221.3954   21852224.4184
     -1369.7664      -1067.3504
  13974726.54942  11843774.47542  26098122.0664   26098127.9494
     -3142.1724      -2448.4464
 98  6 17  3 17  0.0040000  0  7G 1G14G15G25G21G29G31
  11358374.49446   8896838.35946  23363301.8874   23363306.2584
     -2885.0624      -2248.1014
  -2177297.42243  -1571133.65142  25464129.2934   25464134.7424
      2161.7194       1684.4564
 -13889384.54946 -10642886.25946  22339725.9734   22339730.7194
      1145.7664        892.8044
 -14301413.97747 -10981685.53846  22227537.8714   22227541.5274
       730.7344        569.4034
  12835481.59645   9999025.39945  23657161.2384   23657166.7344
     -2526.7974      -1968.9334
  -6906825.38647  -5255042.26146  21860064.5124   21860067.4064
     -1377.9534      -1073.7304
  14068997.45142  11917232.16342  26116060.5664   26116068.8914
     -3142.2504      -2448.5064
 98  6 17  3 17 30.0040000  0  7G 1G14G15G25G21G29G31
  11444992.96146   8964333.25946  23379784.8014   23379789.6524
     -2889.2814      -2251.3884
  -2242131.44043  -1621653.58142  25451791.5434   25451797.4844
      2160.7344       1683.6894
 -13923479.99146 -10669454.10546  22333237.8634   22333242.6214
      1127.4844        878.5594
 -14323059.98147 -10998552.51646  22223419.0124   22223422.5984
       712.5474        555.2314
  12911418.80445  10058197.25045  23671611.0664   23671616.5164
     -2535.4224      -1975.6534
  -6865341.24547  -5222716.94646  21867959.0594   21867962.0354
     -1387.3124      -1081.0234
  14163270.82942  11990691.78942  26134000.1684   26134004.0594
     -3142.3444      -2448.5804
